[[{"header":{"parameterUnit":"m.s-1","parameterCategory":1,"la1":30.6,"la2":29.2853,"lo1":-89.7004,"lo2":-87.6739,"dy":0.0162,"dx":0.0183,"nx":112,"ny":82,"refTime":"2024-06-21T06:00:00:Z","depth":0,"parameterNumber":2,"parameterNumberName":"U-component_of_WINDS"},"data":[0.0,0.0,0.0,0.0,0.0,0.0,0.0,0.0,0.0,0.0,0.0,0.0,0.0,0.0,0.0,0.0,0.0,0.0,0.0,0.0,0.0,0.0,0.0,0.0,0.0,0.0,0.0,0.0,0.0,0.0,0.0,0.0,0.0,0.0,0.0,0.0,0.0,0.0,0.0,0.0,0.0,0.0,0.0,0.0,0.0,0.0,0.0,0.0,0.0,0.0,0.0,0.0,0.0,0.0,0.0,0.0,0.0,0.0,0.0,0.0,0.0,0.0,0.0,0.0,0.0,0.0,0.0,0.0,0.0,0.0,0.0,0.0,0.0,0.0,0.0,0.0,0.0,0.0,0.0,0.0,0.0,0.0,0.0,0.0,0.0,0.0,0.0,0.0,0.0,0.0,-2.1936,-2.512,-2.8064,-2.9801,-2.9869,-2.8943,-2.7168,-2.448,0.0,0.0,0.0,0.0,0.0,0.0,0.0,0.0,0.0,0.0,0.0,0.0,0.0,0.0,0.0,0.0,0.0,0.0,0.0,0.0,0.0,0.0,0.0,0.0,0.0,0.0,0.0,0.0,0.0,0.0,0.0,0.0,0.0,0.0,0.0,0.0,0.0,0.0,0.0,0.0,0.0,0.0,0.0,0.0,0.0,0.0,0.0,0.0,0.0,0.0,0.0,0.0,0.0,0.0,0.0,0.0,0.0,0.0,0.0,0.0,0.0,0.0,0.0,0.0,0.0,0.0,0.0,0.0,0.0,0.0,0.0,0.0,0.0,0.0,0.0,0.0,0.0,0.0,0.0,0.0,0.0,0.0,0.0,0.0,0.0,0.0,0.0,0.0,0.0,0.0,0.0,0.0,0.0,0.0,0.0,0.0,0.0,0.0,0.0,0.0,0.0,0.0,0.0,0.0,-2.3298,-2.7641,-2.7878,-2.8055,-2.8876,-2.7349,-2.5746,-2.4376,0.0,0.0,0.0,0.0,0.0,0.0,0.0,0.0,0.0,0.0,0.0,0.0,0.0,0.0,0.0,0.0,0.0,0.0,0.0,0.0,0.0,0.0,0.0,0.0,0.0,0.0,0.0,0.0,0.0,0.0,0.0,0.0,0.0,0.0,0.0,0.0,0.0,0.0,0.0,0.0,0.0,0.0,0.0,0.0,0.0,0.0,0.0,0.0,0.0,0.0,0.0,0.0,0.0,0.0,0.0,0.0,0.0,0.0,0.0,0.0,0.0,0.0,0.0,0.0,0.0,0.0,0.0,0.0,0.0,0.0,0.0,0.0,0.0,0.0,0.0,0.0,0.0,0.0,0.0,0.0,0.0,0.0,0.0,0.0,0.0,0.0,0.0,0.0,0.0,0.0,0.0,0.0,0.0,0.0,0.0,0.0,0.0,0.0,0.0,0.0,0.0,0.0,0.0,-2.1927,-2.3646,-2.7517,-2.7769,-2.7785,-2.7997,-2.7194,-2.5673,-2.3247,-2.1219,0.0,0.0,0.0,0.0,0.0,0.0,0.0,0.0,0.0,0.0,0.0,0.0,0.0,0.0,0.0,0.0,0.0,0.0,0.0,0.0,0.0,0.0,0.0,0.0,0.0,0.0,0.0,0.0,0.0,0.0,0.0,0.0,0.0,0.0,0.0,0.0,0.0,0.0,0.0,0.0,0.0,0.0,0.0,0.0,0.0,0.0,0.0,0.0,0.0,0.0,0.0,0.0,0.0,0.0,0.0,0.0,0.0,0.0,0.0,0.0,0.0,0.0,0.0,0.0,0.0,0.0,0.0,0.0,0.0,0.0,0.0,0.0,0.0,0.0,0.0,0.0,0.0,0.0,0.0,0.0,0.0,0.0,0.0,0.0,0.0,0.0,0.0,0.0,0.0,0.0,0.0,0.0,0.0,0.0,0.0,0.0,0.0,0.0,0.0,0.0,0.0,0.0,-2.2723,-2.4127,-2.6724,-2.7297,-2.7372,-2.706,-2.6661,-2.5122,-2.21,-2.0155,0.0,0.0,0.0,0.0,0.0,0.0,0.0,0.0,0.0,0.0,0.0,0.0,0.0,0.0,0.0,0.0,0.0,0.0,0.0,0.0,0.0,0.0,0.0,0.0,0.0,0.0,0.0,0.0,0.0,0.0,0.0,0.0,0.0,0.0,0.0,0.0,0.0,0.0,0.0,0.0,0.0,0.0,0.0,0.0,0.0,0.0,0.0,0.0,0.0,0.0,0.0,0.0,0.0,0.0,0.0,0.0,0.0,0.0,0.0,0.0,0.0,0.0,0.0,0.0,0.0,0.0,0.0,0.0,0.0,0.0,0.0,0.0,0.0,0.0,0.0,0.0,0.0,0.0,0.0,0.0,0.0,0.0,0.0,0.0,0.0,0.0,0.0,0.0,0.0,0.0,0.0,0.0,0.0,0.0,0.0,0.0,0.0,0.0,0.0,0.0,0.0,0.0,-2.3163,-2.5254,-2.5948,-2.6041,-2.6052,-2.601,-2.446,-2.2895,-2.1441,-1.8754,0.0,0.0,0.0,0.0,0.0,0.0,0.0,0.0,0.0,0.0,0.0,0.0,0.0,0.0,0.0,0.0,0.0,0.0,0.0,0.0,0.0,0.0,0.0,0.0,0.0,0.0,0.0,0.0,0.0,0.0,0.0,0.0,0.0,0.0,0.0,0.0,0.0,0.0,0.0,0.0,0.0,0.0,0.0,0.0,0.0,0.0,0.0,0.0,0.0,0.0,0.0,0.0,0.0,0.0,0.0,0.0,0.0,0.0,0.0,0.0,0.0,0.0,0.0,0.0,0.0,0.0,0.0,0.0,0.0,0.0,0.0,0.0,0.0,0.0,0.0,0.0,0.0,0.0,0.0,0.0,0.0,0.0,0.0,0.0,0.0,0.0,0.0,0.0,0.0,0.0,0.0,0.0,0.0,0.0,0.0,0.0,0.0,0.0,0.0,0.0,0.0,0.0,-2.2696,-2.4033,-2.5337,-2.5471,-2.5471,-2.5471,-2.4592,-2.3078,-2.0898,0.0,0.0,0.0,0.0,0.0,0.0,0.0,0.0,0.0,0.0,0.0,0.0,0.0,0.0,0.0,0.0,0.0,0.0,0.0,0.0,0.0,0.0,0.0,0.0,0.0,0.0,0.0,0.0,0.0,0.0,0.0,0.0,0.0,0.0,0.0,0.0,0.0,0.0,0.0,0.0,0.0,0.0,0.0,0.0,0.0,0.0,0.0,0.0,0.0,0.0,0.0,0.0,0.0,0.0,0.0,0.0,0.0,0.0,0.0,0.0,0.0,0.0,0.0,0.0,0.0,0.0,0.0,0.0,0.0,0.0,0.0,0.0,0.0,0.0,0.0,0.0,0.0,0.0,0.0,0.0,0.0,0.0,0.0,0.0,0.0,0.0,0.0,0.0,0.0,0.0,0.0,0.0,0.0,0.0,0.0,0.0,0.0,0.0,0.0,0.0,0.0,0.0,-2.1424,-2.2501,-2.3681,0.0,-2.5055,-2.5034,-2.5179,-2.4228,-2.2637,-2.0358,0.0,0.0,0.0,0.0,0.0,0.0,0.0,0.0,0.0,0.0,0.0,0.0,0.0,0.0,0.0,0.0,0.0,0.0,0.0,0.0,0.0,0.0,0.0,0.0,0.0,0.0,0.0,0.0,0.0,0.0,0.0,0.0,0.0,0.0,0.0,0.0,0.0,0.0,0.0,0.0,0.0,0.0,0.0,0.0,0.0,0.0,0.0,0.0,0.0,0.0,0.0,0.0,0.0,0.0,0.0,0.0,0.0,0.0,0.0,0.0,0.0,0.0,0.0,0.0,0.0,0.0,0.0,0.0,0.0,0.0,0.0,0.0,0.0,0.0,0.0,0.0,0.0,0.0,0.0,0.0,0.0,0.0,0.0,0.0,0.0,0.0,0.0,0.0,0.0,0.0,0.0,0.0,0.0,0.0,0.0,0.0,0.0,0.0,0.0,0.0,0.0,0.0,-2.0413,-2.2792,-2.4673,-2.5127,-2.4776,-2.4683,-2.5137,-2.3132,-2.1228,0.0,0.0,0.0,0.0,0.0,0.0,0.0,0.0,0.0,0.0,0.0,0.0,0.0,0.0,0.0,0.0,0.0,0.0,0.0,0.0,0.0,0.0,0.0,0.0,0.0,0.0,0.0,0.0,0.0,0.0,0.0,0.0,0.0,0.0,0.0,0.0,0.0,0.0,0.0,0.0,0.0,0.0,0.0,0.0,0.0,0.0,0.0,0.0,0.0,0.0,0.0,0.0,0.0,0.0,0.0,0.0,0.0,0.0,0.0,0.0,0.0,0.0,0.0,0.0,0.0,0.0,0.0,0.0,0.0,0.0,0.0,0.0,0.0,0.0,0.0,0.0,0.0,0.0,0.0,0.0,0.0,0.0,0.0,0.0,0.0,0.0,0.0,0.0,0.0,0.0,0.0,0.0,0.0,0.0,0.0,0.0,0.0,0.0,0.0,0.0,0.0,0.0,0.0,-2.093,-2.3071,-2.4549,-2.4683,-2.458,-2.4559,-2.4693,-2.3536,-2.1911,-1.9927,0.0,0.0,0.0,0.0,0.0,0.0,0.0,0.0,0.0,0.0,0.0,0.0,0.0,0.0,0.0,0.0,0.0,0.0,0.0,0.0,0.0,0.0,0.0,0.0,0.0,0.0,0.0,0.0,0.0,0.0,0.0,0.0,0.0,0.0,0.0,0.0,0.0,0.0,0.0,0.0,0.0,0.0,0.0,0.0,0.0,0.0,0.0,0.0,0.0,0.0,0.0,0.0,0.0,0.0,0.0,0.0,0.0,0.0,0.0,0.0,0.0,0.0,0.0,0.0,0.0,0.0,0.0,0.0,0.0,0.0,0.0,0.0,0.0,0.0,0.0,0.0,0.0,0.0,0.0,0.0,0.0,0.0,0.0,0.0,0.0,0.0,0.0,0.0,0.0,0.0,0.0,0.0,0.0,0.0,0.0,0.0,0.0,0.0,0.0,0.0,0.0,0.0,-2.0825,-2.3031,-2.4497,-2.4497,-2.4497,-2.4497,-2.4497,-2.3877,-2.248,-2.0207,0.0,0.0,0.0,0.0,0.0,0.0,0.0,0.0,0.0,0.0,0.0,0.0,0.0,0.0,0.0,0.0,0.0,0.0,0.0,0.0,0.0,0.0,0.0,0.0,0.0,0.0,0.0,0.0,0.0,0.0,0.0,0.0,0.0,0.0,0.0,0.0,0.0,0.0,0.0,0.0,0.0,0.0,0.0,0.0,0.0,0.0,0.0,0.0,0.0,0.0,0.0,0.0,0.0,0.0,0.0,0.0,0.0,0.0,0.0,0.0,0.0,0.0,0.0,0.0,0.0,0.0,0.0,0.0,0.0,0.0,0.0,0.0,0.0,0.0,0.0,0.0,0.0,0.0,0.0,0.0,0.0,0.0,0.0,0.0,0.0,0.0,0.0,0.0,0.0,0.0,0.0,0.0,0.0,0.0,0.0,0.0,0.0,0.0,0.0,0.0,0.0,0.0,-2.0342,-2.2792,-2.4497,-2.4497,-2.4497,-2.4497,-2.4497,-2.4136,-2.2915,-2.0591,0.0,0.0,0.0,0.0,0.0,0.0,0.0,0.0,0.0,0.0,0.0,0.0,0.0,0.0,0.0,0.0,0.0,0.0,0.0,0.0,0.0,0.0,0.0,0.0,0.0,0.0,0.0,0.0,0.0,0.0,0.0,0.0,0.0,0.0,0.0,0.0,0.0,0.0,0.0,0.0,0.0,0.0,0.0,0.0,0.0,0.0,0.0,0.0,0.0,0.0,0.0,0.0,0.0,0.0,0.0,0.0,0.0,0.0,0.0,0.0,-2.2139,0.0,0.0,0.0,0.0,0.0,0.0,0.0,0.0,0.0,0.0,0.0,0.0,0.0,0.0,0.0,0.0,0.0,0.0,0.0,0.0,0.0,0.0,0.0,0.0,0.0,0.0,0.0,0.0,0.0,0.0,0.0,0.0,0.0,0.0,0.0,0.0,0.0,0.0,0.0,0.0,0.0,-2.0307,-2.2792,-2.4497,-2.4497,-2.4497,-2.4497,-2.4497,-2.4136,-2.3049,-2.1093,-2.0052,0.0,0.0,0.0,0.0,0.0,0.0,0.0,0.0,0.0,0.0,0.0,0.0,0.0,0.0,0.0,0.0,0.0,0.0,0.0,0.0,0.0,0.0,0.0,0.0,0.0,0.0,0.0,0.0,0.0,0.0,0.0,0.0,0.0,0.0,0.0,0.0,0.0,0.0,0.0,0.0,0.0,0.0,0.0,0.0,0.0,0.0,0.0,0.0,0.0,0.0,0.0,0.0,0.0,0.0,0.0,0.0,0.0,0.0,0.0,0.0,-2.3537,0.0,0.0,0.0,0.0,0.0,0.0,0.0,0.0,0.0,0.0,0.0,0.0,0.0,0.0,0.0,0.0,0.0,0.0,0.0,0.0,0.0,0.0,0.0,0.0,0.0,0.0,0.0,0.0,0.0,0.0,0.0,0.0,0.0,0.0,0.0,0.0,0.0,0.0,0.0,0.0,-2.0938,-2.3267,-2.4828,-2.4828,-2.4828,-2.4745,-2.4518,-2.4333,-2.3598,-2.2201,-2.1041,0.0,0.0,0.0,0.0,0.0,0.0,0.0,0.0,0.0,0.0,0.0,0.0,0.0,0.0,0.0,0.0,0.0,0.0,0.0,0.0,0.0,0.0,0.0,0.0,0.0,0.0,0.0,0.0,0.0,0.0,0.0,0.0,0.0,0.0,0.0,0.0,0.0,0.0,0.0,0.0,0.0,0.0,0.0,0.0,0.0,0.0,0.0,0.0,0.0,0.0,0.0,0.0,0.0,-2.8344,-2.9001,-2.9823,-2.9609,-2.9307,-2.8851,-2.6688,-2.5489,-2.5003,0.0,0.0,0.0,0.0,0.0,0.0,0.0,0.0,0.0,0.0,0.0,0.0,0.0,0.0,0.0,0.0,0.0,0.0,0.0,0.0,0.0,0.0,0.0,0.0,0.0,-2.401,-2.4285,0.0,0.0,0.0,0.0,0.0,0.0,0.0,0.0,0.0,0.0,0.0,0.0,-2.1859,-2.3867,-2.5189,-2.5189,-2.5189,-2.5003,-2.4538,-2.4497,-2.4146,-2.336,-2.2159,-2.1062,0.0,0.0,0.0,0.0,0.0,0.0,0.0,0.0,0.0,0.0,0.0,0.0,0.0,0.0,0.0,0.0,0.0,0.0,0.0,0.0,0.0,0.0,0.0,0.0,0.0,0.0,0.0,0.0,0.0,0.0,0.0,0.0,-1.8494,-1.8661,0.0,0.0,0.0,0.0,0.0,0.0,0.0,0.0,0.0,0.0,0.0,0.0,0.0,-2.825,-2.9449,-2.9796,-3.0011,-3.0171,-3.0621,-3.0822,-3.0722,-3.0704,-3.0831,-3.1116,-3.0084,0.0,-2.6003,-2.5944,0.0,0.0,0.0,0.0,0.0,0.0,0.0,0.0,0.0,0.0,0.0,0.0,0.0,0.0,0.0,0.0,0.0,0.0,0.0,0.0,0.0,0.0,-2.5357,-2.542,-2.5612,-2.5615,0.0,-2.3094,-2.0986,-2.0216,-1.9112,0.0,0.0,0.0,0.0,0.0,0.0,0.0,-2.277,-2.4312,-2.5189,-2.5189,-2.5189,-2.5003,-2.4538,-2.4497,-2.428,-2.3826,-2.3236,-2.2501,-2.158,-2.0145,0.0,0.0,0.0,0.0,0.0,0.0,0.0,0.0,0.0,0.0,0.0,0.0,0.0,0.0,0.0,0.0,0.0,0.0,0.0,0.0,0.0,0.0,0.0,0.0,0.0,0.0,0.0,0.0,0.0,-1.9407,-2.0416,-2.0517,-2.1278,-2.1399,0.0,0.0,0.0,0.0,0.0,0.0,0.0,0.0,0.0,-2.7736,-2.9127,-3.0102,-3.0642,-3.099,-3.1295,-3.1595,-3.1801,-3.1984,-3.2121,-3.1983,-3.2027,-3.2175,-3.1869,-3.0753,-2.9176,-2.8075,-2.6988,-2.6129,0.0,0.0,0.0,0.0,-2.5683,-2.5294,-2.5844,-2.5797,0.0,0.0,0.0,0.0,0.0,0.0,0.0,0.0,0.0,0.0,0.0,0.0,0.0,-2.6972,-2.7231,-2.7417,-2.7417,-2.5975,-2.422,0.0,-2.1673,-2.0524,-1.8785,0.0,0.0,0.0,0.0,-2.2459,-2.3774,-2.514,-2.5989,-2.5989,-2.5751,-2.5409,-2.4921,-2.4652,-2.4414,-2.426,-2.3826,-2.3391,-2.2987,-2.1642,-2.0265,0.0,0.0,0.0,0.0,0.0,0.0,0.0,0.0,0.0,0.0,0.0,0.0,0.0,0.0,0.0,0.0,0.0,0.0,0.0,0.0,0.0,0.0,0.0,0.0,0.0,0.0,0.0,0.0,-2.1131,-2.2084,-2.2324,-2.3174,-2.314,0.0,0.0,0.0,0.0,0.0,0.0,-2.664,-2.832,-2.9341,-2.9493,-3.0871,-3.1617,-3.1629,-3.2001,-3.2427,-3.2929,-3.2929,-3.3115,-3.3442,-3.3226,-3.3182,-3.3182,-3.3074,-3.2696,-3.1913,-3.0048,-2.8849,-2.8247,-2.8055,-2.7798,-2.7661,-2.8054,-2.774,-2.7248,-2.8067,-2.7966,-2.7303,-2.6527,0.0,-2.4956,-2.3689,0.0,0.0,0.0,0.0,-2.5592,-2.6651,-2.7262,-2.7686,-2.8017,-2.8359,-2.8618,-2.8618,-2.8079,-2.7081,0.0,-2.4188,-2.3018,-2.0845,0.0,0.0,0.0,0.0,-2.3908,-2.4933,-2.5937,-2.6615,-2.6615,-2.62,-2.5699,-2.523,-2.4766,-2.4497,-2.4497,-2.4229,-2.4043,-2.4043,-2.2946,-2.1683,-2.0352,0.0,0.0,0.0,0.0,0.0,0.0,0.0,0.0,0.0,0.0,0.0,0.0,0.0,0.0,0.0,0.0,0.0,0.0,0.0,0.0,0.0,0.0,0.0,0.0,0.0,0.0,0.0,0.0,0.0,-2.3573,-2.431,0.0,0.0,0.0,0.0,-2.6508,-2.7685,-2.8791,-2.9625,-3.0385,-3.1019,-3.1465,-3.2052,-3.2774,-3.3639,-3.3672,-3.3934,-3.4414,-3.4414,-3.4436,-3.4447,-3.4391,-3.4391,-3.4402,-3.4123,-3.3752,-3.3192,-3.1464,-3.0464,-2.9992,-3.0057,-2.9716,-2.926,-2.9834,-2.9564,-2.8869,-2.8655,-2.8276,-2.8028,-2.8835,-2.8204,-2.7154,-2.7076,-2.6397,0.0,0.0,-2.7112,-2.7769,-2.7841,-2.8204,-2.8556,-2.8576,-2.8597,-2.8618,-2.8618,-2.8576,-2.8255,0.0,-2.603,-2.49,-2.4321,0.0,-2.3836,-2.4166,-2.4342,-2.491,-2.6299,-2.6573,-2.6615,-2.6615,-2.62,-2.5699,-2.523,-2.4766,-2.4497,-2.4497,-2.4476,-2.4466,-2.4466,-2.4033,-2.3122,-2.1735,-1.9903,0.0,0.0,0.0,0.0,0.0,0.0,0.0,0.0,0.0,0.0,0.0,0.0,0.0,0.0,0.0,0.0,0.0,0.0,0.0,0.0,0.0,0.0,0.0,0.0,0.0,0.0,0.0,0.0,-2.5694,-2.6447,0.0,-2.5443,-2.668,-2.7602,-2.7715,-2.8703,-2.9691,-3.0615,-3.1331,-3.2039,-3.2674,-3.3236,-3.3769,-3.4261,-3.4261,-3.4349,-3.4524,-3.4524,-3.4524,-3.4524,-3.4524,-3.4524,-3.4468,-3.4199,-3.3989,-3.3795,-3.2948,-3.207,-3.119,-3.1211,-3.1,-3.0663,-3.0895,-3.08,-3.0504,-3.0451,-3.0284,-3.0098,-2.9839,-2.9218,-2.8524,-2.8224,-2.7903,-2.7738,-2.8204,-2.8566,-2.8887,-2.9177,-2.9384,-2.9508,-2.9508,-2.9508,-2.9508,-2.9508,-2.927,-2.8959,-2.8638,-2.7479,-2.6299,-2.5533,-2.5264,-2.5026,-2.4559,-2.5285,-2.602,-2.6553,-2.6874,-2.7061,-2.7061,-2.6376,-2.5813,-2.5658,-2.4921,-2.4497,-2.4497,-2.4271,-2.4115,-2.4115,-2.3681,-2.2915,-2.1828,-2.0576,-1.9054,0.0,0.0,0.0,0.0,0.0,0.0,0.0,0.0,0.0,0.0,0.0,0.0,0.0,0.0,0.0,0.0,0.0,0.0,0.0,0.0,0.0,0.0,0.0,0.0,0.0,0.0,-2.6212,-2.7567,-2.815,-2.8145,-2.7372,-2.8567,-2.9334,-2.9176,-3.0077,-3.0979,-3.1794,-3.2379,-3.2992,-3.369,-3.397,-3.4199,-3.4356,-3.4468,-3.4412,-3.4188,-3.4412,-3.4468,-3.4367,-3.4468,-3.4468,-3.4367,-3.4199,-3.403,-3.3918,-3.3579,-3.2983,-3.2259,-3.2259,-3.2103,-3.1836,-3.1836,-3.1733,-3.1578,-3.1433,-3.1381,-3.1278,-3.0657,-3.0253,-2.9922,-2.9456,-2.9311,-2.9342,-2.9497,-2.9539,-2.9611,-2.9911,-2.9994,-2.9994,-2.9994,-2.9994,-2.9994,-2.9994,-2.9756,-2.9539,-2.9539,-2.8556,-2.7521,-2.691,-2.6672,-2.6372,-2.5726,-2.632,-2.6853,-2.6853,-2.7123,-2.7309,-2.7309,-2.6615,-2.6096,-2.5885,-2.5202,-2.4662,-2.4507,-2.426,-2.4033,-2.3929,-2.3432,-2.2822,-2.2056,-2.0979,-1.9724,-1.8348,0.0,0.0,0.0,0.0,0.0,0.0,0.0,0.0,0.0,0.0,0.0,0.0,0.0,0.0,0.0,0.0,0.0,0.0,0.0,0.0,0.0,0.0,0.0,-2.56,-2.661,-2.7741,-2.905,-2.9306,-2.9238,-2.8992,-3.0037,-3.0879,-3.1136,-3.1997,-3.2723,-3.3254,-3.3482,-3.3851,-3.4468,-3.4209,-3.4119,-3.4108,-3.4399,-3.4231,-3.3668,-3.4231,-3.4399,-3.4119,-3.4378,-3.4378,-3.4086,-3.4086,-3.3918,-3.3568,-3.3306,-3.3193,-3.3193,-3.3193,-3.2965,-3.2669,-3.2669,-3.239,-3.1946,-3.1567,-3.1422,-3.1412,-3.1402,-3.1391,-3.1309,-3.0853,-3.0708,-3.0615,-3.016,-3.0036,-3.0036,-3.0036,-3.0025,-3.0015,-3.0015,-3.0005,-2.9994,-2.9994,-2.9994,-2.9994,-2.9994,-2.927,-2.8649,-2.8638,-2.8245,-2.7945,-2.7945,-2.7572,0.0,-2.733,-2.732,-2.7309,-2.7309,-2.6895,-2.6438,-2.5937,-2.5492,-2.5003,-2.4549,-2.4497,-2.4333,-2.394,-2.3432,-2.2977,-2.2532,-2.1166,-2.0174,-1.9651,0.0,0.0,0.0,0.0,0.0,0.0,0.0,0.0,0.0,0.0,0.0,0.0,0.0,0.0,0.0,0.0,0.0,0.0,0.0,0.0,0.0,-2.5362,-2.6442,-2.6731,-2.7907,-2.8974,-2.9703,-3.0423,-3.0814,-3.0732,-3.1475,-3.1947,-3.1771,-3.2546,-3.305,-3.3219,-3.3063,-3.3353,-3.4199,-3.4022,-3.4146,-3.4615,-3.5053,-3.5031,-3.4625,-3.5273,-3.5214,-3.4615,-3.4867,-3.4784,-3.4356,-3.4199,-3.403,-3.3918,-3.3636,-3.3353,-3.3193,-3.2908,-3.2784,-3.2669,-3.2669,-3.2597,-3.2463,-3.2406,-3.2364,-3.2302,-3.1971,-3.1857,-3.1774,-3.1329,-3.1184,-3.1164,-3.1029,-3.0998,-3.0998,-3.0998,-3.075,-3.0501,-3.0501,-3.0243,-2.9994,-2.9994,-2.9994,-2.9994,-2.9994,-2.9787,-2.9508,-2.9177,-2.8731,-2.8421,-2.8421,-2.8028,0.0,-2.7738,-2.7458,-2.7309,-2.7309,-2.6895,-2.6563,-2.6438,-2.5678,-2.5127,-2.5003,-2.4426,-2.4002,-2.3888,-2.3432,-2.3122,-2.2998,-2.1963,-2.116,0.0,0.0,0.0,0.0,0.0,0.0,0.0,0.0,0.0,0.0,0.0,0.0,0.0,0.0,0.0,0.0,0.0,0.0,0.0,0.0,0.0,0.0,-2.6933,-2.8173,-2.8375,-2.9092,-2.9839,-3.0501,-3.1215,-3.1733,-3.193,-3.2346,-3.2502,-3.2333,-3.2752,-3.3152,-3.3445,-3.3168,-3.3492,-3.4668,-3.4291,-3.4323,-3.4857,-3.5289,-3.5184,-3.4654,-3.5546,-3.5591,-3.4915,-3.5356,-3.5204,0.0,-3.4668,-3.4514,-3.4161,-3.3855,-3.3578,0.0,0.0,0.0,0.0,0.0,-3.2669,-3.2669,-3.2669,-3.2669,-3.2685,-3.2359,-3.2277,-3.2184,-3.1785,-3.165,-3.1619,-3.1433,-3.1381,-3.1381,-3.1381,-3.1174,-3.0977,-3.0977,-3.0626,-3.0284,-3.0284,-3.0129,-2.9994,-2.9994,-2.9994,0.0,-2.9642,-2.9208,-2.8897,-2.8897,-2.8504,-2.8142,-2.7945,-2.7696,-2.7469,-2.733,-2.7071,-2.6832,-2.6635,-2.6092,0.0,0.0,0.0,-2.4188,-2.3619,-2.3329,0.0,0.0,0.0,0.0,0.0,0.0,0.0,0.0,-2.1169,-2.0837,0.0,0.0,0.0,0.0,0.0,0.0,0.0,0.0,0.0,0.0,0.0,0.0,0.0,0.0,0.0,0.0,-2.8407,-2.9714,-3.0077,-3.0296,-3.0682,-3.135,-3.1847,-3.2225,-3.2638,-3.2727,-3.2737,-3.2669,-3.2778,-3.308,-3.3754,0.0,0.0,0.0,0.0,-3.4658,-3.5023,-3.5371,-3.5108,-3.4347,-3.5473,-3.5734,-3.5082,-3.5739,-3.5659,-3.5067,-3.536,-3.5076,-3.4412,-3.4112,-3.3827,-3.3529,-3.326,-3.2965,-3.2669,-3.2669,-3.2669,-3.2669,-3.2669,0.0,0.0,-3.2669,-3.2669,-3.2597,-3.2184,-3.206,-3.1977,-3.164,-3.1536,-3.1536,-3.1536,-3.1495,-3.1454,-3.1454,-3.1102,-3.076,-3.076,-3.0398,-3.0067,-3.0067,-3.0036,-2.9994,-2.9994,-2.9653,-2.9384,-2.9384,-2.899,-2.8545,-2.8131,-2.7989,-2.7831,-2.7423,0.0,0.0,-2.6739,-2.6646,-2.6227,-2.5385,-2.5292,-2.4757,-2.3546,-2.3484,-2.3484,-2.3484,-2.4281,-2.4848,-2.5261,-2.554,-2.5706,-2.5736,-2.2777,-2.2231,0.0,0.0,0.0,0.0,0.0,0.0,0.0,0.0,0.0,0.0,0.0,0.0,0.0,0.0,0.0,-3.0296,-3.1002,-3.1193,-3.115,-3.2263,-3.2769,-3.1999,-3.2266,-3.2576,-3.2669,-3.2955,-3.2965,-3.2737,-3.3241,-3.3654,-3.3796,-3.3907,0.0,-3.5056,-3.4844,-3.4852,-3.5152,-3.5581,-3.572,-3.5537,0.0,0.0,-3.5572,-3.6,-3.5854,-3.5429,-3.5488,-3.5434,-3.5231,-3.4635,-3.3999,-3.3387,-3.2986,-3.2737,-3.2669,-3.2669,-3.2669,-3.2669,-3.2669,-3.2669,-3.2669,-3.2669,-3.2669,-3.2659,-3.2566,-3.2545,0.0,-3.2489,-3.2468,-3.2468,-3.2468,-3.2188,-3.1853,-3.1853,-3.1567,-3.1247,-3.1247,-3.0884,-3.0553,-3.0553,-3.0253,-2.9994,-2.9994,-2.9922,-2.986,-2.986,-2.9466,-2.9135,-2.9052,-2.8711,-2.8297,-2.7841,-2.779,-2.7614,-2.7216,-2.6832,-2.6542,-2.632,-2.5958,-2.5637,-2.5368,-2.5357,-2.5357,-2.5357,-2.5533,-2.5658,-2.5751,-2.5799,-2.6222,-2.6925,-2.5167,-2.4661,0.0,0.0,0.0,0.0,0.0,0.0,0.0,0.0,0.0,0.0,0.0,-2.7664,-2.9495,0.0,-3.1122,-3.1596,-3.2281,-3.2522,-3.1795,-3.3121,-3.359,-3.2176,-3.239,-3.2669,-3.2669,-3.2851,-3.2991,-3.3037,-3.3381,-3.382,-3.4289,-3.4409,-3.4758,-3.5399,-3.5206,-3.527,-3.5575,-3.5806,-3.5798,-3.5675,-3.6361,-3.6356,-3.5818,-3.6314,-3.6305,-3.596,-3.614,-3.594,-3.5526,-3.4798,-3.4077,-3.3358,-3.3141,-3.2923,-3.2669,-3.2669,-3.2669,-3.2669,-3.2669,-3.2669,-3.2669,-3.2669,-3.2669,-3.2669,-3.2669,-3.2669,-3.2669,-3.2669,-3.2669,-3.2669,-3.2669,-3.2504,-3.2328,-3.2328,-3.2043,-3.1712,-3.1712,-3.135,-3.1029,-3.1029,-3.0657,-3.0336,-3.0336,-3.0149,-2.9994,-2.9994,-2.9798,-2.957,-2.9332,-2.9104,-2.8783,-2.8317,-2.8059,-2.7831,-2.7614,-2.7009,-2.6615,-2.6615,-2.6179,-2.5875,-2.5875,-2.5875,-2.5875,-2.5875,-2.6148,-2.6387,-2.6615,-2.6796,-2.7262,-2.7924,-2.7239,-2.6896,0.0,0.0,0.0,0.0,0.0,0.0,0.0,0.0,-2.664,-2.897,-3.0164,-3.1148,-3.2381,-3.3582,-3.4041,-3.2853,-3.3715,-3.3999,-3.264,-3.4007,-3.4382,-3.2378,-3.2669,-3.2944,-3.2727,-3.2669,-3.2913,-3.3348,-3.3461,-3.3935,-3.4774,-3.4838,-3.5178,-3.5777,-3.5552,-3.5541,-3.5798,-3.5798,-3.5675,-3.549,-3.6239,-3.6361,-3.5921,-3.6545,-3.6617,-3.63,-3.6678,-3.6331,-3.5565,-3.4911,-3.4265,-3.3637,-3.3544,-3.3244,-3.284,-3.27,-3.2669,-3.2669,-3.2669,-3.2669,-3.2669,-3.2669,-3.2669,-3.2669,-3.2669,-3.2669,-3.2669,-3.2669,-3.2669,-3.2669,-3.2669,-3.2669,-3.2669,-3.2669,-3.239,-3.2122,-3.2122,-3.1816,-3.1505,-3.1505,-3.1133,-3.0791,-3.0698,-3.0377,-3.0098,-3.0005,-2.9994,-2.986,-2.9487,-2.9435,-2.9259,-2.8794,-2.8411,-2.8121,-2.7935,-2.7251,-2.6796,-2.675,-2.6397,-2.6144,-2.6144,-2.6144,-2.6231,-2.6279,-2.6641,-2.7055,-2.7569,-2.7883,-2.8297,-2.8752,-2.8752,-2.8591,-2.123,-2.2058,-2.3439,-2.5519,-2.5682,-2.6386,0.0,0.0,-2.9557,-3.2068,-3.2451,-3.2906,-3.4753,-3.4889,-3.5123,-3.628,-3.6725,-3.6273,-3.4449,-3.612,-3.6294,-3.2985,-3.3628,-3.3875,-3.2784,-3.2669,-3.2913,-3.3348,-3.3762,-3.4277,-3.4795,-3.5128,-3.5366,-3.5479,-3.5418,-3.5418,-3.549,-3.549,-3.5613,-3.586,-3.5675,-3.5675,-3.5921,-3.63,-3.63,-3.5983,-3.63,-3.6085,-3.5437,-3.5213,-3.4943,-3.4619,-3.4204,-3.371,-3.3254,-3.2871,-3.2669,-3.2669,-3.2669,-3.2669,-3.2669,-3.2669,-3.2669,-3.2669,-3.2669,-3.2669,-3.2669,-3.2669,-3.2669,-3.2669,-3.2669,-3.2669,-3.2669,-3.2669,-3.2638,-3.2597,-3.2597,-3.2235,-3.1915,-3.1915,-3.1609,-3.1174,-3.076,-3.0646,-3.047,-3.0056,-2.9994,-2.9973,-2.9922,-2.9922,-2.9735,-2.928,-2.9177,-2.8814,-2.7997,-2.7831,-2.7603,-2.7258,-2.7185,-2.7154,-2.7154,-2.7154,-2.7293,-2.7686,-2.7748,-2.8007,-2.8462,-2.8514,-2.8773,-2.9228,-2.9228,-2.9085,-2.4908,-2.5674,-2.649,-2.8398,-2.9164,-2.993,-3.1788,-3.2057,-3.2364,-3.3734,-3.418,-3.4752,-3.62,-3.6598,-3.6775,0.0,-3.7421,-3.7157,-3.5683,-3.6858,-3.6752,-3.3711,-3.522,-3.5509,-3.2944,-3.2669,-3.3027,-3.3731,-3.3958,-3.4383,-3.5107,-3.5324,-3.5716,-3.6481,-3.6039,-3.6547,-3.8039,-3.6812,-3.6582,-3.7216,-3.6434,-3.5936,-3.5613,-3.5983,-3.6044,-3.5921,-3.6044,-3.5921,-3.5654,-3.5405,-3.5105,-3.4805,-3.4608,-3.402,-3.3358,-3.3172,-3.2944,-3.2669,-3.2669,-3.2669,-3.2669,-3.2669,-3.2669,-3.2669,-3.2669,-3.2669,-3.2669,-3.2669,-3.2669,-3.2669,-3.2669,-3.2669,-3.2669,-3.2669,-3.2669,-3.2669,-3.2669,-3.2525,-3.239,-3.239,-3.2075,-3.1702,-3.1505,-3.1257,-3.0936,-3.047,-3.016,-2.9994,-2.9994,-2.9994,-2.9818,-2.9352,-2.9301,-2.9042,-2.838,-2.8328,-2.8245,-2.8059,-2.8048,-2.8048,-2.8048,-2.8048,-2.8142,-2.8317,-2.8328,-2.8556,-2.9021,-2.9021,-2.9259,-2.9704,-2.9704,-2.9663,-2.7344,-2.8323,-2.9164,-3.067,-3.1876,-3.2754,-3.3013,-3.3759,-3.4512,-3.5064,-3.5491,-3.6069,-3.701,-3.7513,-3.7755,-3.7626,-3.791,-3.7834,-3.6823,-3.7275,-3.6938,-3.472,-3.6121,-3.6318,-3.3909,-3.3649,-3.3758,-3.4059,-3.4692,-3.5331,-3.5899,-3.6258,-3.6961,-3.8038,-3.7497,-3.7983,-3.9624,-3.8524,-3.8097,-3.836,-3.7949,-3.7466,-3.6937,-3.6635,-3.6347,-3.611,-3.6332,-3.6391,-3.6258,-3.6135,-3.5823,-3.5468,-3.5114,-3.4455,-3.3741,-3.3617,-3.3213,-3.2669,-3.2669,-3.2669,-3.2669,-3.2669,-3.2669,-3.2669,-3.2669,-3.2669,-3.2669,-3.2669,-3.2669,-3.2669,-3.2669,-3.2669,-3.2669,-3.2669,-3.2669,-3.2669,-3.2669,-3.2669,-3.2669,-3.2669,-3.2401,-3.2132,-3.2008,-3.1774,-3.1402,-3.0946,-3.0481,-3.0139,-3.0015,-2.9994,-2.987,-2.9528,-2.9497,-2.9301,-2.8845,-2.8804,-2.8752,-2.8618,-2.8618,-2.8618,-2.8618,-2.8618,-2.868,-2.8804,-2.8804,-2.9032,-2.9497,-2.9497,-2.9673,-2.9994,-2.9994,-3.0067,-2.7281,-2.8888,-3.0809,-3.1888,-3.3018,-3.4123,-3.5157,-3.542,-3.5608,-3.6194,-3.6367,-3.6556,-3.7073,-3.7199,-3.7575,-3.8693,-3.8881,-3.8649,-3.793,-3.7517,-3.7006,-3.6213,-3.5791,-3.5699,-3.6085,-3.6077,-3.5558,-3.4167,-3.6283,-3.7504,-3.7243,-3.8376,-3.9327,-3.9879,-3.9902,-3.9537,-3.8843,-4.0157,-4.0084,-3.8791,-4.0134,-4.0747,-4.0651,-3.8903,-3.7547,-3.6635,-3.7416,-3.755,-3.7309,-3.7621,-3.7539,-3.7106,-3.5869,-3.5117,-3.4723,-3.4277,-3.3492,-3.2669,-3.2669,-3.2669,-3.2669,-3.2669,-3.2669,-3.2669,-3.2669,-3.2669,-3.2669,-3.2669,-3.2669,-3.2669,-3.2669,-3.2669,-3.2669,-3.2669,-3.2669,-3.2669,-3.2669,-3.2669,-3.2669,-3.2669,-3.2659,-3.2514,-3.206,-3.1977,-3.1812,-3.1422,-3.0967,-3.0501,-3.0056,-2.9994,-2.9984,-2.9973,-2.9973,-2.9787,-2.9321,-2.929,-2.9094,-2.8649,-2.8618,-2.8618,-2.8618,-2.8618,-2.8825,-2.927,-2.929,-2.9508,-2.9973,-2.9973,-2.9984,-2.9994,-2.9994,-3.0232,-2.9515,-3.0821,-3.2026,-3.3508,-3.4392,-3.5132,-3.5918,-3.6094,-3.6031,-3.5855,-3.5529,-3.5441,-3.5947,-3.6047,-3.6584,-3.8052,-3.8617,-3.8955,-3.9067,-3.8993,-3.8381,-3.7078,-3.7734,0.0,-3.5917,-3.6044,0.0,-3.6493,-3.7247,-3.7977,-3.8509,-3.93,-4.0219,-4.1224,-4.1091,-4.1716,-4.3204,-4.223,-4.1858,-4.1976,-4.1248,-4.1002,-4.115,-3.995,-3.93,-3.9133,-3.7989,-3.7429,-3.7237,-3.6481,-3.6135,-3.6013,-3.5541,-3.5148,-3.4764,-3.4297,-3.3679,-3.312,-3.283,-3.2669,-3.2669,-3.2669,-3.2669,-3.2669,-3.2669,-3.2669,-3.2669,-3.2669,-3.2669,-3.2669,-3.2669,-3.2669,-3.2669,-3.2669,-3.2669,-3.2669,-3.2669,-3.2669,-3.2669,-3.2669,-3.2669,-3.2628,-3.2463,-3.2442,-3.2287,-3.1888,-3.1174,-3.0522,-3.0056,-2.9994,-2.9994,-2.9994,-2.9994,-2.9932,-2.9777,-2.9766,-2.9694,-2.9539,-2.9528,-2.9528,-2.9528,-2.9528,-2.9601,-2.9756,-2.9766,-2.9839,-2.9994,-2.9994,-2.9994,-3.0005,-3.0315,-3.0532,-3.1097,-3.224,-3.3169,-3.4605,-3.5429,-3.5881,-3.6031,-3.6069,-3.5855,-3.5115,-3.4675,-3.4474,-3.4625,-3.4618,-3.5265,-3.7136,-3.7739,-3.8429,-3.9534,-3.92,-3.8652,-3.8221,-3.8723,-3.865,-3.7392,-3.7738,0.0,-3.7711,-3.8721,-3.9569,-4.0141,-4.0928,-4.1945,-4.3179,-4.3048,-4.3614,-4.5078,-4.4144,-4.3959,-4.4524,-4.3421,-4.2671,-4.232,-4.1086,-4.0327,-3.9806,-3.8243,-3.7703,-3.7899,-3.6603,-3.6369,-3.6674,-3.5777,-3.5242,-3.4941,-3.4486,-3.402,-3.3534,-3.2934,-3.2669,-3.2669,-3.2669,-3.2669,-3.2669,-3.2669,-3.2669,-3.2669,-3.2669,-3.2669,-3.2669,-3.2669,-3.2669,-3.2669,-3.2669,-3.2669,-3.2669,-3.2669,-3.2669,-3.2669,-3.2669,-3.2669,-3.2669,-3.2669,-3.2669,-3.2514,-3.205,-3.1536,-3.0946,-3.0325,-3.0098,-2.9994,-2.9994,-2.9994,-2.9994,-2.9994,-2.9994,-2.9994,-2.9994,-2.9994,-2.9994,-2.9994,-2.9994,-2.9994,-2.9994,-2.9994,-2.9994,-2.9994,-2.9994,-3.0087,-3.0253,-3.0553,-3.0864,-3.2039,-3.3144,-3.4248,-3.527,-3.5956,-3.6182,-3.5583,-3.5433,-3.5094,-3.401,-3.3746,-3.3571,-3.3048,-3.3023,-3.3759,-3.5968,-3.6395,-3.726,-3.9383,-3.8411,-3.8029,0.0,0.0,0.0,-4.0395,-4.1053,0.0,-3.8086,0.0,-4.2202,-4.2009,-4.3198,-4.438,-4.546,-4.551,-4.5138,-4.4436,-4.5671,-4.6313,-4.6313,-4.6313,-4.5659,-4.4362,-4.2556,-4.0745,-3.9081,-3.8484,-3.8596,-3.9216,-3.7839,-3.8018,-3.8862,-3.6369,-3.5418,-3.5366,-3.4921,-3.4546,-3.3969,-3.3078,-3.269,-3.2669,-3.2669,-3.2669,-3.2669,-3.2669,-3.2669,-3.2669,-3.2669,-3.2669,-3.2669,-3.2669,-3.2669,-3.2669,-3.2669,-3.2669,-3.2669,-3.2669,-3.2669,-3.2669,-3.2669,-3.2669,-3.2669,-3.2669,-3.2669,-3.2525,-3.2081,-3.1998,-3.1667,-3.0833,-3.0336,-3.0056,-3.0036,-3.0036,-3.0025,-2.9994,-2.9994,-2.9994,-2.9994,-2.9994,-2.9994,-2.9994,-2.9994,-2.9994,-2.9994,-2.9994,-2.9994,-2.9994,-3.0015,-3.0253,-3.0688,-3.0739,-3.1215,-3.3671,-3.4555,-3.5245,-3.5981,-3.5956,-3.5558,-3.5006,-3.4568,-3.3884,-3.234,-3.1725,-3.1286,-3.0733,-3.1625,0.0,-3.4864,-3.6521,0.0,-3.9496,-3.9703,0.0,-4.0235,0.0,-4.0645,-4.1062,-4.163,0.0,0.0,-4.217,-4.295,-4.3283,-4.4419,-4.5196,-4.5485,-4.5886,-4.5982,-4.5793,-4.612,-4.6313,-4.6313,-4.6313,-4.624,-4.6143,-4.4969,-4.4103,-4.3421,-4.1674,-4.081,-4.0454,-3.8186,-3.7478,-3.7599,-3.6013,-3.5418,-3.5366,-3.4921,-3.4743,-3.4515,-3.3534,-3.3006,-3.2669,-3.2669,-3.2669,-3.2669,-3.2669,-3.2669,-3.2669,-3.2669,-3.2669,-3.2669,-3.2669,-3.2669,-3.2669,-3.2669,-3.2669,-3.2669,-3.2669,-3.2669,-3.2669,-3.2669,-3.2669,-3.2669,-3.2669,-3.2669,-3.2638,-3.2514,-3.2204,-3.1781,-3.1278,-3.1102,-3.0895,-3.0553,-3.0512,-3.0367,-3.0025,-2.9994,-2.9994,-2.9994,-2.9994,-2.9994,-2.9994,-2.9994,-2.9994,-2.9994,-2.9994,-2.9994,-2.9994,-3.0336,-3.0574,-3.0708,-3.1381,-3.176,-3.4718,-3.5433,-3.5981,-3.6329,-3.5956,-3.5232,-3.4236,-3.3614,-3.2638,-3.0394,-2.9982,-2.9668,-2.8561,-2.988,-3.17,0.0,0.0,0.0,-3.9107,-4.0011,-4.0513,0.0,-4.1216,0.0,-4.1693,-4.2195,-4.2678,0.0,-4.3162,-4.3576,-4.4129,-4.5008,-4.5598,-4.5836,-4.615,-4.6313,-4.6313,-4.6313,-4.6313,-4.6313,-4.6313,-4.6373,-4.6541,-4.547,-4.4784,-4.4345,0.0,-4.1082,-4.0423,-3.8216,-3.7298,-3.7177,-3.589,-3.5418,-3.5387,-3.5148,-3.4931,-3.4743,-3.4225,-3.3555,-3.2985,-3.2799,-3.2669,-3.2669,-3.2669,-3.2669,-3.2669,-3.2669,-3.2669,-3.2669,-3.2669,-3.2669,-3.2669,-3.2669,-3.2669,-3.2669,-3.2669,-3.2669,-3.2669,-3.2669,-3.2669,-3.2669,-3.2669,-3.2669,-3.2669,-3.2669,-3.2452,-3.225,-3.2002,-3.1629,-3.1278,-3.1019,-3.0801,-3.0667,-3.0605,-3.0419,-3.0294,-3.0294,-3.0491,-3.0419,-3.0015,-3.0387,-3.0501,-3.0305,-3.0501,-3.0605,-3.0605,-3.0864,-3.1091,-3.1298,-3.174,-3.2091,-3.5458,-3.5994,-3.6405,-3.6405,-3.5843,-3.4868,-3.3319,-3.2491,-3.1261,-2.8497,-2.838,-2.8288,-2.6719,-2.8209,-3.0231,-3.1938,0.0,-3.6408,-3.8567,-3.9885,-4.0626,-4.0626,-4.1593,-4.2313,-4.2313,-4.2753,-4.3212,-4.3765,-4.3865,-4.4154,-4.4706,-4.5284,-4.5811,-4.6301,-4.6313,-4.6313,-4.6313,-4.6313,-4.6313,-4.6313,-4.6313,-4.6313,-4.6253,-4.5086,-4.4256,-4.3663,0.0,0.0,-4.0254,-3.8316,-3.7539,-3.7418,-3.5951,-3.5418,-3.5418,-3.5418,-3.518,-3.4899,-3.4837,-3.4256,-3.3399,-3.2954,-3.2778,-3.2669,-3.2669,-3.2669,-3.2669,-3.2669,-3.2669,-3.2669,-3.2669,-3.2669,-3.2669,-3.2669,-3.2669,-3.2669,-3.2669,-3.2669,-3.2669,-3.2669,-3.2669,-3.2669,-3.2669,-3.2669,-3.2669,-3.2669,-3.2669,-3.2669,-3.2669,-3.2043,-3.1536,-3.1474,-3.1102,-3.1008,-3.135,-3.1008,-3.0781,-3.0781,-3.1153,-3.1019,-3.0212,-3.0946,-3.1184,-3.0791,-3.1174,-3.1381,-3.1381,-3.1433,-3.1661,-3.1988,-3.205,-3.2287,-3.6069,-3.6329,-3.6405,-3.6405,-3.5265,-3.3872,-3.2641,-3.1017,0.0,-2.7328,-2.6679,-2.6371,-2.6059,-2.7689,-2.9767,-3.1876,-3.45,-3.6872,-3.868,-4.0212,-4.115,0.0,-4.217,-4.2836,-4.2836,-4.2924,0.0,0.0,0.0,-4.4731,-4.5309,-4.5861,-4.6213,-4.6313,-4.6313,-4.6313,-4.6313,-4.6313,-4.6313,-4.6313,-4.6313,-4.6313,-4.6313,-4.6059,-4.5366,-4.4406,-4.406,0.0,-4.2285,-3.9896,-3.8862,-3.8625,-3.6308,-3.5418,-3.5418,-3.5418,-3.5376,-3.5252,-3.4951,-3.4463,-3.3875,-3.341,-3.3027,-3.2669,-3.2669,-3.2669,-3.2669,-3.2669,-3.2669,-3.2669,-3.2669,-3.2669,-3.2669,-3.2669,-3.2669,-3.2669,-3.2669,-3.2669,-3.2669,-3.2669,-3.2669,-3.2669,-3.2669,-3.2669,-3.2669,-3.2669,-3.2669,-3.2669,-3.2669,-3.2592,-3.2344,-3.1961,-3.1791,-3.1692,-3.1402,-3.1309,-3.1257,-3.1257,-3.1329,-3.1309,-3.1143,-3.1288,-3.134,-3.1257,-3.134,-3.1381,-3.1381,-3.1743,-3.1905,-3.1988,-3.238,-3.2473,-3.6267,-3.6405,-3.6329,-3.6006,-3.4914,-3.3382,-3.1399,0.0,0.0,-2.5802,-2.5445,-2.5332,-2.4589,-2.6411,0.0,-2.9854,-3.2403,-3.5014,-3.7297,-3.8994,-4.0375,-4.1188,-4.2308,-4.2974,-4.2974,-4.2974,-4.3325,0.0,0.0,-4.4869,-4.546,-4.6012,-4.6313,-4.6313,-4.6313,-4.6313,-4.6313,-4.6313,-4.6313,-4.6313,-4.6313,-4.6313,-4.6301,-4.6012,-4.5585,-4.5045,-4.4455,0.0,-4.2258,-4.0095,-3.8803,-3.8018,-3.6135,-3.5418,-3.5418,-3.5418,-3.5418,-3.5387,-3.518,-3.4652,-3.409,-3.3813,-3.3285,-3.2669,-3.2669,-3.2669,-3.2669,-3.2669,-3.2669,-3.2669,-3.2669,-3.2669,-3.2669,-3.2669,-3.2669,-3.2669,-3.2669,-3.2669,-3.2669,-3.2669,-3.2669,-3.2669,-3.2669,-3.2669,-3.2669,-3.2669,-3.2669,-3.2669,-3.2669,-3.2669,-3.2587,-3.237,-3.2132,-3.1998,-3.2075,-3.1857,-3.1723,-3.1723,-3.195,-3.1868,-3.1391,-3.1836,-3.1971,-3.1723,-3.1961,-3.2085,-3.2085,-3.2292,-3.2339,-3.2349,-3.2576,-3.2612,-3.6044,-3.6317,-3.6279,-3.5633,-3.4625,-3.3031,-3.0434,-2.9124,0.0,-2.4703,-2.4633,-2.479,-2.3719,-2.5393,-2.7256,0.0,-3.047,-3.3043,-3.6003,-3.785,-3.9484,0.0,-4.2308,0.0,-4.2974,-4.2974,0.0,0.0,0.0,0.0,-4.5623,-4.6075,-4.6313,-4.6313,-4.6313,-4.6313,-4.6313,-4.6313,-4.6313,-4.6313,-4.6188,-4.6137,-4.6112,-4.556,-4.5234,-4.5083,-4.4192,0.0,0.0,-4.0329,-3.8851,-3.7599,-3.6308,-3.5654,-3.5418,-3.5418,-3.5418,-3.5407,-3.5314,-3.4745,-3.4111,-3.3958,-3.3379,-3.2669,-3.2669,-3.2669,-3.2669,-3.2669,-3.2669,-3.2669,-3.2669,-3.2669,-3.2669,-3.2669,-3.2669,-3.2669,-3.2669,-3.2669,-3.2669,-3.2669,-3.2669,-3.2669,-3.2669,-3.2669,-3.2669,-3.2669,-3.2669,-3.2669,-3.2669,-3.2669,-3.2669,-3.2669,-3.2349,-3.2277,-3.2638,-3.2339,-3.2132,-3.2132,-3.2473,-3.2406,-3.1702,-3.2354,-3.2504,-3.2142,-3.2483,-3.2669,-3.2669,-3.2669,-3.2669,-3.2669,-3.2669,-3.2669,-3.542,-3.5981,-3.6279,-3.5633,-3.4336,-3.2596,-3.0451,0.0,-2.7212,-2.4854,-2.4469,-2.4622,-2.4798,-2.5333,-2.6603,-2.9214,0.0,-3.2616,-3.5952,-3.785,-3.9484,-4.1087,0.0,0.0,-4.2974,0.0,0.0,0.0,0.0,0.0,-4.6175,-4.6288,-4.6313,-4.6313,-4.6313,-4.6313,-4.6313,-4.6313,-4.6313,-4.6301,-4.5799,-4.556,-4.5547,-4.497,-4.443,-4.3953,-4.384,0.0,0.0,-4.1468,-4.0152,-3.8921,-3.761,-3.642,-3.5418,-3.5418,-3.5418,-3.5366,-3.4962,-3.4546,-3.4059,-3.3575,-3.312,-3.2669,-3.2669,-3.2669,-3.2669,-3.2669,-3.2669,-3.2669,-3.2669,-3.2669,-3.2669,-3.2669,-3.2669,-3.2669,-3.2669,-3.2669,-3.2669,-3.2669,-3.2669,-3.2669,-3.2669,-3.2669,-3.2669,-3.2669,-3.2669,-3.2669,-3.2669,-3.2669,-3.2669,-3.2669,-3.2638,-3.2628,-3.2727,-3.2638,-3.2607,-3.2607,-3.2706,-3.2638,-3.2602,-3.2685,-3.2659,-3.2607,-3.2659,-3.2669,-3.2669,-3.2669,-3.2669,-3.2669,-3.2669,-3.2555,-3.5014,-3.5865,-3.6332,-3.5265,-3.4388,-3.2929,-2.972,-2.8467,-2.7216,-2.4469,-2.3931,-2.4067,-2.4443,-2.4854,-2.5824,-2.7946,0.0,0.0,-3.3445,-3.5027,-3.6872,-3.9534,-4.0827,0.0,0.0,0.0,0.0,0.0,0.0,0.0,-4.5271,-4.5296,-4.5447,-4.5811,-4.5811,-4.5811,-4.5811,-4.5811,-4.5648,-4.5284,-4.507,-4.497,-4.4945,-4.438,-4.4003,-4.3777,-4.3451,0.0,0.0,-4.1627,-4.0338,-3.9039,-3.7779,-3.6531,-3.5418,-3.5418,-3.5418,-3.5397,-3.5221,-3.4683,-3.41,-3.3855,-3.3306,-3.2669,-3.2669,-3.2669,-3.2669,-3.2669,-3.2669,-3.2669,-3.2669,-3.3218,-3.3773,-3.3773,-3.3773,-3.3773,-3.3773,-3.3218,-3.2669,-3.2669,-3.2669,-3.2669,-3.2669,-3.2669,-3.2669,-3.2669,-3.2669,-3.2669,-3.2669,-3.2669,-3.2669,-3.2669,-3.2669,-3.2669,-3.2669,-3.2669,-3.2669,-3.2669,-3.2669,-3.2669,-3.2669,-3.2669,-3.2669,-3.2669,-3.2669,-3.2669,-3.2669,-3.2669,-3.2669,-3.2669,-3.2669,-3.2555,-3.4172,-3.5173,-3.562,-3.4507,-3.3941,-3.271,-2.8997,-2.8126,-2.7291,-2.4423,-2.4043,-2.4264,-2.4545,-2.4879,-2.5615,-2.7077,0.0,-2.9063,-3.1825,-3.3332,-3.5265,0.0,0.0,0.0,0.0,0.0,0.0,0.0,0.0,0.0,0.0,-4.4141,-4.448,-4.5208,-4.5234,-4.5234,-4.5234,-4.5234,-4.5033,-4.4618,-4.4455,-4.438,-4.4367,-4.3815,-4.3551,-4.3539,0.0,0.0,0.0,-4.2037,-4.0916,-3.9686,-3.878,-3.7429,-3.5951,-3.5951,-3.5716,-3.5459,-3.5682,-3.5006,-3.416,-3.4368,-3.3638,-3.2669,-3.2669,-3.2669,-3.2669,-3.2669,-3.2944,-3.3332,-3.3649,-3.4357,-3.5013,-3.5013,-3.4747,-3.448,-3.448,-3.3547,-3.2669,-3.2669,-3.2669,-3.2669,-3.2669,-3.2669,-3.2669,-3.2669,-3.2669,-3.2669,-3.2669,-3.2669,-3.2669,-3.2669,-3.2669,-3.2669,-3.2669,-3.2669,-3.2669,-3.2669,-3.2669,-3.2669,-3.2669,-3.2669,-3.2669,-3.2669,-3.2669,-3.2669,-3.2669,-3.2669,-3.2669,-3.2669,-3.2669,-3.2487,-3.2815,-3.3669,-3.3796,-3.3232,-3.2794,-3.1671,-2.853,-2.7962,-2.7395,-2.4891,-2.5034,-2.5569,-2.5572,-2.5764,-2.619,-2.714,-2.7745,0.0,-3.1825,-3.3658,0.0,0.0,0.0,0.0,0.0,0.0,0.0,0.0,0.0,0.0,0.0,-4.2999,-4.3501,-4.4606,-4.4631,-4.4631,-4.4631,-4.4631,-4.4631,-4.4618,-4.4066,-4.3815,-4.379,-4.3237,-4.2986,0.0,0.0,0.0,0.0,-4.2974,-4.2219,-4.11,-4.11,-3.9498,-3.7298,-3.7298,-3.6481,-3.553,-3.6318,-3.5499,-3.4226,-3.501,-3.4101,-3.2669,-3.2669,-3.2669,-3.2669,-3.2669,-3.3547,-3.4747,-3.587,-3.6185,-3.6185,-3.6185,-3.5333,-3.448,-3.448,-3.3547,-3.2669,-3.2669,-3.2669,-3.2669,-3.2669,-3.2669,-3.2669,-3.2669,-3.2669,-3.2669,-3.2669,-3.2669,-3.2669,-3.2669,-3.2669,-3.2669,-3.2669,-3.2669,-3.2669,-3.2669,-3.2669,-3.2669,-3.2669,-3.2669,-3.2669,-3.2669,-3.2669,-3.2669,-3.2669,-3.2669,-3.2669,-3.2669,-3.2669,-3.2383,-3.0162,-3.1265,-3.1992,-3.0837,-3.0905,-3.0406,-2.746,-2.7188,-2.7043,-2.52,-2.4708,-2.4899,-2.5764,-2.5909,-2.6569,-2.8674,-2.939,0.0,0.0,0.0,0.0,0.0,0.0,0.0,0.0,0.0,0.0,0.0,0.0,0.0,0.0,-4.2974,-4.3313,-4.4041,-4.4066,-4.4066,-4.4066,-4.4066,-4.3878,-4.3489,-4.3325,-4.3237,-4.3237,-4.3062,0.0,0.0,0.0,0.0,0.0,-4.2974,-4.2263,-4.1031,-4.0164,-3.8792,-3.7177,-3.6298,-3.5777,-3.5459,-3.5671,-3.5526,-3.5306,-3.5562,-3.5397,-3.5113,-3.5113,-3.458,-3.4089,-3.4891,-3.5377,-3.5761,-3.6131,-3.6185,-3.6185,-3.6185,-3.5333,-3.448,-3.448,-3.3547,-3.2669,-3.2669,-3.2669,-3.2669,-3.2669,-3.2669,-3.3001,-3.3829,-3.3931,-3.4201,-3.5002,-3.5113,-3.5113,-3.5113,-3.5113,-3.4458,-3.2841,-3.2669,-3.3058,-3.3875,-3.3931,-3.3931,-3.3931,-3.3931,-3.3547,-3.2737,-3.2669,-3.2669,-3.2669,-3.2669,-3.2669,-3.268,-3.2258,-3.1971,-2.842,-2.9333,-2.9904,-2.9014,-2.9237,-2.8983,-2.649,-2.633,-2.6356,-2.5039,-2.4733,-2.4969,-2.5941,-2.622,-2.6887,-2.8684,-2.9351,-3.0164,0.0,0.0,0.0,0.0,0.0,0.0,0.0,0.0,0.0,0.0,0.0,0.0,0.0,-4.2974,-4.3137,-4.3476,-4.3489,-4.3489,-4.3489,-4.3489,-4.3313,-4.2974,-4.2974,-4.2974,-4.2974,-4.2974,0.0,0.0,0.0,0.0,0.0,-4.2974,-4.25,-4.1741,-4.0928,-3.9849,-3.8662,-3.785,-3.7259,-3.6874,-3.7172,-3.6946,-3.6549,-3.6861,-3.6585,-3.6294,-3.6738,-3.6045,-3.5388,-3.6522,-3.6846,-3.6846,-3.6846,-3.7168,-3.7287,-3.6402,-3.5651,-3.5013,-3.458,-3.3547,-3.2669,-3.2669,-3.3058,-3.3388,-3.3388,-3.3762,-3.4302,-3.5013,-3.5124,-3.5388,-3.6131,-3.6185,-3.6185,-3.6185,-3.6185,-3.5597,-3.4134,-3.4032,-3.4357,-3.5113,-3.4747,-3.448,-3.448,-3.4043,-3.3445,-3.2727,-3.2669,-3.2669,-3.2669,-3.2612,-3.2555,-3.2545,-3.1913,-3.1614,0.0,-2.7713,-2.7579,-2.7527,-2.7713,-2.7416,-2.5614,-2.5469,0.0,-2.4607,-2.499,-2.5633,-2.6089,-2.667,-2.7288,-2.7799,-2.8324,0.0,0.0,0.0,0.0,0.0,0.0,0.0,0.0,0.0,0.0,0.0,0.0,0.0,0.0,-4.303,-4.303,-4.303,-4.303,-4.2974,-4.2974,-4.2974,-4.2974,-4.2974,-4.2974,-4.2974,-4.2974,-4.2974,0.0,0.0,0.0,0.0,0.0,-4.2974,-4.2974,-4.2974,-4.2918,-4.215,-4.11,-4.0973,-4.0222,-3.9265,-3.9907,-3.916,-3.7959,-3.8622,-3.7785,-3.6619,-3.7619,-3.718,-3.6522,-3.7619,-3.7897,-3.7885,-3.7779,-3.8542,-3.8764,-3.6576,-3.6022,-3.5706,-3.4692,-3.3604,-3.2841,-3.2944,-3.3875,-3.4636,-3.4636,-3.5498,-3.6185,-3.6185,-3.624,-3.6294,-3.6294,-3.6402,-3.6457,-3.6457,-3.6348,-3.6294,-3.6294,-3.624,-3.6185,-3.6185,-3.5234,-3.4591,-3.448,-3.3445,-3.2784,-3.2669,-3.2669,-3.2669,-3.2669,-3.243,-3.2315,-3.2248,-3.1614,-3.1325,-2.4914,0.0,-2.5543,-2.5083,-2.5366,-2.5488,0.0,-2.4693,-2.4892,-2.4658,0.0,-2.5634,-2.6622,-2.7601,-2.8705,-3.0113,-3.1199,-3.2255,0.0,0.0,0.0,0.0,0.0,0.0,0.0,0.0,0.0,0.0,0.0,0.0,0.0,-4.3141,-4.3085,-4.3283,-4.3141,-4.2974,-4.2974,-4.2974,-4.2974,-4.2974,-4.2974,-4.2974,-4.2974,-4.2974,0.0,0.0,0.0,0.0,-4.2974,-4.2974,-4.2974,-4.2918,-4.1923,-4.1329,-4.0985,-3.9989,-3.9451,-3.9147,-3.8932,-3.8923,-3.9057,-3.9361,-3.9188,-3.8764,-3.8108,-3.7725,-3.7566,-3.7832,-3.7897,-3.7725,-3.6846,-3.6154,-3.5564,-3.5013,-3.419,-3.3706,-3.4368,-3.4256,-3.4312,-3.5223,-3.5597,-3.5815,-3.5815,-3.6034,-3.6185,-3.6185,-3.6954,-3.7501,-3.7501,-3.8319,-3.8868,-3.8868,-3.8043,-3.7501,-3.7501,-3.6684,-3.6185,-3.6185,-3.5979,-3.5388,-3.4536,-3.4211,-3.366,-3.2737,-3.2669,-3.2612,-3.2373,-3.2305,-3.219,-3.1903,-3.1498,-3.1325,-2.3629,-2.4517,-2.5258,-2.484,-2.501,-2.5135,-2.4627,-2.4425,0.0,0.0,0.0,-2.5659,-2.6422,-2.7476,-2.8745,-3.0381,-3.1401,0.0,0.0,0.0,0.0,0.0,0.0,0.0,0.0,0.0,0.0,0.0,0.0,0.0,0.0,-4.324,-4.324,-4.3394,-4.3129,-4.2974,-4.2974,-4.2974,-4.2974,-4.2974,-4.2974,-4.2974,-4.2974,-4.2974,-4.2974,0.0,0.0,0.0,-4.2974,-4.2974,-4.2974,-4.2918,-4.2219,-4.198,-4.1866,-4.1215,-4.0772,-4.0485,-3.9902,-3.9263,-3.8749,-3.8843,-3.8542,-3.8056,-3.795,-3.7897,-3.7779,-3.7287,-3.7126,-3.6846,-3.5717,-3.5333,-3.5013,-3.3931,-3.3604,-3.3706,-3.4368,-3.448,-3.4858,-3.5979,-3.663,-3.6954,-3.6954,-3.7447,-3.7607,-3.7061,-3.8003,-3.8542,-3.795,-3.8933,-3.9697,-3.9697,-3.9141,-3.8712,-3.8712,-3.7672,-3.6954,-3.6954,-3.5979,-3.5388,-3.5278,-3.4256,-3.3388,-3.2727,-3.2669,-3.2612,-3.2487,-3.2373,-3.2133,-3.1787,-3.1441,-3.1218,-2.3232,-2.4627,-2.5821,-2.5488,-2.556,-2.5562,-2.5173,0.0,0.0,0.0,0.0,0.0,0.0,-2.7425,0.0,0.0,0.0,0.0,0.0,0.0,0.0,0.0,0.0,0.0,0.0,0.0,0.0,0.0,0.0,0.0,0.0,-4.3212,-4.3212,-4.3267,-4.3015,-4.2898,-4.2974,-4.2974,-4.2974,-4.2974,-4.2974,-4.2974,-4.2974,-4.2974,-4.2974,0.0,0.0,0.0,-4.2974,-4.2974,-4.2974,-4.2974,-4.2974,-4.2868,-4.2613,-4.2613,-4.2152,-4.1439,-4.0827,-3.9318,-3.7619,-3.7619,-3.7007,-3.6402,-3.734,-3.7619,-3.7447,-3.6468,-3.6348,-3.6197,-3.5068,-3.5498,-3.5706,-3.3706,-3.4043,-3.4803,-3.4958,-3.5024,-3.5344,-3.6522,-3.7501,-3.8161,-3.8161,-3.8868,-3.9037,-3.7832,-3.8659,-3.8933,-3.7566,-3.8764,-3.9633,-3.9413,-3.9426,-3.9426,-3.9426,-3.8332,-3.7725,-3.7897,-3.5936,-3.5168,-3.6131,-3.4145,-3.2944,-3.2944,-3.2727,-3.2612,-3.2555,-3.2258,-3.196,-3.1682,-3.1392,-3.1112,-2.4088,-2.5366,-2.6097,-2.5279,-2.556,-2.5916,-2.5524,0.0,0.0,0.0,0.0,0.0,0.0,0.0,0.0,0.0,0.0,0.0,0.0,0.0,0.0,0.0,0.0,0.0,0.0,0.0,0.0,0.0,0.0,0.0,0.0,0.0,-4.2503,-4.2734,-4.2448,-4.2564,-4.2974,-4.2974,-4.2974,-4.2974,-4.2974,-4.2974,-4.2974,-4.2974,-4.2974,0.0,0.0,-4.2974,-4.2974,-4.2974,-4.2974,-4.2974,-4.2974,-4.2103,-4.0821,-4.0821,-3.9866,-3.8447,-3.7854,-3.7118,-3.6468,-3.6468,-3.6348,-3.624,-3.6402,-3.6468,-3.6402,-3.624,-3.69,-3.7394,-3.6251,-3.6077,-3.6131,-3.5761,-3.5815,-3.6197,-3.718,-3.7406,-3.7725,-3.8921,-3.931,-3.9413,-3.9413,-3.8712,-3.7779,-3.6619,-3.7447,-3.7406,-3.5289,-3.7737,-3.931,-3.8279,-3.8161,-3.8161,-3.8161,-3.7126,-3.6846,-3.7832,-3.6684,-3.6034,-3.6185,-3.4902,-3.4201,-3.4201,-3.298,-3.219,-3.196,-3.1614,-3.1334,-3.1064,-3.1005,-3.0947,-2.2959,-2.4288,-2.5363,-2.5536,-2.648,-2.7261,-2.6972,-2.6451,0.0,0.0,0.0,0.0,0.0,0.0,0.0,0.0,0.0,0.0,0.0,0.0,0.0,0.0,0.0,0.0,0.0,0.0,0.0,0.0,0.0,0.0,0.0,0.0,-4.2055,-4.2163,-4.1881,-4.1831,-4.2095,-4.2095,-4.2246,-4.259,-4.2233,-4.2095,-4.2095,-4.2095,-4.2095,-4.2095,0.0,-4.2095,-4.2095,-4.2095,-4.1741,-4.1152,-4.1152,-4.0326,-3.8998,-3.8704,-3.85,-3.8241,-3.6989,-3.6816,-3.7126,-3.7126,-3.6684,-3.6294,-3.6954,-3.6684,-3.6348,-3.6954,-3.7061,-3.6846,-3.6348,-3.6185,-3.6185,-3.6185,-3.5706,-3.5608,-3.6738,-3.648,-3.6426,-3.7554,-3.8319,-3.8712,-3.8712,-3.8816,-3.8489,-3.7287,-3.8108,-3.8279,-3.6534,-3.8332,-3.9478,-3.8921,-3.8868,-3.8868,-3.8868,-3.7779,-3.7073,-3.7007,-3.7073,-3.6846,-3.624,-3.5706,-3.5443,-3.5443,-3.3955,-3.313,-3.3016,-3.2008,-3.1392,-3.1112,-3.1112,-3.1054,-2.2153,-2.3282,-2.444,-2.569,-2.6976,-2.805,-2.8434,-2.7776,0.0,0.0,0.0,0.0,0.0,0.0,0.0,0.0,0.0,0.0,0.0,0.0,0.0,0.0,0.0,0.0,0.0,0.0,0.0,0.0,0.0,0.0,0.0,0.0,-4.1473,-4.1473,-4.126,-4.115,-4.1288,-4.1163,-4.143,-4.1957,-4.1543,-4.1288,-4.1288,-4.1288,-4.1288,-4.1288,-4.1288,-4.1288,-4.1288,-4.1288,-4.0765,-4.002,-4.002,-3.922,-3.7987,-3.7121,-3.743,-3.7982,-3.665,-3.6576,-3.7084,-3.7084,-3.6306,-3.5597,-3.675,-3.648,-3.6034,-3.718,-3.6846,-3.6348,-3.69,-3.6792,-3.6576,-3.6576,-3.5717,-3.5234,-3.636,-3.5706,-3.5333,-3.6738,-3.7501,-3.8003,-3.8267,-3.8868,-3.8985,-3.8056,-3.8712,-3.8868,-3.7672,-3.8764,-3.9581,-3.931,-3.953,-3.9697,-3.9697,-3.8868,-3.7938,-3.7061,-3.7832,-3.7938,-3.7061,-3.6738,-3.6576,-3.6576,-3.4891,-3.3955,-3.3888,-3.2389,-3.1498,-3.1218,-3.1218,-3.1112,-2.3081,-2.3484,-2.3816,-2.5262,-2.6122,0.0,-2.9378,-2.8887,0.0,-3.0871,0.0,0.0,0.0,0.0,0.0,0.0,0.0,0.0,0.0,0.0,0.0,0.0,0.0,0.0,0.0,0.0,0.0,0.0,0.0,0.0,0.0,0.0,0.0,-4.0576,-4.0576,-4.0827,-4.1275,-4.0827,-4.0852,-4.1338,-4.13,-4.1288,-4.1288,-4.1288,-4.1288,-4.1288,-4.1288,-4.1288,-4.1288,-4.1288,-4.1222,-4.1168,-4.1168,-4.0173,-3.8545,-3.6863,-3.6297,-3.6352,-3.6251,-3.5553,-3.4747,-3.4747,-3.3931,-3.3161,-3.4368,-3.4692,-3.4858,-3.5979,-3.624,-3.6684,-3.8868,-3.8607,-3.7779,-3.7779,-3.69,-3.6414,-3.7501,-3.69,-3.6738,-3.9037,-3.8607,-3.8267,-3.9362,-3.8712,-3.8003,-3.7885,-3.795,-3.7619,-3.6468,-3.8319,-3.9258,-3.8161,-3.9037,-3.9697,-3.9697,-3.9633,-3.953,-3.9478,-3.953,-3.953,-3.9478,-3.8384,-3.7779,-3.7779,-3.5267,-3.3832,-3.3508,-3.2045,-3.1218,-3.0947,-3.0947,-3.0889,-2.1823,-2.32,-2.4596,-2.5393,-2.6553,0.0,0.0,-3.0006,-3.0723,-3.2663,-3.2571,0.0,0.0,0.0,0.0,0.0,0.0,0.0,0.0,0.0,0.0,0.0,0.0,0.0,0.0,0.0,0.0,0.0,0.0,0.0,0.0,0.0,0.0,-4.0011,-4.0011,-4.0111,-4.0312,-4.0111,-4.0111,-4.0325,-4.0325,-4.0325,-4.0325,-4.0325,-4.0325,-4.0325,-4.0325,-4.0325,-4.0325,-4.0325,-3.9867,-3.9099,-3.8431,-3.7748,-3.6995,-3.5676,-3.5608,-3.6088,-3.5388,-3.5333,-3.5553,-3.5553,-3.5278,-3.4947,-3.5443,-3.5068,-3.4747,-3.587,-3.6185,-3.6402,-3.7275,-3.7168,-3.6846,-3.6846,-3.5979,-3.5443,-3.6576,-3.5925,-3.5608,-3.7222,-3.7725,-3.8056,-3.8489,-3.8816,-3.9037,-3.9037,-3.9037,-3.8868,-3.8437,-3.9141,-3.953,-3.9089,-3.8764,-3.8594,-3.8594,-3.7938,-3.7501,-3.7501,-3.8868,-3.9362,-3.8607,-3.8161,-3.7566,-3.6846,-3.4748,-3.3631,-3.3508,-3.1872,-3.1005,-3.0889,-3.0889,-3.0889,-2.1513,-2.3115,-2.4816,0.0,0.0,0.0,-3.0181,-3.0984,-3.2064,-3.4449,-3.4361,-3.3972,-3.4349,0.0,0.0,0.0,0.0,0.0,0.0,0.0,0.0,0.0,0.0,0.0,0.0,0.0,0.0,0.0,0.0,0.0,0.0,0.0,0.0,0.0,-3.9697,-3.9697,-3.9697,-3.9697,-3.9697,-3.9697,-3.9697,-3.9697,-3.9697,-3.9697,-3.9697,-3.9697,-3.9697,-3.9697,-3.9697,-3.9697,-3.8985,-3.7779,-3.663,-3.6185,-3.6131,-3.5333,-3.5542,-3.6088,-3.5333,-3.5333,-3.5706,-3.6077,-3.5979,-3.5706,-3.6077,-3.5663,-3.5113,-3.5553,-3.5925,-3.6131,-3.5761,-3.6197,-3.6738,-3.6738,-3.5881,-3.5333,-3.6468,-3.5815,-3.5498,-3.7007,-3.7619,-3.8003,-3.8384,-3.8816,-3.9141,-3.9141,-3.8816,-3.8712,-3.9089,-3.8816,-3.8594,-3.8594,-3.8161,-3.7725,-3.7394,-3.663,-3.6185,-3.6185,-3.7713,-3.8214,-3.7394,-3.734,-3.6954,-3.6065,-3.447,-3.3575,-3.335,-3.1767,-3.1005,-3.0889,-3.0889,-3.0889,-2.2623,-2.3283,-2.428,0.0,0.0,0.0,-3.1599,-3.1813,-3.2516,-3.6383,0.0,-3.552,-3.552,0.0,0.0,0.0,0.0,0.0,0.0,0.0,0.0,0.0,0.0,0.0,0.0,0.0,0.0,0.0,0.0,0.0,0.0,0.0,0.0,0.0,-3.9697,-3.9697,-3.9697,-3.9697,-3.9697,-3.9697,-3.9697,-3.9697,-3.9697,-3.9697,-3.9697,-3.9697,-3.9697,-3.9697,-3.9697,-3.9697,-3.8985,-3.7779,-3.663,-3.6185,-3.6185,-3.6185,-3.6185,-3.6185,-3.6185,-3.5443,-3.4692,-3.5815,-3.5443,-3.4747,-3.587,-3.6185,-3.5979,-3.4803,-3.5278,-3.5925,-3.4803,-3.6154,-3.7885,-3.7885,-3.7019,-3.6457,-3.7619,-3.6954,-3.6846,-3.9193,-3.8712,-3.8267,-3.9478,-3.8659,-3.7885,-3.7885,-3.69,-3.663,-3.7725,-3.69,-3.6185,-3.6185,-3.718,-3.7394,-3.6294,-3.6185,-3.6185,-3.6185,-3.6131,-3.6185,-3.6185,-3.6185,-3.6011,-3.5672,-3.4547,-3.3663,-3.3077,-3.1872,-3.117,-3.0889,-3.0889,-3.0889,-2.2087,-2.3813,0.0,0.0,0.0,0.0,0.0,-3.3269,0.0,0.0,0.0,-3.6697,-3.6697,0.0,0.0,0.0,0.0,0.0,0.0,0.0,0.0,0.0,0.0,0.0,0.0,0.0,0.0,0.0,0.0,0.0,0.0,0.0,0.0,0.0,-3.9697,-3.9697,-3.9697,-3.9697,-3.9697,-3.9697,-3.9697,-3.9697,-3.9697,-3.9697,-3.9697,-3.9697,-3.9697,-3.9697,-3.9633,-3.8764,-3.7725,-3.6684,-3.6348,-3.6185,-3.6185,-3.6185,-3.6185,-3.6185,-3.6185,-3.5979,-3.5761,-3.6077,-3.5968,-3.5597,-3.5124,-3.5013,-3.4747,-3.3547,-3.4089,-3.4902,-3.458,-3.5608,-3.6522,-3.5717,-3.458,-3.4032,-3.5234,-3.5234,-3.5443,-3.6954,-3.6954,-3.6846,-3.7168,-3.6954,-3.6684,-3.6684,-3.6414,-3.6294,-3.6684,-3.6402,-3.6185,-3.6185,-3.5772,-3.5344,-3.5013,-3.4256,-3.3762,-3.3762,-3.3582,-3.3843,-3.4614,-3.467,-3.4112,-3.2995,-3.2389,-3.1998,-3.1815,-3.1276,-3.1005,-3.0889,-3.0889,-3.0889,-2.3174,-2.5005,0.0,0.0,0.0,0.0,0.0,0.0,0.0,0.0,0.0,0.0,0.0,0.0,0.0,0.0,0.0,0.0,0.0,0.0,0.0,0.0,0.0,0.0,0.0,0.0,0.0,0.0,0.0,0.0,0.0,0.0,0.0,0.0,-3.9697,-3.9697,-3.9697,-3.9697,-3.9697,-3.9697,-3.9697,-3.9697,-3.9697,-3.9697,-3.9697,-3.9697,-3.9697,-3.9426,-3.8868,-3.7725,-3.6522,-3.5498,-3.5498,-3.5498,-3.5597,-3.6034,-3.6185,-3.6185,-3.6185,-3.5925,-3.5597,-3.6022,-3.5859,-3.5498,-3.5223,-3.5179,-3.4902,-3.3773,-3.4256,-3.5068,-3.4636,-3.5013,-3.5498,-3.5223,-3.4625,-3.4302,-3.5013,-3.5179,-3.5388,-3.6077,-3.6185,-3.6185,-3.6185,-3.5815,-3.5498,-3.5498,-3.5498,-3.5333,-3.4891,-3.5597,-3.587,-3.4891,-3.4636,-3.4312,-3.3829,-3.3115,-3.2669,-3.2669,-3.2555,-3.2706,-3.33,-3.3187,-3.2628,-3.1614,-3.1383,-3.1276,-3.116,-3.1005,-3.0889,-3.0889,-3.0889,-3.0889,-2.5066,0.0,0.0,0.0,0.0,0.0,0.0,0.0,0.0,0.0,0.0,0.0,0.0,0.0,0.0,0.0,0.0,0.0,0.0,0.0,0.0,0.0,0.0,0.0,0.0,0.0,0.0,0.0,0.0,0.0,0.0,0.0,0.0,0.0,-3.9697,-3.9697,-3.9697,-3.9697,-3.9697,0.0,-3.9697,-3.9697,-3.9697,-3.9697,-3.9697,-3.9697,-3.9697,-3.9037,-3.7832,-3.6792,-3.5651,-3.4636,-3.4636,-3.458,-3.4636,-3.5761,-3.6131,-3.6088,-3.6131,-3.5498,-3.4858,-3.587,-3.5498,-3.4858,-3.5761,-3.6034,-3.5815,-3.4636,-3.5068,-3.5651,-3.458,-3.4312,-3.458,-3.5651,-3.587,-3.587,-3.587,-3.587,-3.587,-3.587,-3.587,-3.587,-3.587,-3.5002,-3.4312,-3.4312,-3.4312,-3.3931,-3.2841,-3.4569,-3.5057,-3.2944,-3.366,-3.3875,-3.2784,-3.2669,-3.2669,-3.2669,-3.2669,-3.2545,-3.2305,-3.2018,-3.1672,-3.1334,-3.1325,-3.116,-3.0889,-3.0889,-3.0889,-3.0889,-3.0889,-3.0889,0.0,0.0,0.0,0.0,0.0,0.0,0.0,0.0,0.0,0.0,0.0,0.0,0.0,0.0,0.0,0.0,0.0,0.0,0.0,0.0,0.0,0.0,0.0,0.0,0.0,0.0,0.0,0.0,0.0,0.0,0.0,0.0,0.0,-3.9697,-3.9697,-3.9697,-3.9697,-3.9697,-3.9697,0.0,-3.9697,-3.9697,-3.9697,-3.9697,-3.9697,-3.9697,-3.9697,-3.9037,-3.7885,-3.7619,-3.6846,-3.5815,-3.5815,-3.5278,-3.4636,-3.5761,-3.5651,-3.5013,-3.587,-3.6022,-3.587,-3.6131,-3.6034,-3.5706,-3.5068,-3.4858,-3.4636,-3.3445,-3.3275,-3.3378,-3.3161,-3.3115,-3.3161,-3.3378,-3.3434,-3.3434,-3.3434,-3.3434,-3.3434,-3.3434,-3.3434,-3.3434,-3.3434,-3.3275,-3.3115,-3.3115,-3.3115,-3.3001,-3.2727,-3.3161,-3.3275,-3.2727,-3.2944,-3.3001,-3.2727,-3.2669,-3.2669,-3.2669,-3.2487,-3.2373,-3.2305,-3.2248,-3.1903,-3.1325,-3.1325,-3.116,-3.0889,-3.0889,-3.0889,-3.0889,-3.0889,-3.0889,0.0,0.0,0.0,0.0,0.0,0.0,0.0,0.0,0.0,0.0,0.0,0.0,0.0,0.0,0.0,0.0,0.0,0.0,0.0,0.0,0.0,0.0,0.0,0.0,0.0,0.0,0.0,0.0,0.0,0.0,0.0,0.0,0.0,-3.9697,-3.9697,-3.9697,-3.9697,-3.9697,-3.9697,-3.9697,-3.9697,-3.9697,-3.9697,-3.9697,-3.9697,-3.9697,-3.9697,-3.9037,-3.7897,-3.7897,-3.7233,-3.6185,-3.6185,-3.5815,-3.5388,-3.5979,-3.5815,-3.5388,-3.5979,-3.587,-3.5388,-3.5388,-3.5002,-3.4402,-3.3818,-3.366,-3.3501,-3.2898,-3.2669,-3.2669,-3.2669,-3.2669,-3.2669,-3.2669,-3.2669,-3.2669,-3.2669,-3.2669,-3.2669,-3.2669,-3.2669,-3.2669,-3.2669,-3.2669,-3.2669,-3.2669,-3.2669,-3.2898,-3.3491,-3.3058,-3.3105,-3.4246,-3.3378,-3.2944,-3.3491,-3.3058,-3.2669,-3.2669,-3.243,-3.2305,-3.2305,-3.2133,-3.1845,-3.1325,-3.116,-3.1054,-3.0889,-3.0889,-3.0889,-3.0889,-3.0889,-3.0889,0.0,0.0,0.0,0.0,0.0,0.0,0.0,0.0,0.0,0.0,0.0,0.0,0.0,0.0,0.0,0.0,0.0,0.0,0.0,0.0,0.0,0.0,0.0,0.0,0.0,0.0,0.0,0.0,0.0,0.0,0.0,0.0,-3.9597,-3.9697,-3.9697,-3.9697,-3.9697,-3.9697,-3.9697,-3.9697,-3.9697,-3.9697,-3.9697,-3.9697,-3.9697,-3.9697,-3.9697,-3.9141,-3.8214,-3.8214,-3.7501,-3.6511,-3.6511,-3.624,-3.5925,-3.5925,-3.5761,-3.5597,-3.5597,-3.4958,-3.4201,-3.4201,-3.3491,-3.2669,-3.2669,-3.2669,-3.2669,-3.2669,-3.2669,-3.2669,-3.2669,-3.2669,-3.2669,-3.2669,-3.2669,-3.2669,-3.2669,-3.2669,-3.2669,-3.2669,-3.2898,-3.3001,-3.3001,-3.3001,-3.3001,-3.3001,-3.2841,-3.3058,-3.4043,-3.3332,-3.3434,-3.5377,-3.3864,-3.3115,-3.4099,-3.3275,-3.2669,-3.2612,-3.243,-3.2248,-3.219,-3.1903,-3.1556,-3.1334,-3.1112,-3.0947,-3.0889,-3.0889,-3.0889,-3.0889,-3.0889,-3.0889,0.0,0.0,0.0,0.0,0.0,0.0,0.0,0.0,0.0,0.0,0.0,0.0,0.0,0.0,0.0,0.0,0.0,0.0,0.0,0.0,0.0,0.0,0.0,0.0,0.0,0.0,0.0,0.0,0.0,0.0,0.0,-3.9032,-3.9195,-3.9685,-3.9697,-3.9697,-3.9697,-3.9697,-3.9697,-3.9697,-3.9697,-3.9697,-3.9697,-3.9697,-3.9697,-3.9697,-3.9697,-3.9594,-3.9478,-3.9478,-3.8764,-3.7672,-3.7672,-3.648,-3.4747,-3.4747,-3.4089,-3.3161,-3.3161,-3.3058,-3.2955,-3.2955,-3.2841,-3.2669,-3.2669,-3.2669,-3.2669,-3.2669,-3.2669,-3.2669,-3.2669,-3.2669,-3.2669,-3.2669,-3.2669,-3.2669,-3.2669,-3.2669,-3.2669,-3.2669,-3.3547,-3.4256,-3.4256,-3.4256,-3.4256,-3.4256,-3.3388,-3.2784,-3.2887,-3.2784,-3.2841,-3.3105,-3.2898,-3.2784,-3.2955,-3.2784,-3.2612,-3.2373,-3.2305,-3.219,-3.1903,-3.1556,-3.1325,-3.1325,-3.1276,-3.1112,-3.0889,-3.0889,-3.0889,-3.0889,-3.0889,-3.0889,0.0,0.0,0.0,0.0,0.0,0.0,0.0,0.0,0.0,0.0,0.0,0.0,0.0,0.0,0.0,0.0,0.0,0.0,0.0,0.0,0.0,0.0,0.0,0.0,0.0,0.0,0.0,0.0,0.0,0.0,-3.8366,-3.8391,-3.8492,-3.8743,-3.8755,-3.8755,-3.8755,-3.8755,-3.8919,-3.9233,-3.9546,-3.9697,-3.9697,-3.9697,-3.9697,-3.9697,-3.9697,-3.931,-3.8712,-3.8712,-3.7991,-3.69,-3.6263,-3.5399,-3.4424,-3.3717,-3.3172,-3.2669,-3.2669,-3.2669,-3.2669,-3.2669,-3.2669,-3.2669,-3.2669,-3.2669,-3.2669,-3.2669,-3.2669,-3.2669,-3.2669,-3.2669,-3.2669,-3.2669,-3.2669,-3.2669,-3.2669,-3.3218,-3.3717,-3.3717,-3.3604,-3.3491,-3.3491,-3.3491,-3.3491,-3.3491,-3.3058,-3.2944,-3.3604,-3.3115,-3.3218,-3.4514,-3.3491,-3.2944,-3.366,-3.3115,-3.2669,-3.2545,-3.2373,-3.2248,-3.2076,-3.1556,-3.1325,-3.1325,-3.116,-3.0995,-3.0889,-3.0889,-3.0889,-3.0889,-3.0889,-3.0889,0.0,0.0,0.0,0.0,0.0,0.0,0.0,0.0,0.0,0.0,0.0,0.0,0.0,0.0,0.0,0.0,0.0,0.0,0.0,0.0,0.0,0.0,0.0,0.0,0.0,0.0,0.0,0.0,0.0,0.0,-3.7789,-3.7801,-3.7864,-3.8002,-3.8002,-3.8002,-3.8002,-3.8002,-3.8228,-3.8655,-3.9069,-3.927,-3.927,-3.927,-3.927,-3.9283,-3.9572,-3.9037,-3.7897,-3.7897,-3.7073,-3.5706,-3.4858,-3.4312,-3.3931,-3.3058,-3.2669,-3.2669,-3.2669,-3.2669,-3.2669,-3.2669,-3.2669,-3.2669,-3.2669,-3.2669,-3.2669,-3.2669,-3.2669,-3.2669,-3.2669,-3.2669,-3.2669,-3.2669,-3.2669,-3.2669,-3.2669,-3.3388,-3.4043,-3.4043,-3.3547,-3.3172,-3.3172,-3.3172,-3.3172,-3.3172,-3.2898,-3.3001,-3.3931,-3.3275,-3.3378,-3.5113,-3.3751,-3.3058,-3.3987,-3.3491,-3.3105,-3.3048,-3.281,-3.2685,-3.2618,-3.1777,-3.1325,-3.1325,-3.1054,-3.0889,-3.0889,-3.0889,-3.0889,-3.0889,-3.0889,-3.0889,0.0,0.0,0.0,0.0,0.0,0.0,0.0,0.0,0.0,0.0,0.0,0.0,0.0,0.0,0.0,0.0,0.0,0.0,0.0,0.0,0.0,0.0,0.0,0.0,0.0,0.0,0.0,0.0,0.0,0.0,-3.7199,-3.7224,-3.7462,-3.799,-3.8002,-3.8002,-3.8002,-3.8002,-3.8027,-3.8052,-3.809,-3.809,-3.809,-3.809,-3.809,-3.8153,-3.9233,-3.9037,-3.7897,-3.7897,-3.6588,-3.4591,-3.4536,-3.3818,-3.2784,-3.2727,-3.2669,-3.2669,-3.2669,-3.2669,-3.2669,-3.2669,-3.2669,-3.2669,-3.2669,-3.2669,-3.2669,-3.2669,-3.2669,-3.2669,-3.2669,-3.2669,-3.2669,-3.2669,-3.2669,-3.2669,-3.2669,-3.2727,-3.2784,-3.2784,-3.366,-3.4424,-3.4424,-3.4424,-3.4424,-3.4424,-3.3445,-3.2727,-3.2784,-3.2727,-3.2727,-3.2887,-3.2784,-3.2727,-3.2784,-3.3773,-3.4256,-3.3966,-3.3909,-3.3776,-3.3462,-3.2035,-3.1325,-3.1325,-3.1054,-3.0889,-3.0889,-3.0889,-3.0889,-3.0889,-3.0889,-3.0889,0.0,0.0,0.0,0.0,0.0,0.0,0.0,0.0,0.0,0.0,0.0,0.0,0.0,0.0,0.0,0.0,0.0,0.0,0.0,0.0,0.0,0.0,0.0,0.0,0.0,0.0,0.0,0.0,0.0,0.0,-3.6694,-3.6707,-3.6795,-3.6996,-3.6948,-3.6948,-3.6948,-3.7299,-3.7475,-3.7475,-3.7839,-3.8002,-3.8002,-3.8002,-3.8002,-3.7978,-3.7701,-3.6928,-3.58,-3.5127,-3.3919,-3.2532,-3.2762,-3.2609,-3.2266,-3.2566,-3.2669,-3.2669,-3.2669,-3.2669,-3.2669,-3.2669,-3.2669,-3.2669,-3.2669,-3.2669,-3.2669,-3.2669,-3.2669,-3.2669,-3.2669,-3.2669,-3.2898,-3.366,-3.4803,-3.5564,-3.5057,-3.3762,-3.2944,-3.3706,-3.3604,-3.3332,-3.3332,-3.3332,-3.3332,-3.3332,-3.3001,-3.3001,-3.3773,-3.3885,-3.4145,-3.4891,-3.4947,-3.4947,-3.4947,-3.5333,-3.5223,-3.4357,-3.4134,-3.3618,-3.2789,-3.1835,-3.1325,-3.1325,-3.1054,-3.0889,-3.0889,-3.0889,-3.0889,-3.0889,-3.0889,-3.0889,-1.8794,0.0,0.0,0.0,0.0,0.0,0.0,0.0,0.0,0.0,0.0,0.0,0.0,0.0,0.0,0.0,0.0,0.0,0.0,0.0,0.0,0.0,0.0,0.0,0.0,0.0,0.0,0.0,0.0,0.0,-3.6094,-3.6304,-3.6405,-3.6405,-3.6405,-3.6405,-3.6405,-3.6769,-3.6958,-3.6958,-3.7274,-3.745,-3.745,-3.745,-3.745,-3.7401,-3.6332,-3.5395,-3.4618,-3.3537,-3.2405,-3.1412,-3.1702,-3.1909,-3.2019,-3.2328,-3.2545,-3.2669,-3.2669,-3.2669,-3.2669,-3.2669,-3.2669,-3.2669,-3.2669,-3.2669,-3.2669,-3.2669,-3.2669,-3.2784,-3.3218,-3.3604,-3.4089,-3.4902,-3.6045,-3.6858,-3.6306,-3.4681,-3.3547,-3.4368,-3.3547,-3.2669,-3.2669,-3.3058,-3.3275,-3.3275,-3.3649,-3.4134,-3.4958,-3.5068,-3.5388,-3.6131,-3.6185,-3.6185,-3.6185,-3.6077,-3.5695,-3.4947,-3.4336,-3.3628,-3.2732,-3.1893,-3.1383,-3.1325,-3.1054,-3.0889,-3.0889,-3.0889,-3.0889,-3.0889,-3.0889,-3.0889,0.0,0.0,0.0,0.0,0.0,0.0,0.0,0.0,0.0,0.0,0.0,0.0,0.0,0.0,0.0,0.0,0.0,0.0,0.0,0.0,0.0,0.0,0.0,0.0,0.0,0.0,0.0,0.0,0.0,-3.547,-3.547,-3.6031,-3.6355,-3.6355,-3.638,-3.638,-3.638,-3.6405,-3.6405,-3.6405,-3.6405,-3.6405,-3.6405,-3.6405,-3.6405,-3.6358,-3.5271,-3.4745,-3.4572,-3.3546,-3.2416,-3.1394,-3.1405,-3.1674,-3.1946,-3.1957,-3.2256,-3.2659,-3.2659,-3.2659,-3.2669,-3.2669,-3.2727,-3.2727,-3.2727,-3.2784,-3.2784,-3.2784,-3.2784,-3.3058,-3.4256,-3.5388,-3.624,-3.624,-3.6294,-3.6294,-3.6294,-3.5388,-3.458,-3.4536,-3.3604,-3.2784,-3.2784,-3.3762,-3.4536,-3.4536,-3.5498,-3.6185,-3.624,-3.624,-3.6185,-3.624,-3.624,-3.6185,-3.6185,-3.5902,-3.5727,-3.5672,-3.4603,-3.3832,-3.3452,-3.2379,-3.1614,-3.1334,-3.1054,-3.0889,-3.0889,-3.0879,-3.0869,-3.0869,-3.0869,-3.0879,-1.6974,0.0,0.0,0.0,0.0,0.0,0.0,0.0,0.0,0.0,0.0,0.0,0.0,0.0,0.0,0.0,0.0,0.0,0.0,0.0,0.0,0.0,0.0,0.0,0.0,0.0,0.0,0.0,-3.4818,-3.4906,-3.4906,-3.509,-3.5177,-3.5177,-3.5567,-3.5768,-3.5768,-3.6157,-3.6405,-3.6405,-3.6405,-3.6405,-3.6405,-3.6405,-3.6405,-3.6358,-3.5271,-3.4343,-3.3602,-3.331,-3.2545,-3.1566,-3.191,-3.1614,-3.1102,-3.1433,-3.1847,-3.2173,-3.2173,-3.239,-3.2669,-3.2669,-3.3275,-3.3987,-3.3987,-3.458,-3.5212,-3.5212,-3.5212,-3.5322,-3.5651,-3.6576,-3.7447,-3.7447,-3.8108,-3.8699,-3.8699,-3.7791,-3.6696,-3.587,-3.5432,-3.5212,-3.5212,-3.5487,-3.5706,-3.5706,-3.5968,-3.6522,-3.734,-3.6738,-3.6522,-3.734,-3.6684,-3.6185,-3.6185,-3.6131,-3.5695,-3.4891,-3.4291,-3.3572,-3.2675,-3.1835,-3.1383,-3.1325,-3.1054,-3.0889,-3.0889,-3.0557,-3.0391,-3.0391,-3.0391,-3.0566,-1.7842,-1.8418,-1.9334,-1.9422,0.0,0.0,0.0,0.0,0.0,0.0,0.0,0.0,0.0,0.0,0.0,0.0,0.0,0.0,0.0,0.0,0.0,0.0,0.0,0.0,0.0,0.0,0.0,0.0,-3.4248,-3.4474,-3.4668,-3.468,-3.468,-3.468,-3.4994,-3.5157,-3.5157,-3.5516,-3.5793,-3.6019,-3.6019,-3.6144,-3.6405,-3.6405,-3.6405,-3.6358,-3.5715,-3.5126,-3.4532,-3.4532,-3.3089,-3.0961,-3.1239,-3.1074,-3.0719,-3.0988,-3.1381,-3.1764,-3.1764,-3.194,-3.2168,-3.2168,-3.2908,-3.3901,-3.4109,-3.4965,-3.5921,-3.6128,-3.6522,-3.69,-3.69,-3.7779,-3.8659,-3.8659,-3.9206,-3.9697,-3.9697,-3.9154,-3.8319,-3.7126,-3.6522,-3.6185,-3.6185,-3.6565,-3.6738,-3.624,-3.7007,-3.7554,-3.7233,-3.7019,-3.6954,-3.7168,-3.6576,-3.6185,-3.6185,-3.5651,-3.4991,-3.4357,-3.3628,-3.2856,-3.1903,-3.1614,-3.1383,-3.116,-3.0809,-3.043,-3.0068,-3.0156,-3.0107,-2.9941,-3.0117,-3.0254,-1.9597,-1.9697,-2.0476,-2.1719,-2.1104,0.0,-2.3534,-2.3509,0.0,0.0,0.0,0.0,0.0,0.0,0.0,0.0,0.0,0.0,0.0,0.0,0.0,0.0,0.0,0.0,0.0,0.0,-3.296,-3.3023,-3.3495,-3.4022,-3.4512,-3.4537,-3.4537,-3.4537,-3.46,-3.4625,-3.4625,-3.4688,-3.4919,-3.5408,-3.5408,-3.5742,-3.6317,-3.6317,-3.6355,-3.6405,-3.6405,-3.631,-3.6203,-3.6203,-3.397,-3.0547,-3.0547,-3.0653,-3.0808,-3.0808,-3.111,-3.1452,-3.1353,-3.1493,-3.1743,-3.1579,-3.2351,-3.3402,-3.3908,-3.4837,-3.5769,-3.6275,-3.7157,-3.8012,-3.7939,-3.8696,-3.9509,-3.9509,-3.9509,-3.9509,-3.9342,-3.9392,-3.9094,-3.7939,-3.7097,-3.6565,-3.6402,-3.7233,-3.7566,-3.6522,-3.8043,-3.8542,-3.6468,-3.6954,-3.7126,-3.6143,-3.5859,-3.5815,-3.5815,-3.4614,-3.3853,-3.3797,-3.2856,-3.2018,-3.1383,-3.1614,-3.1488,-3.0878,-3.0361,-2.9726,-2.8916,-2.9687,-2.9863,-2.9502,-2.9883,-2.9883,-2.1305,-2.1732,-2.2105,-2.0665,-2.1365,0.0,-2.0487,-2.1016,0.0,0.0,0.0,0.0,0.0,0.0,0.0,0.0,0.0,0.0,0.0,0.0,0.0,0.0,0.0,0.0,0.0,0.0,-3.1901,-3.234,-3.2918,-3.3282,-3.3395,-3.3395,-3.3395,-3.3395,-3.3822,-3.406,-3.406,-3.45,-3.4731,-3.4843,-3.4843,-3.5119,-3.5658,-3.5658,-3.5943,-3.6405,-3.6405,-3.5918,-3.5126,-3.5126,-3.4629,-3.3883,-3.3883,-3.2846,-3.1419,-3.1419,-3.1733,-3.1985,-3.1123,-3.2201,-3.376,-3.2909,-3.396,-3.5647,-3.5754,-3.6609,-3.7504,-3.7615,-3.8138,-3.8602,-3.8091,-3.8179,-3.8329,-3.8329,-3.8329,-3.8079,-3.7248,-3.7321,-3.7451,-3.6798,-3.7944,-3.8712,-3.7725,-3.7725,-3.7832,-3.7619,-3.718,-3.6738,-3.624,-3.5608,-3.5068,-3.4858,-3.3976,-3.3378,-3.3378,-3.3105,-3.2877,-3.2638,-3.242,-3.2133,-3.173,-3.1498,-3.1166,-3.0772,-3.0091,-2.9434,-2.8916,-2.9092,-2.9131,-2.9053,-2.9131,-2.9316,-2.3037,-2.315,-2.3333,-2.251,-2.2694,0.0,0.0,0.0,0.0,0.0,0.0,0.0,0.0,0.0,0.0,0.0,0.0,0.0,0.0,0.0,0.0,0.0,0.0,0.0,0.0,0.0,-3.1499,-3.1788,-3.2064,-3.2353,-3.2629,-3.2641,-3.278,-3.3111,-3.3345,-3.3483,-3.3483,-3.3759,-3.4035,-3.4311,-3.4311,-3.46,-3.5094,-3.537,-3.5658,-3.5968,-3.6292,-3.6108,-3.5619,-3.5619,-3.5619,-3.5463,-3.4434,-3.3338,-3.2387,-3.2387,-3.2555,-3.2666,-3.2112,-3.2421,-3.2971,-3.2452,-3.3372,-3.4816,-3.5074,-3.651,-3.8002,-3.8002,-3.8216,-3.8366,-3.809,-3.8002,-3.8002,-3.8002,-3.7593,-3.7031,-3.6515,-3.6133,-3.5723,-3.4895,-3.6088,-3.7248,-3.7144,-3.6716,-3.618,-3.5599,-3.5711,-3.5441,-3.4263,-3.4109,-3.3898,-3.3309,-3.2504,-3.2054,-3.2054,-3.2054,-3.2035,-3.1958,-3.1753,-3.1507,-3.1284,-3.0856,-3.0359,-2.9813,-2.9421,-2.9033,-2.8603,-2.8603,-2.8603,-2.8613,-2.8818,-2.8926,-2.5059,-2.487,-2.4921,-2.4813,-2.4424,-2.396,0.0,0.0,0.0,-2.3866,0.0,0.0,0.0,0.0,0.0,0.0,0.0,0.0,0.0,0.0,0.0,0.0,0.0,0.0,0.0,0.0,-3.0896,-3.1223,-3.1035,-3.1248,-3.2014,-3.2152,-3.2428,-3.2893,-3.3061,-3.3124,-3.3124,-3.3124,-3.3307,-3.3746,-3.3746,-3.4035,-3.4575,-3.4981,-3.5295,-3.552,-3.6019,-3.6304,-3.6405,-3.6405,-3.6405,-3.6216,-3.4483,-3.3697,-3.3499,-3.3499,-3.3499,-3.3449,-3.3051,-3.2739,-3.2426,-3.1779,-3.2488,-3.358,-3.4036,-3.5885,-3.7826,-3.7713,-3.7764,-3.7826,-3.7713,-3.7541,-3.7381,-3.7381,-3.6563,-3.5747,-3.5532,-3.4876,-3.403,-3.3019,-3.3484,-3.4399,-3.5549,-3.5045,-3.4147,-3.323,-3.403,-3.4029,-3.2121,-3.2763,-3.2972,-3.1965,-3.1588,-3.1381,-3.1381,-3.1316,-3.135,-3.1365,-3.0984,-3.0676,-3.0485,-3.0023,-2.9508,-2.8926,-2.8838,-2.8633,-2.8291,-2.8291,-2.8291,-2.8301,-2.8643,-2.8613,-2.7808,-2.7996,0.0,0.0,-2.6189,-2.6527,0.0,0.0,-2.3364,-2.2121,0.0,0.0,0.0,0.0,0.0,0.0,0.0,0.0,0.0,0.0,0.0,0.0,0.0,0.0,0.0,0.0,0.0,-3.0595,-2.9728,-2.9867,-3.1399,-3.1951,-3.224,-3.2303,-3.2805,-3.3124,-3.3124,-3.3124,-3.3106,-3.3212,-3.3212,-3.3458,-3.3997,-3.406,-3.4625,-3.5495,-3.5558,-3.5918,-3.6405,-3.6405,-3.6405,-3.6358,-3.6108,-3.5475,-3.4629,-3.4629,-3.4629,-3.4337,-3.2426,-3.3575,-3.5355,-3.2527,-3.2978,-3.4641,-3.4701,-3.5941,-3.7174,-3.6732,-3.6897,-3.7161,-3.6719,-3.59,-3.515,-3.515,-3.4367,-3.3311,-3.2341,-3.2388,-3.2408,-3.1877,-3.1432,-3.1657,-3.3206,-3.3389,-3.323,-3.3123,-3.2404,-3.1761,-3.1508,-3.1618,-3.1608,-3.1508,-3.1412,-3.1381,-3.1381,-3.1131,-3.0866,-3.0651,-3.0278,-2.999,-2.976,-2.9274,-2.8975,-2.8916,-2.8555,-2.834,-2.8291,-2.8291,-2.8291,-2.8291,-2.834,-2.834,-2.826,0.0,0.0,0.0,0.0,0.0,-2.3514,0.0,-2.31,0.0,0.0,0.0,0.0,0.0,0.0,0.0,0.0,0.0,0.0,0.0,0.0,0.0,0.0,0.0,0.0,0.0,0.0,0.0,0.0,-2.8699,-3.0369,-3.0984,-3.1424,-3.1725,-3.2277,-3.2579,-3.2579,-3.2918,-3.3124,-3.3124,-3.3124,-3.3206,-3.3432,-3.3759,-3.4161,-3.4625,-3.5219,-3.5621,-3.5906,-3.6279,-3.6405,-3.6405,-3.6405,-3.6108,-3.5715,-3.5715,-3.5319,-3.4775,-3.4471,-3.4471,-3.4434,-3.3674,-3.408,-3.4933,-3.5523,-3.6223,-3.6707,-3.6468,-3.6127,-3.5757,-3.5524,-3.4678,-3.3895,-3.3895,-3.3039,-3.2134,-3.1677,-3.1297,-3.0925,-3.0734,-3.0454,-3.0494,-3.119,-3.1275,-3.1275,-3.1275,-3.1103,-3.1237,-3.1849,-3.1902,-3.2158,-3.2781,-3.2488,-3.2208,-3.2208,-3.1947,-3.1476,-3.0807,-2.9903,-2.9202,-2.8838,-2.8652,-2.8555,-2.8555,-2.8389,-2.8291,-2.8291,-2.8291,-2.8291,-2.8291,-2.8291,-2.8291,-2.8674,0.0,0.0,0.0,0.0,0.0,0.0,0.0,0.0,0.0,0.0,0.0,0.0,0.0,-2.2071,-2.1757,0.0,0.0,0.0,0.0,0.0,0.0,0.0,0.0,0.0,0.0,0.0,0.0,0.0,0.0,-2.944,-3.008,-3.0633,-3.116,-3.17,-3.2051,-3.2215,-3.2629,-3.2918,-3.3124,-3.3124,-3.3124,-3.3093,-3.3483,-3.3759,-3.3935,-3.4705,-3.5132,-3.532,-3.5918,-3.6132,-3.6144,-3.6011,-3.5966,-3.5966,-3.5966,-3.5271,-3.4483,-3.5271,-3.4483,-3.34,-3.4434,-3.4775,-3.4933,-3.5715,-3.6156,-3.6358,-3.6061,-3.5415,-3.4727,-3.4434,-3.3586,-3.2739,-3.2739,-3.1942,-3.1187,-3.1187,-3.0536,-2.9994,-2.9994,-2.9994,-3.0099,-3.0391,-3.0193,-3.0099,-3.0391,-3.0737,-3.1306,-3.2421,-3.2576,-3.2822,-3.3599,-3.3229,-3.2912,-3.2912,-3.2409,-3.1584,-3.0429,-2.9389,-2.8667,-2.831,-2.8291,-2.8291,-2.8291,-2.8291,-2.8291,-2.8291,-2.8291,-2.8291,-2.8291,-2.8291,-2.8291,0.0,0.0,0.0,-2.6314,0.0,0.0,0.0,0.0,-2.3803,0.0,0.0,0.0,0.0,-2.4318,-2.3565,-2.246,-2.2297,0.0,0.0,0.0,0.0,0.0,0.0,0.0,0.0,0.0,0.0,0.0,0.0,0.0,-2.875,-2.9503,-3.0068,-3.062,-3.1148,-3.1675,-3.2202,-3.2227,-3.2516,-3.3124,-3.3124,-3.3124,-3.3124,-3.3136,-3.3395,-3.3897,-3.3935,-3.4261,-3.4788,-3.5295,-3.552,-3.5478,-3.5028,-3.4824,-3.4824,-3.4824,-3.419,-3.325,-3.33,-3.325,-3.34,-3.4434,-3.4775,-3.4836,-3.4824,-3.5571,-3.6156,-3.5126,-3.4836,-3.4581,-3.3499,-3.2437,-3.1626,-3.1626,-3.0836,-3.0047,-3.0047,-3.0047,-2.9994,-2.9994,-2.9994,-3.0339,-3.1381,-3.0692,-3.0339,-3.1381,-3.1545,-3.1964,-3.3024,-3.3174,-3.3174,-3.3224,-3.3212,-3.3201,-3.3201,-3.1993,-3.0526,-2.8854,-2.8757,-2.8578,-2.8291,-2.8291,-2.8291,-2.8291,-2.8291,-2.8291,-2.8291,-2.8291,-2.8291,-2.8291,-2.8291,-2.8291,0.0,0.0,-2.9302,-2.7231,0.0,0.0,0.0,0.0,0.0,0.0,0.0,0.0,0.0,-2.4117,-2.3627,-2.2498,-2.2008,-2.1066,0.0,0.0,0.0,0.0,0.0,0.0,0.0,0.0,0.0,0.0,0.0,0.0,0.0,-2.8913,-2.949,-3.0055,-3.0595,-3.0972,-3.116,-3.1863,-3.2303,-3.2503,-3.2893,-3.3124,-3.3124,-3.3124,-3.3224,-3.337,-3.3746,-3.401,-3.4223,-3.4731,-3.5169,-3.5474,-3.531,-3.5061,-3.4727,-3.3993,-3.3039,-3.2134,-3.2134,-3.26,-3.325,-3.3648,-3.4239,-3.4775,-3.4775,-3.5571,-3.6168,-3.5126,-3.4288,-3.3487,-3.2437,-3.1341,-3.0536,-3.0536,-3.0795,-3.1032,-3.1032,-3.1648,-3.2106,-3.2106,-3.2106,-3.2246,-3.26,-3.2348,-3.2246,-3.2588,-3.2033,-3.1982,-3.3051,-3.3201,-3.3449,-3.419,-3.3449,-3.3201,-3.3944,-3.1971,-3.0349,-2.9523,-2.8814,-2.8398,-2.8291,-2.8291,-2.8291,-2.8291,-2.8291,-2.8291,-2.8291,-2.8291,-2.8291,-2.8291,-2.8291,-2.8291,-2.9792,-2.9792,0.0,-2.7708,-2.6741,0.0,-2.3572,0.0,0.0,0.0,0.0,0.0,0.0,-2.4657,-2.3766,-2.3025,-2.2108,-2.079,0.0,-1.8355,0.0,0.0,0.0,0.0,0.0,0.0,-2.1531,-2.3722,0.0,0.0,0.0,0.0,-2.89,-2.9465,-3.003,-3.0419,-3.062,-3.1298,-3.1838,-3.2215,-3.2591,-3.288,-3.3124,-3.3124,-3.3124,-3.3136,-3.3458,-3.3608,-3.3658,-3.4198,-3.4705,-3.5174,-3.5037,-3.4902,-3.4678,-3.3598,-3.2739,-3.2235,-3.2627,-3.3426,-3.4337,-3.4337,-3.4836,-3.5367,-3.5367,-3.5858,-3.6168,-3.5126,-3.4288,-3.3537,-3.2437,-3.1648,-3.1146,-3.1146,-3.1648,-3.2185,-3.2185,-3.27,-3.3201,-3.3201,-3.2901,-3.2889,-3.3648,-3.3151,-3.2901,-3.3648,-3.2839,-3.2538,-3.3648,-3.3449,-3.3449,-3.4141,-3.3449,-3.3201,-3.3796,-3.2627,-3.1553,-3.0835,-3.0026,-2.9418,-2.9059,-2.89,-2.8698,-2.8291,-2.8291,-2.8291,-2.8291,-2.8291,-2.8291,-2.8291,-2.8291,-2.8291]},{"header":{"parameterUnit":"m.s-1","parameterCategory":1,"la1":30.6,"la2":29.2853,"lo1":-89.7004,"lo2":-87.6739,"dy":0.0162,"dx":0.0183,"nx":112,"ny":82,"refTime":"2024-06-21T06:00:00:Z","depth":0,"parameterNumber":3,"parameterNumberName":"V-component_of_WINDS"},"data":[0.0,0.0,0.0,0.0,0.0,0.0,0.0,0.0,0.0,0.0,0.0,0.0,0.0,0.0,0.0,0.0,0.0,0.0,0.0,0.0,0.0,0.0,0.0,0.0,0.0,0.0,0.0,0.0,0.0,0.0,0.0,0.0,0.0,0.0,0.0,0.0,0.0,0.0,0.0,0.0,0.0,0.0,0.0,0.0,0.0,0.0,0.0,0.0,0.0,0.0,0.0,0.0,0.0,0.0,0.0,0.0,0.0,0.0,0.0,0.0,0.0,0.0,0.0,0.0,0.0,0.0,0.0,0.0,0.0,0.0,0.0,0.0,0.0,0.0,0.0,0.0,0.0,0.0,0.0,0.0,0.0,0.0,0.0,0.0,0.0,0.0,0.0,0.0,0.0,0.0,-3.2675,-3.7242,-4.0172,-4.0924,-3.875,-3.9204,-3.7308,-3.1831,0.0,0.0,0.0,0.0,0.0,0.0,0.0,0.0,0.0,0.0,0.0,0.0,0.0,0.0,0.0,0.0,0.0,0.0,0.0,0.0,0.0,0.0,0.0,0.0,0.0,0.0,0.0,0.0,0.0,0.0,0.0,0.0,0.0,0.0,0.0,0.0,0.0,0.0,0.0,0.0,0.0,0.0,0.0,0.0,0.0,0.0,0.0,0.0,0.0,0.0,0.0,0.0,0.0,0.0,0.0,0.0,0.0,0.0,0.0,0.0,0.0,0.0,0.0,0.0,0.0,0.0,0.0,0.0,0.0,0.0,0.0,0.0,0.0,0.0,0.0,0.0,0.0,0.0,0.0,0.0,0.0,0.0,0.0,0.0,0.0,0.0,0.0,0.0,0.0,0.0,0.0,0.0,0.0,0.0,0.0,0.0,0.0,0.0,0.0,0.0,0.0,0.0,0.0,0.0,-3.2587,-3.8485,-4.1624,-4.2187,-3.9472,-4.0356,-3.8351,-3.1911,0.0,0.0,0.0,0.0,0.0,0.0,0.0,0.0,0.0,0.0,0.0,0.0,0.0,0.0,0.0,0.0,0.0,0.0,0.0,0.0,0.0,0.0,0.0,0.0,0.0,0.0,0.0,0.0,0.0,0.0,0.0,0.0,0.0,0.0,0.0,0.0,0.0,0.0,0.0,0.0,0.0,0.0,0.0,0.0,0.0,0.0,0.0,0.0,0.0,0.0,0.0,0.0,0.0,0.0,0.0,0.0,0.0,0.0,0.0,0.0,0.0,0.0,0.0,0.0,0.0,0.0,0.0,0.0,0.0,0.0,0.0,0.0,0.0,0.0,0.0,0.0,0.0,0.0,0.0,0.0,0.0,0.0,0.0,0.0,0.0,0.0,0.0,0.0,0.0,0.0,0.0,0.0,0.0,0.0,0.0,0.0,0.0,0.0,0.0,0.0,0.0,0.0,0.0,-3.228,-3.5056,-3.9482,-4.1462,-4.178,-4.0076,-4.0507,-3.8423,-3.2743,-3.073,0.0,0.0,0.0,0.0,0.0,0.0,0.0,0.0,0.0,0.0,0.0,0.0,0.0,0.0,0.0,0.0,0.0,0.0,0.0,0.0,0.0,0.0,0.0,0.0,0.0,0.0,0.0,0.0,0.0,0.0,0.0,0.0,0.0,0.0,0.0,0.0,0.0,0.0,0.0,0.0,0.0,0.0,0.0,0.0,0.0,0.0,0.0,0.0,0.0,0.0,0.0,0.0,0.0,0.0,0.0,0.0,0.0,0.0,0.0,0.0,0.0,0.0,0.0,0.0,0.0,0.0,0.0,0.0,0.0,0.0,0.0,0.0,0.0,0.0,0.0,0.0,0.0,0.0,0.0,0.0,0.0,0.0,0.0,0.0,0.0,0.0,0.0,0.0,0.0,0.0,0.0,0.0,0.0,0.0,0.0,0.0,0.0,0.0,0.0,0.0,0.0,0.0,-3.5754,-3.7962,-4.0375,-4.1143,-4.1257,-4.0691,-3.9995,-3.7687,-3.3153,-3.0669,0.0,0.0,0.0,0.0,0.0,0.0,0.0,0.0,0.0,0.0,0.0,0.0,0.0,0.0,0.0,0.0,0.0,0.0,0.0,0.0,0.0,0.0,0.0,0.0,0.0,0.0,0.0,0.0,0.0,0.0,0.0,0.0,0.0,0.0,0.0,0.0,0.0,0.0,0.0,0.0,0.0,0.0,0.0,0.0,0.0,0.0,0.0,0.0,0.0,0.0,0.0,0.0,0.0,0.0,0.0,0.0,0.0,0.0,0.0,0.0,0.0,0.0,0.0,0.0,0.0,0.0,0.0,0.0,0.0,0.0,0.0,0.0,0.0,0.0,0.0,0.0,0.0,0.0,0.0,0.0,0.0,0.0,0.0,0.0,0.0,0.0,0.0,0.0,0.0,0.0,0.0,0.0,0.0,0.0,0.0,0.0,0.0,0.0,0.0,0.0,0.0,0.0,-3.7069,-4.0415,-4.1224,-4.1373,-4.139,-4.1324,-3.8861,-3.5852,-3.2394,-2.9227,0.0,0.0,0.0,0.0,0.0,0.0,0.0,0.0,0.0,0.0,0.0,0.0,0.0,0.0,0.0,0.0,0.0,0.0,0.0,0.0,0.0,0.0,0.0,0.0,0.0,0.0,0.0,0.0,0.0,0.0,0.0,0.0,0.0,0.0,0.0,0.0,0.0,0.0,0.0,0.0,0.0,0.0,0.0,0.0,0.0,0.0,0.0,0.0,0.0,0.0,0.0,0.0,0.0,0.0,0.0,0.0,0.0,0.0,0.0,0.0,0.0,0.0,0.0,0.0,0.0,0.0,0.0,0.0,0.0,0.0,0.0,0.0,0.0,0.0,0.0,0.0,0.0,0.0,0.0,0.0,0.0,0.0,0.0,0.0,0.0,0.0,0.0,0.0,0.0,0.0,0.0,0.0,0.0,0.0,0.0,0.0,0.0,0.0,0.0,0.0,0.0,0.0,-3.5284,-3.846,-4.0547,-4.0763,-4.0763,-4.0763,-3.9355,-3.6754,-3.2724,0.0,0.0,0.0,0.0,0.0,0.0,0.0,0.0,0.0,0.0,0.0,0.0,0.0,0.0,0.0,0.0,0.0,0.0,0.0,0.0,0.0,0.0,0.0,0.0,0.0,0.0,0.0,0.0,0.0,0.0,0.0,0.0,0.0,0.0,0.0,0.0,0.0,0.0,0.0,0.0,0.0,0.0,0.0,0.0,0.0,0.0,0.0,0.0,0.0,0.0,0.0,0.0,0.0,0.0,0.0,0.0,0.0,0.0,0.0,0.0,0.0,0.0,0.0,0.0,0.0,0.0,0.0,0.0,0.0,0.0,0.0,0.0,0.0,0.0,0.0,0.0,0.0,0.0,0.0,0.0,0.0,0.0,0.0,0.0,0.0,0.0,0.0,0.0,0.0,0.0,0.0,0.0,0.0,0.0,0.0,0.0,0.0,0.0,0.0,0.0,0.0,0.0,-3.1465,-3.4898,-3.7897,0.0,-4.0194,-4.016,-4.0393,-3.8868,-3.6315,-3.258,0.0,0.0,0.0,0.0,0.0,0.0,0.0,0.0,0.0,0.0,0.0,0.0,0.0,0.0,0.0,0.0,0.0,0.0,0.0,0.0,0.0,0.0,0.0,0.0,0.0,0.0,0.0,0.0,0.0,0.0,0.0,0.0,0.0,0.0,0.0,0.0,0.0,0.0,0.0,0.0,0.0,0.0,0.0,0.0,0.0,0.0,0.0,0.0,0.0,0.0,0.0,0.0,0.0,0.0,0.0,0.0,0.0,0.0,0.0,0.0,0.0,0.0,0.0,0.0,0.0,0.0,0.0,0.0,0.0,0.0,0.0,0.0,0.0,0.0,0.0,0.0,0.0,0.0,0.0,0.0,0.0,0.0,0.0,0.0,0.0,0.0,0.0,0.0,0.0,0.0,0.0,0.0,0.0,0.0,0.0,0.0,0.0,0.0,0.0,0.0,0.0,0.0,-3.2431,-3.6564,-3.958,-4.031,-3.9746,-3.9597,-4.0326,-3.7019,-3.3972,0.0,0.0,0.0,0.0,0.0,0.0,0.0,0.0,0.0,0.0,0.0,0.0,0.0,0.0,0.0,0.0,0.0,0.0,0.0,0.0,0.0,0.0,0.0,0.0,0.0,0.0,0.0,0.0,0.0,0.0,0.0,0.0,0.0,0.0,0.0,0.0,0.0,0.0,0.0,0.0,0.0,0.0,0.0,0.0,0.0,0.0,0.0,0.0,0.0,0.0,0.0,0.0,0.0,0.0,0.0,0.0,0.0,0.0,0.0,0.0,0.0,0.0,0.0,0.0,0.0,0.0,0.0,0.0,0.0,0.0,0.0,0.0,0.0,0.0,0.0,0.0,0.0,0.0,0.0,0.0,0.0,0.0,0.0,0.0,0.0,0.0,0.0,0.0,0.0,0.0,0.0,0.0,0.0,0.0,0.0,0.0,0.0,0.0,0.0,0.0,0.0,0.0,0.0,-3.2076,-3.6389,-3.9381,-3.9597,-3.9431,-3.9398,-3.9613,-3.7665,-3.5065,-3.1813,0.0,0.0,0.0,0.0,0.0,0.0,0.0,0.0,0.0,0.0,0.0,0.0,0.0,0.0,0.0,0.0,0.0,0.0,0.0,0.0,0.0,0.0,0.0,0.0,0.0,0.0,0.0,0.0,0.0,0.0,0.0,0.0,0.0,0.0,0.0,0.0,0.0,0.0,0.0,0.0,0.0,0.0,0.0,0.0,0.0,0.0,0.0,0.0,0.0,0.0,0.0,0.0,0.0,0.0,0.0,0.0,0.0,0.0,0.0,0.0,0.0,0.0,0.0,0.0,0.0,0.0,0.0,0.0,0.0,0.0,0.0,0.0,0.0,0.0,0.0,0.0,0.0,0.0,0.0,0.0,0.0,0.0,0.0,0.0,0.0,0.0,0.0,0.0,0.0,0.0,0.0,0.0,0.0,0.0,0.0,0.0,0.0,0.0,0.0,0.0,0.0,0.0,-3.2144,-3.6414,-3.9299,-3.9299,-3.9299,-3.9299,-3.9299,-3.8212,-3.5976,-3.226,0.0,0.0,0.0,0.0,0.0,0.0,0.0,0.0,0.0,0.0,0.0,0.0,0.0,0.0,0.0,0.0,0.0,0.0,0.0,0.0,0.0,0.0,0.0,0.0,0.0,0.0,0.0,0.0,0.0,0.0,0.0,0.0,0.0,0.0,0.0,0.0,0.0,0.0,0.0,0.0,0.0,0.0,0.0,0.0,0.0,0.0,0.0,0.0,0.0,0.0,0.0,0.0,0.0,0.0,0.0,0.0,0.0,0.0,0.0,0.0,0.0,0.0,0.0,0.0,0.0,0.0,0.0,0.0,0.0,0.0,0.0,0.0,0.0,0.0,0.0,0.0,0.0,0.0,0.0,0.0,0.0,0.0,0.0,0.0,0.0,0.0,0.0,0.0,0.0,0.0,0.0,0.0,0.0,0.0,0.0,0.0,0.0,0.0,0.0,0.0,0.0,0.0,-3.2475,-3.6564,-3.9299,-3.9299,-3.9299,-3.9299,-3.9299,-3.8626,-3.6671,-3.3033,0.0,0.0,0.0,0.0,0.0,0.0,0.0,0.0,0.0,0.0,0.0,0.0,0.0,0.0,0.0,0.0,0.0,0.0,0.0,0.0,0.0,0.0,0.0,0.0,0.0,0.0,0.0,0.0,0.0,0.0,0.0,0.0,0.0,0.0,0.0,0.0,0.0,0.0,0.0,0.0,0.0,0.0,0.0,0.0,0.0,0.0,0.0,0.0,0.0,0.0,0.0,0.0,0.0,0.0,0.0,0.0,0.0,0.0,0.0,0.0,-2.8852,0.0,0.0,0.0,0.0,0.0,0.0,0.0,0.0,0.0,0.0,0.0,0.0,0.0,0.0,0.0,0.0,0.0,0.0,0.0,0.0,0.0,0.0,0.0,0.0,0.0,0.0,0.0,0.0,0.0,0.0,0.0,0.0,0.0,0.0,0.0,0.0,0.0,0.0,0.0,0.0,0.0,-3.2497,-3.6564,-3.9299,-3.9299,-3.9299,-3.9299,-3.9299,-3.8626,-3.6887,-3.3756,-3.2012,0.0,0.0,0.0,0.0,0.0,0.0,0.0,0.0,0.0,0.0,0.0,0.0,0.0,0.0,0.0,0.0,0.0,0.0,0.0,0.0,0.0,0.0,0.0,0.0,0.0,0.0,0.0,0.0,0.0,0.0,0.0,0.0,0.0,0.0,0.0,0.0,0.0,0.0,0.0,0.0,0.0,0.0,0.0,0.0,0.0,0.0,0.0,0.0,0.0,0.0,0.0,0.0,0.0,0.0,0.0,0.0,0.0,0.0,0.0,0.0,-3.1663,0.0,0.0,0.0,0.0,0.0,0.0,0.0,0.0,0.0,0.0,0.0,0.0,0.0,0.0,0.0,0.0,0.0,0.0,0.0,0.0,0.0,0.0,0.0,0.0,0.0,0.0,0.0,0.0,0.0,0.0,0.0,0.0,0.0,0.0,0.0,0.0,0.0,0.0,0.0,0.0,-3.3508,-3.7326,-3.9829,-3.9829,-3.9829,-3.9696,-3.9332,-3.8941,-3.7765,-3.5528,-3.3673,0.0,0.0,0.0,0.0,0.0,0.0,0.0,0.0,0.0,0.0,0.0,0.0,0.0,0.0,0.0,0.0,0.0,0.0,0.0,0.0,0.0,0.0,0.0,0.0,0.0,0.0,0.0,0.0,0.0,0.0,0.0,0.0,0.0,0.0,0.0,0.0,0.0,0.0,0.0,0.0,0.0,0.0,0.0,0.0,0.0,0.0,0.0,0.0,0.0,0.0,0.0,0.0,0.0,-3.8043,-3.9015,-3.9937,-4.029,-4.1087,-4.1979,-3.8203,-3.6657,-3.6636,0.0,0.0,0.0,0.0,0.0,0.0,0.0,0.0,0.0,0.0,0.0,0.0,0.0,0.0,0.0,0.0,0.0,0.0,0.0,0.0,0.0,0.0,0.0,0.0,0.0,-3.7597,-3.6953,0.0,0.0,0.0,0.0,0.0,0.0,0.0,0.0,0.0,0.0,0.0,0.0,-3.4982,-3.8288,-4.0409,-4.0409,-4.0409,-4.0111,-3.9365,-3.9299,-3.8735,-3.7384,-3.5462,-3.3707,0.0,0.0,0.0,0.0,0.0,0.0,0.0,0.0,0.0,0.0,0.0,0.0,0.0,0.0,0.0,0.0,0.0,0.0,0.0,0.0,0.0,0.0,0.0,0.0,0.0,0.0,0.0,0.0,0.0,0.0,0.0,0.0,-2.5165,-2.5334,0.0,0.0,0.0,0.0,0.0,0.0,0.0,0.0,0.0,0.0,0.0,0.0,0.0,-3.6816,-3.8727,-4.0637,-4.1688,-4.191,-4.4554,-4.5481,-4.4911,-4.5843,-4.6252,-4.6131,-4.5996,0.0,-4.0426,-3.8193,0.0,0.0,0.0,0.0,0.0,0.0,0.0,0.0,0.0,0.0,0.0,0.0,0.0,0.0,0.0,0.0,0.0,0.0,0.0,0.0,0.0,0.0,-4.058,-4.068,-4.079,-4.0695,0.0,-3.5562,-3.1782,-3.1885,-3.0365,0.0,0.0,0.0,0.0,0.0,0.0,0.0,-3.6439,-3.8907,-4.0409,-4.0409,-4.0409,-4.0111,-3.9365,-3.9299,-3.895,-3.8129,-3.7185,-3.6009,-3.4535,-3.2161,0.0,0.0,0.0,0.0,0.0,0.0,0.0,0.0,0.0,0.0,0.0,0.0,0.0,0.0,0.0,0.0,0.0,0.0,0.0,0.0,0.0,0.0,0.0,0.0,0.0,0.0,0.0,0.0,0.0,-2.4618,-2.6727,-2.7288,-2.7296,-2.6902,0.0,0.0,0.0,0.0,0.0,0.0,0.0,0.0,0.0,-3.9065,-4.0182,-4.1526,-4.3158,-4.4465,-4.5323,-4.5757,-4.7036,-4.7642,-4.7621,-4.8207,-4.8388,-4.8267,-4.8493,-4.7355,-4.5142,-4.2619,-4.0105,-3.7664,0.0,0.0,0.0,0.0,-3.5923,-3.646,-3.8497,-3.8974,0.0,0.0,0.0,0.0,0.0,0.0,0.0,0.0,0.0,0.0,0.0,0.0,0.0,-4.3164,-4.3578,-4.3876,-4.3876,-4.1069,-3.8018,0.0,-3.4684,-3.2845,-3.0063,0.0,0.0,0.0,0.0,-3.5943,-3.8046,-4.0233,-4.1591,-4.1591,-4.121,-4.0663,-3.9978,-3.9547,-3.9166,-3.8825,-3.8129,-3.7433,-3.6787,-3.4634,-3.2431,0.0,0.0,0.0,0.0,0.0,0.0,0.0,0.0,0.0,0.0,0.0,0.0,0.0,0.0,0.0,0.0,0.0,0.0,0.0,0.0,0.0,0.0,0.0,0.0,0.0,0.0,0.0,0.0,-2.6865,-2.9042,-2.9692,-3.0544,-3.0569,0.0,0.0,0.0,0.0,0.0,0.0,-3.8046,-3.9248,-4.1039,-4.3622,-4.45,-4.5576,-4.6892,-4.7443,-4.8074,-4.8819,-4.8819,-4.9094,-4.958,-4.9726,-4.9778,-4.9778,-4.985,-4.9515,-4.8791,-4.616,-4.3793,-4.1682,-4.0725,-3.9977,-3.9596,-4.0915,-4.1223,-4.1363,-4.3951,-4.4431,-4.3694,-4.2452,0.0,-3.9841,-3.6828,0.0,0.0,0.0,0.0,-4.1055,-4.2651,-4.3628,-4.4307,-4.4837,-4.5384,-4.5798,-4.5798,-4.4937,-4.3234,0.0,-3.8709,-3.6837,-3.3359,0.0,0.0,0.0,0.0,-3.8261,-3.9901,-4.1508,-4.2489,-4.2489,-4.1827,-4.1127,-4.0475,-3.973,-3.9299,-3.9299,-3.8775,-3.8477,-3.8477,-3.6721,-3.47,-3.2492,0.0,0.0,0.0,0.0,0.0,0.0,0.0,0.0,0.0,0.0,0.0,0.0,0.0,0.0,0.0,0.0,0.0,0.0,0.0,0.0,0.0,0.0,0.0,0.0,0.0,0.0,0.0,0.0,0.0,-3.3278,-3.5454,0.0,0.0,0.0,0.0,-3.566,-3.8814,-4.0927,-4.1533,-4.4005,-4.5772,-4.6649,-4.7408,-4.8476,-4.9872,-4.992,-5.0309,-5.1021,-5.1021,-5.1054,-5.107,-5.1107,-5.1107,-5.1124,-5.1311,-5.0994,-5.0147,-4.8104,-4.6798,-4.5963,-4.4772,-4.4578,-4.4948,-4.4545,-4.4772,-4.5316,-4.5636,-4.5251,-4.4854,-4.6146,-4.5135,-4.335,-4.3122,-4.2142,0.0,0.0,-4.3284,-4.444,-4.4556,-4.5135,-4.5698,-4.5732,-4.5765,-4.5798,-4.5798,-4.5732,-4.5218,0.0,-4.1657,-3.9945,-3.9017,0.0,-3.8146,-3.8768,-3.905,-3.9962,-4.2088,-4.2423,-4.2489,-4.2489,-4.1827,-4.1127,-4.0475,-3.973,-3.9299,-3.9299,-3.9265,-3.9249,-3.9249,-3.846,-3.7003,-3.4783,-3.1851,0.0,0.0,0.0,0.0,0.0,0.0,0.0,0.0,0.0,0.0,0.0,0.0,0.0,0.0,0.0,0.0,0.0,0.0,0.0,0.0,0.0,0.0,0.0,0.0,0.0,0.0,0.0,0.0,-3.7038,-3.8843,0.0,-3.8623,-3.937,-4.0349,-4.1381,-4.3468,-4.5179,-4.6254,-4.7561,-4.8521,-4.9131,-4.9859,-5.042,-5.0795,-5.0795,-5.0924,-5.1183,-5.1183,-5.1183,-5.1183,-5.1183,-5.1183,-5.1221,-5.1424,-5.1352,-5.1059,-5.0494,-4.962,-4.8607,-4.8176,-4.8195,-4.848,-4.8263,-4.8347,-4.858,-4.8614,-4.8465,-4.8166,-4.7752,-4.6758,-4.5649,-4.5168,-4.4655,-4.439,-4.5135,-4.5715,-4.6228,-4.6692,-4.7023,-4.7222,-4.7222,-4.7222,-4.7222,-4.7222,-4.6841,-4.6344,-4.5831,-4.3976,-4.2088,-4.0862,-4.0431,-4.005,-3.9398,-4.0464,-4.164,-4.239,-4.2903,-4.3201,-4.3201,-4.2109,-4.1309,-4.1061,-3.9978,-3.9299,-3.9299,-3.8841,-3.8593,-3.8593,-3.7897,-3.6671,-3.4932,-3.2928,-3.0493,0.0,0.0,0.0,0.0,0.0,0.0,0.0,0.0,0.0,0.0,0.0,0.0,0.0,0.0,0.0,0.0,0.0,0.0,0.0,0.0,0.0,0.0,0.0,0.0,0.0,0.0,-3.8861,-4.0017,-4.203,-4.3133,-4.2657,-4.3884,-4.5063,-4.5908,-4.7325,-4.8511,-4.9311,-4.9979,-5.0442,-5.066,-5.1201,-5.1424,-5.1296,-5.1221,-5.1258,-5.1408,-5.1258,-5.1221,-5.1312,-5.1221,-5.1221,-5.1312,-5.1424,-5.1536,-5.161,-5.1831,-5.1402,-5.0636,-5.0636,-5.0758,-5.0949,-5.0949,-5.0783,-5.0535,-5.0303,-5.022,-5.0055,-4.9061,-4.8415,-4.7885,-4.7139,-4.6908,-4.6957,-4.7206,-4.7272,-4.7388,-4.7868,-4.8001,-4.8001,-4.8001,-4.8001,-4.8001,-4.8001,-4.762,-4.7272,-4.7272,-4.5698,-4.4042,-4.3065,-4.2684,-4.2204,-4.1271,-4.2121,-4.287,-4.287,-4.33,-4.3598,-4.3598,-4.2489,-4.1662,-4.1425,-4.0332,-3.9564,-3.9315,-3.8825,-3.846,-3.8202,-3.75,-3.6522,-3.5297,-3.3574,-3.1641,-2.9506,0.0,0.0,0.0,0.0,0.0,0.0,0.0,0.0,0.0,0.0,0.0,0.0,0.0,0.0,0.0,0.0,0.0,0.0,0.0,0.0,0.0,0.0,0.0,-3.5478,-3.8447,-4.1128,-4.2269,-4.5128,-4.6677,-4.5839,-4.7836,-4.9059,-4.8874,-5.0225,-5.0873,-5.048,-5.1312,-5.1631,-5.1221,-5.1441,-5.1548,-5.1531,-5.1361,-5.1473,-5.1843,-5.1473,-5.1361,-5.1548,-5.1328,-5.1328,-5.1499,-5.1499,-5.161,-5.1815,-5.203,-5.2102,-5.2102,-5.2102,-5.2247,-5.2409,-5.2409,-5.1962,-5.1249,-5.0518,-5.0286,-5.027,-5.0253,-5.0237,-5.0104,-4.9375,-4.9144,-4.8995,-4.8266,-4.8067,-4.8067,-4.8067,-4.805,-4.8034,-4.8034,-4.8017,-4.8001,-4.8001,-4.8001,-4.8001,-4.8001,-4.6841,-4.5847,-4.5831,-4.5202,-4.4721,-4.4721,-4.4125,0.0,-4.3631,-4.3615,-4.3598,-4.3598,-4.2936,-4.2208,-4.1508,-4.0796,-4.0111,-3.9381,-3.9299,-3.8941,-3.8219,-3.75,-3.6771,-3.6059,-3.3872,-3.2442,-3.1755,0.0,0.0,0.0,0.0,0.0,0.0,0.0,0.0,0.0,0.0,0.0,0.0,0.0,0.0,0.0,0.0,0.0,0.0,0.0,0.0,0.0,-3.6389,-3.9295,-3.9076,-4.2566,-4.548,-4.6289,-4.8101,-4.9193,-4.8944,-4.9885,-5.0511,-5.0598,-5.1333,-5.1753,-5.1645,-5.2023,-5.1977,-5.1424,-5.2265,-5.2581,-5.2297,-5.2709,-5.3052,-5.3318,-5.2915,-5.2578,-5.2297,-5.2059,-5.1691,-5.1296,-5.1424,-5.1536,-5.161,-5.1794,-5.1977,-5.2102,-5.2283,-5.2338,-5.2409,-5.2409,-5.2293,-5.2078,-5.186,-5.1794,-5.1694,-5.1164,-5.0982,-5.085,-5.0137,-4.9906,-4.9872,-4.9657,-4.9607,-4.9607,-4.9607,-4.921,-4.8812,-4.8812,-4.8398,-4.8001,-4.8001,-4.8001,-4.8001,-4.8001,-4.7669,-4.7222,-4.6692,-4.598,-4.5483,-4.5483,-4.4854,0.0,-4.439,-4.3943,-4.3598,-4.3598,-4.2936,-4.2406,-4.2208,-4.1094,-4.031,-4.0111,-3.909,-3.8411,-3.8228,-3.75,-3.7003,-3.6804,-3.5148,-3.3945,0.0,0.0,0.0,0.0,0.0,0.0,0.0,0.0,0.0,0.0,0.0,0.0,0.0,0.0,0.0,0.0,0.0,0.0,0.0,0.0,0.0,0.0,-4.0212,-4.3279,-4.359,-4.5776,-4.7752,-4.8812,-4.9955,-5.0783,-5.1098,-5.139,-5.1638,-5.1744,-5.2035,-5.229,-5.2498,-5.2696,-5.2699,-5.2378,-5.3184,-5.3489,-5.3166,-5.3443,-5.3793,-5.4135,-5.3577,-5.3266,-5.3128,-5.2789,-5.2562,0.0,-5.2378,-5.2269,-5.2104,-5.2257,-5.2203,0.0,0.0,0.0,0.0,0.0,-5.2409,-5.2409,-5.2409,-5.2409,-5.2307,-5.1912,-5.1779,-5.163,-5.0866,-5.0651,-5.0601,-5.0303,-5.022,-5.022,-5.022,-4.9889,-4.9574,-4.9574,-4.9011,-4.8465,-4.8465,-4.8216,-4.8001,-4.8001,-4.8001,0.0,-4.7438,-4.6742,-4.6245,-4.6245,-4.5616,-4.5036,-4.4721,-4.4324,-4.3959,-4.3631,-4.3218,-4.2837,-4.2522,-4.1756,0.0,0.0,0.0,-3.8709,-3.7798,-3.7334,0.0,0.0,0.0,0.0,0.0,0.0,0.0,0.0,-3.5495,-3.5374,0.0,0.0,0.0,0.0,0.0,0.0,0.0,0.0,0.0,0.0,0.0,0.0,0.0,0.0,0.0,0.0,-4.3848,-4.7208,-4.8133,-4.8249,-4.8745,-5.0171,-5.0966,-5.1696,-5.2359,-5.2373,-5.239,-5.2409,-5.2456,-5.2682,-5.3111,0.0,0.0,0.0,0.0,-5.4272,-5.406,-5.395,-5.4191,-5.47,-5.3977,-5.3734,-5.4022,-5.3613,-5.362,-5.3869,-5.3677,-5.3373,-5.299,-5.3161,-5.2717,-5.2003,-5.2083,-5.2247,-5.2409,-5.2409,-5.2409,-5.2409,-5.2409,0.0,0.0,-5.2409,-5.2409,-5.2293,-5.163,-5.1431,-5.1299,-5.0634,-5.0469,-5.0469,-5.0469,-5.0402,-5.0336,-5.0336,-4.9773,-4.9226,-4.9226,-4.8647,-4.8117,-4.8117,-4.8067,-4.8001,-4.8001,-4.7454,-4.7023,-4.7023,-4.6394,-4.5682,-4.5019,-4.4901,-4.4539,-4.378,0.0,0.0,-4.2688,-4.2539,-4.1972,-4.0724,-4.0575,-3.962,-3.7682,-3.7582,-3.7582,-3.7582,-3.8858,-3.9862,-4.0525,-4.1272,-4.1743,-4.1793,-3.7078,-3.6816,0.0,0.0,0.0,0.0,0.0,0.0,0.0,0.0,0.0,0.0,0.0,0.0,0.0,0.0,0.0,-4.2277,-4.5003,-4.7464,-4.9489,-4.9681,-4.9981,-5.0962,-5.1763,-5.226,-5.2409,-5.223,-5.2247,-5.239,-5.2812,-5.3082,-5.3177,-5.3869,0.0,-5.3853,-5.4825,-5.5236,-5.5046,-5.5583,-5.5934,-5.6051,0.0,0.0,-5.4776,-5.4519,-5.417,-5.3655,-5.3616,-5.3535,-5.3481,-5.3846,-5.3626,-5.3043,-5.2534,-5.239,-5.2409,-5.2409,-5.2409,-5.2409,-5.2409,-5.2409,-5.2409,-5.2409,-5.2409,-5.2393,-5.2243,-5.221,0.0,-5.1993,-5.1959,-5.1959,-5.1959,-5.1512,-5.11,-5.11,-5.0518,-5.0005,-5.0005,-4.9425,-4.8895,-4.8895,-4.8415,-4.8001,-4.8001,-4.7885,-4.7785,-4.7785,-4.7156,-4.6626,-4.6493,-4.5947,-4.5284,-4.4556,-4.4473,-4.4191,-4.3449,-4.2837,-4.2373,-4.2121,-4.1541,-4.1028,-4.0597,-4.058,-4.058,-4.058,-4.0862,-4.1061,-4.121,-4.1387,-4.2067,-4.3194,-4.1271,-4.1144,0.0,0.0,0.0,0.0,0.0,0.0,0.0,0.0,0.0,0.0,0.0,-3.3337,-3.5701,0.0,-4.1868,-4.4708,-4.6969,-4.8904,-5.0514,-5.0638,-5.075,-5.1243,-5.1962,-5.2409,-5.2409,-5.2318,-5.2415,-5.287,-5.3162,-5.3601,-5.4344,-5.48,-5.5088,-5.5166,-5.5798,-5.6035,-5.5842,-5.6204,-5.6463,-5.6541,-5.6126,-5.585,-5.5686,-5.5387,-5.5112,-5.4848,-5.4731,-5.4558,-5.4316,-5.4229,-5.3878,-5.3384,-5.3036,-5.2688,-5.2409,-5.2409,-5.2409,-5.2409,-5.2409,-5.2409,-5.2409,-5.2409,-5.2409,-5.2409,-5.2409,-5.2409,-5.2409,-5.2409,-5.2409,-5.2409,-5.2409,-5.2144,-5.1862,-5.1862,-5.128,-5.075,-5.075,-5.0171,-4.9657,-4.9657,-4.9061,-4.8547,-4.8547,-4.8249,-4.8001,-4.8001,-4.7686,-4.7322,-4.6941,-4.6576,-4.6063,-4.5317,-4.4903,-4.4539,-4.4191,-4.3118,-4.2489,-4.2489,-4.1794,-4.1409,-4.1409,-4.1409,-4.1409,-4.1409,-4.1744,-4.2125,-4.2489,-4.2883,-4.3628,-4.4688,-4.4125,-4.4106,0.0,0.0,0.0,0.0,0.0,0.0,0.0,0.0,-3.1468,-3.3845,-3.5317,-3.712,-4.0076,-4.2218,-4.4264,-4.6594,-4.8375,-4.9934,-5.1111,-5.0895,-5.0854,-5.144,-5.1902,-5.2214,-5.2373,-5.2409,-5.2672,-5.3367,-5.3549,-5.4175,-5.5516,-5.5752,-5.6024,-5.643,-5.6619,-5.6603,-5.6463,-5.6463,-5.6541,-5.6658,-5.6205,-5.6126,-5.6385,-5.6006,-5.5983,-5.6165,-5.5943,-5.5679,-5.5292,-5.4667,-5.4175,-5.3831,-5.3682,-5.3202,-5.2556,-5.2459,-5.2409,-5.2409,-5.2409,-5.2409,-5.2409,-5.2409,-5.2409,-5.2409,-5.2409,-5.2409,-5.2409,-5.2409,-5.2409,-5.2409,-5.2409,-5.2409,-5.2409,-5.2409,-5.1962,-5.1531,-5.1531,-5.0916,-5.0419,-5.0419,-4.9823,-4.9276,-4.9127,-4.8614,-4.8166,-4.8017,-4.8001,-4.7785,-4.7189,-4.7106,-4.6825,-4.6079,-4.5467,-4.5003,-4.4705,-4.3611,-4.2883,-4.2704,-4.2142,-4.1839,-4.1839,-4.1839,-4.1877,-4.2054,-4.2634,-4.3297,-4.4012,-4.4622,-4.5284,-4.6013,-4.6013,-4.609,-2.53,-2.6288,-2.7934,-3.0345,-3.0539,-3.1376,0.0,0.0,-3.6909,-3.8387,-3.9718,-4.0908,-4.1972,-4.3373,-4.5056,-4.7174,-4.7645,-4.8576,-5.0833,-4.9829,-4.9726,-5.2026,-5.1659,-5.1545,-5.2338,-5.2409,-5.2672,-5.3367,-5.403,-5.4721,-5.5549,-5.6216,-5.6597,-5.6641,-5.668,-5.668,-5.6658,-5.6658,-5.658,-5.6424,-5.6541,-5.6541,-5.6385,-5.6165,-5.6165,-5.6346,-5.6165,-5.6234,-5.6437,-5.554,-5.5248,-5.5267,-5.4605,-5.3947,-5.3218,-5.2605,-5.2409,-5.2409,-5.2409,-5.2409,-5.2409,-5.2409,-5.2409,-5.2409,-5.2409,-5.2409,-5.2409,-5.2409,-5.2409,-5.2409,-5.2409,-5.2409,-5.2409,-5.2409,-5.2359,-5.2293,-5.2293,-5.1713,-5.1199,-5.1199,-5.0585,-4.9889,-4.9226,-4.9044,-4.8763,-4.81,-4.8001,-4.7968,-4.7885,-4.7885,-4.7587,-4.6858,-4.6692,-4.6113,-4.4804,-4.4539,-4.4175,-4.3515,-4.34,-4.335,-4.335,-4.335,-4.3678,-4.4307,-4.4406,-4.4821,-4.5549,-4.5632,-4.6046,-4.6775,-4.6775,-4.6887,-2.9684,-3.0597,-3.1569,-3.3844,-3.4756,-3.5669,-3.7883,-3.8802,-3.9436,-4.0381,-4.128,-4.2251,-4.3334,-4.4298,-4.5515,0.0,-4.7896,-4.8643,-5.0142,-4.9358,-4.9218,-5.0811,-5.0183,-5.0361,-5.2214,-5.2409,-5.2854,-5.398,-5.4345,-5.5024,-5.6183,-5.6531,-5.6469,-5.5908,-5.6843,-5.6819,-5.5737,-5.723,-5.7423,-5.636,-5.6915,-5.6954,-5.658,-5.6346,-5.6307,-5.6385,-5.6307,-5.6385,-5.6508,-5.625,-5.5908,-5.5565,-5.5251,-5.4444,-5.3384,-5.3086,-5.2721,-5.2409,-5.2409,-5.2409,-5.2409,-5.2409,-5.2409,-5.2409,-5.2409,-5.2409,-5.2409,-5.2409,-5.2409,-5.2409,-5.2409,-5.2409,-5.2409,-5.2409,-5.2409,-5.2409,-5.2409,-5.2177,-5.1962,-5.1962,-5.133,-5.0734,-5.0419,-5.0021,-4.9508,-4.8763,-4.8266,-4.8001,-4.8001,-4.8001,-4.7719,-4.6974,-4.6891,-4.6477,-4.5417,-4.5334,-4.5202,-4.4903,-4.4887,-4.4887,-4.4887,-4.4887,-4.5036,-4.5317,-4.5334,-4.5698,-4.6444,-4.6444,-4.6825,-4.7537,-4.7537,-4.7586,-3.2587,-3.3754,-3.4756,-3.6552,-3.7988,-3.9035,-3.943,-4.0232,-4.113,-4.1788,-4.2297,-4.2985,-4.4107,-4.4706,-4.5496,-4.6986,-4.766,-4.8317,-4.9311,-4.8798,-4.8687,-4.9817,-4.915,-4.9418,-5.1475,-5.1692,-5.2483,-5.4374,-5.4065,-5.4536,-5.6214,-5.61,-5.5709,-5.5217,-5.6385,-5.6577,-5.568,-5.7249,-5.7558,-5.6605,-5.6929,-5.6874,-5.6473,-5.6414,-5.6507,-5.6682,-5.6215,-5.6037,-5.61,-5.6179,-5.5961,-5.5539,-5.5787,-5.514,-5.3997,-5.3798,-5.3152,-5.2409,-5.2409,-5.2409,-5.2409,-5.2409,-5.2409,-5.2409,-5.2409,-5.2409,-5.2409,-5.2409,-5.2409,-5.2409,-5.2409,-5.2409,-5.2409,-5.2409,-5.2409,-5.2409,-5.2409,-5.2409,-5.2409,-5.2409,-5.1978,-5.1547,-5.1348,-5.085,-5.0253,-4.9525,-4.8779,-4.8233,-4.8034,-4.8001,-4.7802,-4.7255,-4.7206,-4.6891,-4.6162,-4.6096,-4.6013,-4.5798,-4.5798,-4.5798,-4.5798,-4.5798,-4.5897,-4.6096,-4.6096,-4.646,-4.7206,-4.7206,-4.7487,-4.8001,-4.8001,-4.8117,-3.2512,-3.4427,-3.6716,-3.8003,-3.9349,-4.0666,-4.1991,-4.2306,-4.253,-4.3135,-4.3245,-4.3469,-4.4182,-4.4332,-4.4781,-4.6112,-4.6337,-4.6885,-4.844,-4.8019,-4.8119,-4.9615,-4.915,-4.9023,-4.9781,-4.9884,-5.1138,-5.4283,-5.2916,-5.2945,-5.5215,-5.4553,-5.4378,-5.5015,-5.5047,-5.5814,-5.7316,-5.6428,-5.6455,-5.7375,-5.6396,-5.5955,-5.5952,-5.621,-5.6727,-5.7367,-5.5734,-5.5149,-5.5312,-5.5124,-5.5133,-5.5402,-5.6303,-5.62,-5.5433,-5.4721,-5.3599,-5.2409,-5.2409,-5.2409,-5.2409,-5.2409,-5.2409,-5.2409,-5.2409,-5.2409,-5.2409,-5.2409,-5.2409,-5.2409,-5.2409,-5.2409,-5.2409,-5.2409,-5.2409,-5.2409,-5.2409,-5.2409,-5.2409,-5.2409,-5.2393,-5.2161,-5.1431,-5.1299,-5.1033,-5.0286,-4.9558,-4.8812,-4.81,-4.8001,-4.7984,-4.7968,-4.7968,-4.7669,-4.6924,-4.6874,-4.656,-4.5847,-4.5798,-4.5798,-4.5798,-4.5798,-4.6129,-4.6841,-4.6874,-4.7222,-4.7968,-4.7968,-4.7984,-4.8001,-4.8001,-4.8382,-3.5175,-3.6731,-3.8167,-3.9933,-4.1078,-4.1961,-4.2806,-4.3015,-4.294,-4.2731,-4.2342,-4.2237,-4.2935,-4.3054,-4.3599,-4.5349,-4.6022,-4.6631,-4.7603,-4.7513,-4.7608,-4.8211,-4.7973,0.0,-4.8985,-4.9497,0.0,-5.2605,-5.2218,-5.2632,-5.4363,-5.4591,-5.4477,-5.4089,-5.5532,-5.5992,-5.5299,-5.6681,-5.6957,-5.6213,-5.5999,-5.5792,-5.561,-5.5494,-5.5479,-5.5501,-5.5274,-5.5231,-5.5337,-5.5908,-5.6179,-5.6257,-5.6603,-5.6249,-5.5499,-5.4754,-5.3897,-5.3003,-5.2539,-5.2409,-5.2409,-5.2409,-5.2409,-5.2409,-5.2409,-5.2409,-5.2409,-5.2409,-5.2409,-5.2409,-5.2409,-5.2409,-5.2409,-5.2409,-5.2409,-5.2409,-5.2409,-5.2409,-5.2409,-5.2409,-5.2409,-5.2343,-5.2078,-5.2045,-5.1796,-5.1032,-4.9889,-4.8845,-4.81,-4.8001,-4.8001,-4.8001,-4.8001,-4.7901,-4.7653,-4.7636,-4.752,-4.7272,-4.7255,-4.7255,-4.7255,-4.7255,-4.7371,-4.762,-4.7636,-4.7752,-4.8001,-4.8001,-4.8001,-4.8017,-4.8514,-4.8862,-3.706,-3.8422,-3.9529,-4.1332,-4.2222,-4.2761,-4.294,-4.2985,-4.2731,-4.1848,-4.1324,-4.1085,-4.1265,-4.1347,-4.2028,-4.4257,-4.4975,-4.5696,-4.7115,-4.7342,-4.7413,-4.741,-4.7607,-4.7943,-4.8511,-4.9182,0.0,-5.1786,-5.1501,-5.2035,-5.3756,-5.3946,-5.3929,-5.38,-5.5223,-5.5698,-5.5051,-5.6375,-5.6519,-5.5475,-5.5576,-5.5736,-5.5906,-5.5779,-5.5632,-5.555,-5.5644,-5.5375,-5.4886,-5.5829,-5.6004,-5.5805,-5.643,-5.6398,-5.5918,-5.5189,-5.4444,-5.3665,-5.2705,-5.2409,-5.2409,-5.2409,-5.2409,-5.2409,-5.2409,-5.2409,-5.2409,-5.2409,-5.2409,-5.2409,-5.2409,-5.2409,-5.2409,-5.2409,-5.2409,-5.2409,-5.2409,-5.2409,-5.2409,-5.2409,-5.2409,-5.2409,-5.2409,-5.2409,-5.2161,-5.1415,-5.0469,-4.9525,-4.8531,-4.8166,-4.8001,-4.8001,-4.8001,-4.8001,-4.8001,-4.8001,-4.8001,-4.8001,-4.8001,-4.8001,-4.8001,-4.8001,-4.8001,-4.8001,-4.8001,-4.8001,-4.8001,-4.8001,-4.815,-4.8415,-4.8895,-4.9392,-3.8182,-3.9499,-4.0816,-4.2126,-4.2851,-4.312,-4.25,-4.2321,-4.1916,-4.0531,-4.0217,-4.0008,-3.9298,-3.9269,-4.0232,-4.2865,-4.3374,-4.4306,-4.6935,-4.7433,-4.7489,0.0,0.0,0.0,-4.8355,-4.8925,0.0,-5.1706,0.0,-5.1195,-5.3407,-5.2754,-5.289,-5.4177,-5.4236,-5.5001,-5.6493,-5.5651,-5.5194,-5.5194,-5.5194,-5.5635,-5.6526,-5.673,-5.6991,-5.713,-5.6521,-5.5377,-5.3976,-5.4927,-5.4803,-5.4232,-5.6004,-5.668,-5.6597,-5.5885,-5.5152,-5.4361,-5.2937,-5.2442,-5.2409,-5.2409,-5.2409,-5.2409,-5.2409,-5.2409,-5.2409,-5.2409,-5.2409,-5.2409,-5.2409,-5.2409,-5.2409,-5.2409,-5.2409,-5.2409,-5.2409,-5.2409,-5.2409,-5.2409,-5.2409,-5.2409,-5.2409,-5.2409,-5.2177,-5.1464,-5.1332,-5.0801,-4.9342,-4.8547,-4.81,-4.8067,-4.8067,-4.805,-4.8001,-4.8001,-4.8001,-4.8001,-4.8001,-4.8001,-4.8001,-4.8001,-4.8001,-4.8001,-4.8001,-4.8001,-4.8001,-4.8034,-4.8415,-4.911,-4.9193,-4.9955,-4.0127,-4.1272,-4.2096,-4.288,-4.2851,-4.247,-4.1811,-4.1287,-4.0382,-3.8542,-3.7808,-3.7285,-3.6626,-3.7689,0.0,-4.1549,-4.3524,0.0,-4.707,-4.7737,0.0,-4.8056,0.0,-4.9087,-4.9045,-4.9613,0.0,0.0,-5.0817,-5.1413,-5.2507,-5.329,-5.3862,-5.4206,-5.4685,-5.5165,-5.5551,-5.533,-5.5194,-5.5194,-5.5194,-5.5229,-5.5235,-5.5039,-5.4585,-5.3981,-5.4188,-5.379,-5.308,-5.4662,-5.5174,-5.5092,-5.6257,-5.668,-5.6597,-5.5885,-5.5466,-5.5102,-5.3665,-5.2821,-5.2409,-5.2409,-5.2409,-5.2409,-5.2409,-5.2409,-5.2409,-5.2409,-5.2409,-5.2409,-5.2409,-5.2409,-5.2409,-5.2409,-5.2409,-5.2409,-5.2409,-5.2409,-5.2409,-5.2409,-5.2409,-5.2409,-5.2409,-5.2409,-5.2359,-5.2161,-5.1663,-5.0984,-5.0055,-4.9773,-4.9442,-4.8895,-4.8829,-4.8597,-4.805,-4.8001,-4.8001,-4.8001,-4.8001,-4.8001,-4.8001,-4.8001,-4.8001,-4.8001,-4.8001,-4.8001,-4.8001,-4.8547,-4.8928,-4.9144,-5.022,-5.0951,-4.1467,-4.2321,-4.288,-4.32,-4.2851,-4.2081,-4.0801,-3.9971,-3.8725,-3.6222,-3.5574,-3.5123,-3.3962,-3.5609,-3.7778,0.0,0.0,0.0,-4.6606,-4.7683,-4.8282,0.0,-4.9119,0.0,-4.9688,-5.0287,-5.0749,0.0,-5.1439,-5.1932,-5.2591,-5.3638,-5.4341,-5.4625,-5.4999,-5.5194,-5.5194,-5.5194,-5.5194,-5.5194,-5.5194,-5.5143,-5.4976,-5.5159,-5.4812,-5.4035,0.0,-5.4271,-5.3765,-5.4832,-5.5296,-5.5377,-5.6336,-5.668,-5.663,-5.6249,-5.5901,-5.5466,-5.4638,-5.3699,-5.2788,-5.2489,-5.2409,-5.2409,-5.2409,-5.2409,-5.2409,-5.2409,-5.2409,-5.2409,-5.2409,-5.2409,-5.2409,-5.2409,-5.2409,-5.2409,-5.2409,-5.2409,-5.2409,-5.2409,-5.2409,-5.2409,-5.2409,-5.2409,-5.2409,-5.2409,-5.2061,-5.1612,-5.1214,-5.0618,-5.0055,-4.9641,-4.9293,-4.9077,-4.8978,-4.868,-4.8481,-4.8481,-4.8796,-4.868,-4.8034,-4.863,-4.8812,-4.8498,-4.8812,-4.8978,-4.8978,-4.9392,-4.9756,-5.0088,-5.0917,-5.1481,-4.2351,-4.2895,-4.329,-4.329,-4.2716,-4.1647,-3.9709,-3.8465,-3.6845,-3.3811,-3.345,-3.3195,-3.1632,-3.3543,-3.6028,-3.8063,0.0,-4.3389,-4.5963,-4.7534,-4.8416,-4.8416,-4.9568,-5.0315,-5.0315,-5.0838,-5.1498,-5.2157,-5.2276,-5.2621,-5.3279,-5.3967,-5.4596,-5.5179,-5.5194,-5.5194,-5.5194,-5.5194,-5.5194,-5.5194,-5.5194,-5.5194,-5.5244,-5.6051,-5.6013,-5.5262,0.0,0.0,-5.4524,-5.4976,-5.5133,-5.5215,-5.6297,-5.668,-5.668,-5.668,-5.6299,-5.5714,-5.5615,-5.4688,-5.345,-5.2738,-5.2456,-5.2409,-5.2409,-5.2409,-5.2409,-5.2409,-5.2409,-5.2409,-5.2409,-5.2409,-5.2409,-5.2409,-5.2409,-5.2409,-5.2409,-5.2409,-5.2409,-5.2409,-5.2409,-5.2409,-5.2409,-5.2409,-5.2409,-5.2409,-5.2409,-5.2409,-5.2409,-5.128,-5.0469,-5.0369,-4.9773,-4.9624,-5.0171,-4.9624,-4.926,-4.926,-4.9856,-4.9641,-4.8349,-4.9525,-4.9906,-4.9276,-4.9889,-5.022,-5.022,-5.0303,-5.0667,-5.1315,-5.1415,-5.1796,-4.2985,-4.32,-4.329,-4.329,-4.2028,-4.0367,-3.8901,-3.672,0.0,-3.2139,-3.1307,-3.0877,-3.0578,-3.2781,-3.5474,-3.7988,-4.1115,-4.3943,-4.5995,-4.7923,-4.9149,0.0,-5.0257,-5.105,-5.105,-5.1154,0.0,0.0,0.0,-5.3309,-5.3997,-5.4655,-5.5074,-5.5194,-5.5194,-5.5194,-5.5194,-5.5194,-5.5194,-5.5194,-5.5194,-5.5194,-5.5194,-5.5381,-5.4789,-5.3631,-5.3688,0.0,-5.1986,-5.3549,-5.4232,-5.4401,-5.6044,-5.668,-5.668,-5.668,-5.6614,-5.6415,-5.5797,-5.5019,-5.4212,-5.3467,-5.2854,-5.2409,-5.2409,-5.2409,-5.2409,-5.2409,-5.2409,-5.2409,-5.2409,-5.2409,-5.2409,-5.2409,-5.2409,-5.2409,-5.2409,-5.2409,-5.2409,-5.2409,-5.2409,-5.2409,-5.2409,-5.2409,-5.2409,-5.2409,-5.2409,-5.2409,-5.2409,-5.2158,-5.1761,-5.1148,-5.1,-5.0717,-5.0253,-5.0104,-5.0021,-5.0021,-5.0137,-5.0104,-4.9839,-5.0071,-5.0154,-5.0021,-5.0154,-5.022,-5.022,-5.08,-5.1183,-5.1315,-5.1945,-5.2348,-4.3125,-4.329,-4.32,-4.291,-4.1609,-3.9783,-3.7419,0.0,0.0,-3.0412,-2.9792,-2.9529,-2.8982,-3.1406,0.0,-3.5579,-3.8616,-4.1728,-4.4351,-4.6471,-4.8117,-4.9194,-5.0421,-5.1214,-5.1214,-5.1214,-5.1633,0.0,0.0,-5.3473,-5.4177,-5.4835,-5.5194,-5.5194,-5.5194,-5.5194,-5.5194,-5.5194,-5.5194,-5.5194,-5.5194,-5.5194,-5.5179,-5.4835,-5.4326,-5.3683,-5.298,0.0,-5.2535,-5.3571,-5.4274,-5.4803,-5.6179,-5.668,-5.668,-5.668,-5.668,-5.663,-5.6299,-5.5454,-5.4423,-5.4113,-5.3268,-5.2409,-5.2409,-5.2409,-5.2409,-5.2409,-5.2409,-5.2409,-5.2409,-5.2409,-5.2409,-5.2409,-5.2409,-5.2409,-5.2409,-5.2409,-5.2409,-5.2409,-5.2409,-5.2409,-5.2409,-5.2409,-5.2409,-5.2409,-5.2409,-5.2409,-5.2409,-5.2409,-5.2277,-5.1928,-5.1547,-5.1332,-5.133,-5.0982,-5.0767,-5.0767,-5.1131,-5.0999,-5.0237,-5.0949,-5.1164,-5.0767,-5.1148,-5.1347,-5.1347,-5.1678,-5.1879,-5.1895,-5.226,-5.2445,-4.2955,-4.3185,-4.314,-4.256,-4.1265,-3.9364,-3.6189,-3.4099,0.0,-2.9116,-2.8714,-2.8707,-2.8081,-3.0195,-3.2482,0.0,-3.6312,-3.9379,-4.2811,-4.5009,-4.7055,0.0,-5.0421,0.0,-5.1214,-5.1214,0.0,0.0,0.0,0.0,-5.4371,-5.491,-5.5194,-5.5194,-5.5194,-5.5194,-5.5194,-5.5194,-5.5194,-5.5194,-5.5044,-5.4985,-5.4955,-5.4296,-5.3907,-5.3728,-5.2665,0.0,0.0,-5.3518,-5.4216,-5.5092,-5.6044,-5.6508,-5.668,-5.668,-5.668,-5.6663,-5.6514,-5.5603,-5.4456,-5.4345,-5.3417,-5.2409,-5.2409,-5.2409,-5.2409,-5.2409,-5.2409,-5.2409,-5.2409,-5.2409,-5.2409,-5.2409,-5.2409,-5.2409,-5.2409,-5.2409,-5.2409,-5.2409,-5.2409,-5.2409,-5.2409,-5.2409,-5.2409,-5.2409,-5.2409,-5.2409,-5.2409,-5.2409,-5.2409,-5.2409,-5.1895,-5.1779,-5.2359,-5.1879,-5.1547,-5.1547,-5.2094,-5.186,-5.0734,-5.1777,-5.2144,-5.1564,-5.2111,-5.2409,-5.2409,-5.2409,-5.2409,-5.2409,-5.2409,-5.2409,-4.2306,-4.288,-4.314,-4.256,-4.092,-3.876,-3.597,0.0,-3.1442,-2.8781,-2.821,-2.8387,-2.9035,-2.999,-3.1704,-3.4816,0.0,-3.8871,-4.2751,-4.5009,-4.7055,-4.9075,0.0,0.0,-5.1214,0.0,0.0,0.0,0.0,0.0,-5.5029,-5.5164,-5.5194,-5.5194,-5.5194,-5.5194,-5.5194,-5.5194,-5.5194,-5.5179,-5.4581,-5.4296,-5.4281,-5.3593,-5.295,-5.2381,-5.2247,0.0,0.0,-5.2366,-5.3284,-5.419,-5.5108,-5.5948,-5.668,-5.668,-5.668,-5.6597,-5.5951,-5.5152,-5.4374,-5.3732,-5.3003,-5.2409,-5.2409,-5.2409,-5.2409,-5.2409,-5.2409,-5.2409,-5.2409,-5.2409,-5.2409,-5.2409,-5.2409,-5.2409,-5.2409,-5.2409,-5.2409,-5.2409,-5.2409,-5.2409,-5.2409,-5.2409,-5.2409,-5.2409,-5.2409,-5.2409,-5.2409,-5.2409,-5.2409,-5.2409,-5.2359,-5.2343,-5.2373,-5.2359,-5.231,-5.231,-5.234,-5.2359,-5.2175,-5.2307,-5.2393,-5.231,-5.2393,-5.2409,-5.2409,-5.2409,-5.2409,-5.2409,-5.2409,-5.248,-4.1269,-4.2365,-4.2917,-4.2028,-4.0801,-3.8811,-3.4951,-3.2964,-3.1102,-2.821,-2.7591,-2.7809,-2.8619,-2.9423,-3.0776,-3.3305,0.0,0.0,-3.9858,-4.1743,-4.3943,-4.7115,-4.8656,0.0,0.0,0.0,0.0,0.0,0.0,0.0,-5.3952,-5.3982,-5.4162,-5.4596,-5.4596,-5.4596,-5.4596,-5.4596,-5.4401,-5.3967,-5.3713,-5.3593,-5.3563,-5.289,-5.2441,-5.2172,-5.1783,0.0,0.0,-5.2215,-5.3168,-5.4105,-5.4968,-5.5852,-5.668,-5.668,-5.668,-5.6647,-5.6365,-5.5504,-5.444,-5.4179,-5.3301,-5.2409,-5.2409,-5.2409,-5.2409,-5.2409,-5.2409,-5.2409,-5.2409,-5.2017,-5.1635,-5.1635,-5.1635,-5.1635,-5.1635,-5.2017,-5.2409,-5.2409,-5.2409,-5.2409,-5.2409,-5.2409,-5.2409,-5.2409,-5.2409,-5.2409,-5.2409,-5.2409,-5.2409,-5.2409,-5.2409,-5.2409,-5.2409,-5.2409,-5.2409,-5.2409,-5.2409,-5.2409,-5.2409,-5.2409,-5.2409,-5.2409,-5.2409,-5.2409,-5.2409,-5.2409,-5.2409,-5.2409,-5.2409,-5.248,-4.001,-4.1364,-4.1984,-4.1032,-4.0181,-3.8383,-3.3951,-3.2355,-3.0983,-2.8095,-2.7597,-2.7974,-2.8866,-2.9453,-3.0391,-3.2198,0.0,-3.4637,-3.7928,-3.9723,-4.2028,0.0,0.0,0.0,0.0,0.0,0.0,0.0,0.0,0.0,0.0,-5.2606,-5.301,-5.3877,-5.3907,-5.3907,-5.3907,-5.3907,-5.3668,-5.3174,-5.298,-5.289,-5.2875,-5.2217,-5.1902,-5.1887,0.0,0.0,0.0,-5.1911,-5.2725,-5.3632,-5.4243,-5.5231,-5.6297,-5.6297,-5.6469,-5.6608,-5.6144,-5.5347,-5.4403,-5.3947,-5.3185,-5.2409,-5.2409,-5.2409,-5.2409,-5.2409,-5.2214,-5.1944,-5.1692,-5.1177,-5.0707,-5.0707,-5.0914,-5.1118,-5.1118,-5.1782,-5.2409,-5.2409,-5.2409,-5.2409,-5.2409,-5.2409,-5.2409,-5.2409,-5.2409,-5.2409,-5.2409,-5.2409,-5.2409,-5.2409,-5.2409,-5.2409,-5.2409,-5.2409,-5.2409,-5.2409,-5.2409,-5.2409,-5.2409,-5.2409,-5.2409,-5.2409,-5.2409,-5.2409,-5.2409,-5.2409,-5.2409,-5.2409,-5.2409,-5.2499,-3.8421,-3.9771,-4.0277,-3.9604,-3.8823,-3.7164,-3.3038,-3.1954,-3.11,-2.8697,-2.8546,-2.922,-3.0274,-3.0367,-3.08,-3.2273,-3.3066,0.0,-3.7928,-4.0113,0.0,0.0,0.0,0.0,0.0,0.0,0.0,0.0,0.0,0.0,0.0,-5.1244,-5.1843,-5.3159,-5.3189,-5.3189,-5.3189,-5.3189,-5.3189,-5.3174,-5.2516,-5.2217,-5.2187,-5.1528,-5.1229,0.0,0.0,0.0,0.0,-5.1214,-5.1788,-5.2606,-5.2606,-5.3746,-5.5296,-5.5296,-5.5908,-5.6448,-5.487,-5.4403,-5.4245,-5.2644,-5.2261,-5.2409,-5.2409,-5.2409,-5.2409,-5.2409,-5.1782,-5.0914,-5.0057,-4.9805,-4.9805,-4.9805,-5.0461,-5.1118,-5.1118,-5.1782,-5.2409,-5.2409,-5.2409,-5.2409,-5.2409,-5.2409,-5.2409,-5.2409,-5.2409,-5.2409,-5.2409,-5.2409,-5.2409,-5.2409,-5.2409,-5.2409,-5.2409,-5.2409,-5.2409,-5.2409,-5.2409,-5.2409,-5.2409,-5.2409,-5.2409,-5.2409,-5.2409,-5.2409,-5.2409,-5.2409,-5.2409,-5.2409,-5.2409,-5.2587,-3.4545,-3.5967,-3.6965,-3.6026,-3.5788,-3.4902,-3.1381,-3.0866,-3.0499,-2.8296,-2.8236,-2.8897,-3.0033,-3.0269,-3.1246,-3.4097,-3.4488,0.0,0.0,0.0,0.0,0.0,0.0,0.0,0.0,0.0,0.0,0.0,0.0,0.0,0.0,-5.1214,-5.1618,-5.2486,-5.2516,-5.2516,-5.2516,-5.2516,-5.2291,-5.1828,-5.1633,-5.1528,-5.1528,-5.1319,0.0,0.0,0.0,0.0,0.0,-5.1214,-5.1727,-5.2635,-5.3299,-5.4258,-5.5377,-5.6027,-5.643,-5.6608,-5.6128,-5.4968,-5.3596,-5.3097,-5.1865,-5.0615,-5.0615,-5.1027,-5.138,-5.0767,-5.0406,-5.0135,-4.9844,-4.9805,-4.9805,-4.9805,-5.0461,-5.1118,-5.1118,-5.1782,-5.2409,-5.2409,-5.2409,-5.2409,-5.2409,-5.2409,-5.2178,-5.1598,-5.1508,-5.1306,-5.0691,-5.0615,-5.0615,-5.0615,-5.0615,-5.1086,-5.2302,-5.2409,-5.2142,-5.1545,-5.1508,-5.1508,-5.1508,-5.1508,-5.1782,-5.239,-5.2409,-5.2409,-5.2409,-5.2409,-5.2409,-5.2426,-5.264,-5.2816,-3.2123,-3.3375,-3.4174,-3.3524,-3.3485,-3.2903,-3.0206,-2.9826,-2.9594,-2.8177,-2.8265,-2.8914,-2.9907,-3.0363,-3.1412,-3.3883,-3.429,-3.5162,0.0,0.0,0.0,0.0,0.0,0.0,0.0,0.0,0.0,0.0,0.0,0.0,0.0,-5.1214,-5.1409,-5.1813,-5.1828,-5.1828,-5.1828,-5.1828,-5.1618,-5.1214,-5.1214,-5.1214,-5.1214,-5.1214,0.0,0.0,0.0,0.0,0.0,-5.1214,-5.1557,-5.2124,-5.274,-5.3486,-5.4327,-5.4943,-5.5369,-5.5579,-5.498,-5.3882,-5.2685,-5.2037,-5.0938,-4.9726,-4.9423,-4.9955,-5.0422,-4.9583,-4.9343,-4.9343,-4.9343,-4.9101,-4.9035,-4.9647,-5.0213,-5.0707,-5.1027,-5.1782,-5.2409,-5.2409,-5.2142,-5.1908,-5.1908,-5.1619,-5.1215,-5.0707,-5.0631,-5.0422,-4.9844,-4.9805,-4.9805,-4.9805,-4.9805,-5.0252,-5.1327,-5.1417,-5.1177,-5.0615,-5.0914,-5.1118,-5.1118,-5.1434,-5.1871,-5.2373,-5.2409,-5.2409,-5.2409,-5.2445,-5.248,-5.2464,-5.285,-5.3007,0.0,-3.1601,-3.1796,-3.1737,-3.1601,-3.1056,-2.9337,-2.8788,0.0,-2.8245,-2.8559,-2.9165,-3.0011,-3.0748,-3.153,-3.2405,-3.3164,0.0,0.0,0.0,0.0,0.0,0.0,0.0,0.0,0.0,0.0,0.0,0.0,0.0,0.0,-5.1167,-5.1167,-5.1167,-5.1167,-5.1214,-5.1214,-5.1214,-5.1214,-5.1214,-5.1214,-5.1214,-5.1214,-5.1214,0.0,0.0,0.0,0.0,0.0,-5.1214,-5.1214,-5.1214,-5.1261,-5.1819,-5.2606,-5.268,-5.3256,-5.3796,-5.2244,-5.1732,-5.1533,-4.9881,-4.9466,-4.9487,-4.8805,-4.9116,-4.9583,-4.8805,-4.8615,-4.8599,-4.8682,-4.813,-4.7976,-4.9543,-4.9923,-5.0174,-5.0951,-5.1745,-5.2302,-5.2214,-5.1545,-5.0989,-5.0989,-5.0345,-4.9805,-4.9805,-4.9765,-4.9726,-4.9726,-4.9647,-4.9607,-4.9607,-4.9686,-4.9726,-4.9726,-4.9765,-4.9805,-4.9805,-5.0554,-5.1043,-5.1118,-5.1871,-5.2338,-5.2409,-5.2409,-5.2409,-5.2409,-5.2535,-5.2605,-5.2624,-5.3007,-5.3179,-2.7792,0.0,-2.8618,-2.8165,-2.8357,-2.8432,0.0,-2.7727,-2.8073,-2.7993,0.0,-2.9423,-3.0557,-3.1751,-3.3094,-3.4794,-3.6049,-3.7434,0.0,0.0,0.0,0.0,0.0,0.0,0.0,0.0,0.0,0.0,0.0,0.0,0.0,-5.1073,-5.112,-5.0902,-5.1073,-5.1214,-5.1214,-5.1214,-5.1214,-5.1214,-5.1214,-5.1214,-5.1214,-5.1214,0.0,0.0,0.0,0.0,-5.1214,-5.1214,-5.1214,-5.1261,-5.2002,-5.2426,-5.2695,-5.3431,-5.3805,-5.3882,-5.2975,-5.1887,-5.0557,-4.8498,-4.7858,-4.7976,-4.8449,-4.8723,-4.8846,-4.8641,-4.8615,-4.8723,-4.9343,-4.9876,-5.0322,-5.0707,-5.129,-5.1655,-5.1194,-5.1268,-5.1231,-5.0538,-5.0252,-5.0096,-5.0096,-4.9939,-4.9805,-4.9805,-4.9262,-4.8872,-4.8872,-4.8282,-4.7892,-4.7892,-4.8475,-4.8872,-4.8872,-4.9463,-4.9805,-4.9805,-4.9978,-5.0422,-5.1081,-5.1322,-5.1709,-5.239,-5.2409,-5.2445,-5.257,-5.2589,-5.2659,-5.2834,-5.3076,-5.3179,-2.6242,-2.7229,-2.8113,-2.7831,-2.8021,-2.8223,-2.802,-2.773,0.0,0.0,0.0,-2.9323,-3.0395,-3.1678,-3.3214,-3.5259,-3.6443,0.0,0.0,0.0,0.0,0.0,0.0,0.0,0.0,0.0,0.0,0.0,0.0,0.0,0.0,-5.0964,-5.0964,-5.0807,-5.1058,-5.1214,-5.1214,-5.1214,-5.1214,-5.1214,-5.1214,-5.1214,-5.1214,-5.1214,-5.1214,0.0,0.0,0.0,-5.1214,-5.1214,-5.1214,-5.1261,-5.1788,-5.1957,-5.2048,-5.2516,-5.2539,-5.2169,-5.1534,-5.0595,-4.9485,-4.8289,-4.813,-4.849,-4.8573,-4.8615,-4.8682,-4.9035,-4.9157,-4.9343,-5.019,-5.0461,-5.0707,-5.1508,-5.1745,-5.1655,-5.1194,-5.1118,-5.0838,-4.9978,-4.9503,-4.9262,-4.9262,-4.8913,-4.879,-4.9181,-4.8532,-4.813,-4.8573,-4.7864,-4.7309,-4.7309,-4.7694,-4.8019,-4.8019,-4.8764,-4.9262,-4.9262,-4.9978,-5.0422,-5.0499,-5.1268,-5.1908,-5.2373,-5.2409,-5.2445,-5.2499,-5.257,-5.2694,-5.2903,-5.311,-5.3264,-2.5916,-2.7472,-2.8867,-2.8746,-2.889,-2.9148,-2.9279,0.0,0.0,0.0,0.0,0.0,0.0,-3.1619,0.0,0.0,0.0,0.0,0.0,0.0,0.0,0.0,0.0,0.0,0.0,0.0,0.0,0.0,0.0,0.0,0.0,-5.0706,-5.0706,-5.0659,-5.0924,-5.1124,-5.1214,-5.1214,-5.1214,-5.1214,-5.1214,-5.1214,-5.1214,-5.1214,-5.1214,0.0,0.0,0.0,-5.1214,-5.1214,-5.1214,-5.1214,-5.1214,-5.1201,-5.1236,-5.1236,-5.0908,-5.0382,-4.9747,-4.9209,-4.8805,-4.8805,-4.9222,-4.9647,-4.8994,-4.8805,-4.8913,-4.9623,-4.9686,-4.9821,-5.0669,-5.0345,-5.0174,-5.1655,-5.1434,-5.0876,-5.0745,-5.0723,-5.0477,-4.9583,-4.8872,-4.8407,-4.8407,-4.7892,-4.7779,-4.8641,-4.8061,-4.7864,-4.8846,-4.7976,-4.7337,-4.7495,-4.751,-4.751,-4.751,-4.8297,-4.8723,-4.8615,-5.0033,-5.0576,-4.9844,-5.1343,-5.2214,-5.2214,-5.2373,-5.2445,-5.248,-5.264,-5.2799,-5.2989,-5.3161,-5.3348,-2.7167,-2.8671,-2.9432,-2.8199,-2.889,-2.9747,-2.9104,0.0,0.0,0.0,0.0,0.0,0.0,0.0,0.0,0.0,0.0,0.0,0.0,0.0,0.0,0.0,0.0,0.0,0.0,0.0,0.0,0.0,0.0,0.0,0.0,0.0,-5.0206,-5.0035,-5.0253,-5.0614,-5.1214,-5.1214,-5.1214,-5.1214,-5.1214,-5.1214,-5.1214,-5.1214,-5.1214,0.0,0.0,-5.1214,-5.1214,-5.1214,-5.1214,-5.1214,-5.1214,-5.1302,-5.1434,-5.1434,-5.1487,-5.1487,-5.0808,-5.0162,-4.9623,-4.9623,-4.9686,-4.9765,-4.9647,-4.9623,-4.9647,-4.9765,-4.9303,-4.8953,-4.9781,-4.9884,-4.9844,-5.0135,-5.0096,-4.9821,-4.9116,-4.8969,-4.8723,-4.7849,-4.7581,-4.7495,-4.7495,-4.8019,-4.8682,-4.9487,-4.8913,-4.8969,-5.0515,-4.8738,-4.7581,-4.8339,-4.8407,-4.8407,-4.8407,-4.9157,-4.9343,-4.8641,-4.9463,-4.9939,-4.9805,-5.0783,-5.1306,-5.1306,-5.2145,-5.2659,-5.2799,-5.3007,-5.3195,-5.3399,-5.3433,-5.3467,-2.595,-2.7695,-2.8985,-2.899,-3.0395,-3.1708,-3.1442,-3.0834,0.0,0.0,0.0,0.0,0.0,0.0,0.0,0.0,0.0,0.0,0.0,0.0,0.0,0.0,0.0,0.0,0.0,0.0,0.0,0.0,0.0,0.0,0.0,0.0,-4.9459,-4.9367,-4.9581,-4.9853,-5.0167,-5.0167,-5.0346,-5.0644,-5.0331,-5.0167,-5.0167,-5.0167,-5.0167,-5.0167,0.0,-5.0167,-5.0167,-5.0167,-5.0411,-5.0818,-5.0818,-5.1153,-5.1635,-5.1245,-5.086,-5.0518,-5.0331,-4.9754,-4.9157,-4.9157,-4.9463,-4.9726,-4.9262,-4.9463,-4.9686,-4.9262,-4.9181,-4.9343,-4.9686,-4.9805,-4.9805,-4.9805,-5.0174,-5.0267,-4.9423,-4.9638,-4.9678,-4.8831,-4.8282,-4.8019,-4.8019,-4.7934,-4.8172,-4.9035,-4.8449,-4.8339,-4.9599,-4.8297,-4.7467,-4.7849,-4.7892,-4.7892,-4.7892,-4.8682,-4.9197,-4.9222,-4.9197,-4.9343,-4.9765,-5.0174,-5.0384,-5.0384,-5.1422,-5.2004,-5.2076,-5.2747,-5.3161,-5.3348,-5.3348,-5.3382,-2.515,-2.6783,-2.8364,-2.9814,-3.1515,-3.2987,-3.3737,-3.281,0.0,0.0,0.0,0.0,0.0,0.0,0.0,0.0,0.0,0.0,0.0,0.0,0.0,0.0,0.0,0.0,0.0,0.0,0.0,0.0,0.0,0.0,0.0,0.0,-4.8774,-4.8774,-4.8955,-4.9149,-4.9314,-4.9164,-4.9374,-5.0002,-4.9508,-4.9314,-4.9314,-4.9314,-4.9314,-4.9314,-4.9314,-4.9314,-4.9314,-4.9314,-4.9672,-5.0199,-5.0199,-5.0653,-5.122,-5.0742,-5.0125,-4.961,-4.9756,-4.9543,-4.9213,-4.9213,-4.9742,-5.0252,-4.9439,-4.9638,-4.9939,-4.9116,-4.9343,-4.9686,-4.9303,-4.9383,-4.9543,-4.9543,-5.019,-5.0554,-4.9702,-5.0174,-5.0461,-4.9423,-4.8872,-4.8532,-4.8324,-4.7892,-4.7822,-4.849,-4.8019,-4.7892,-4.8764,-4.7976,-4.7381,-4.7581,-4.7424,-4.7309,-4.7309,-4.7892,-4.8558,-4.9181,-4.8641,-4.8558,-4.9181,-4.9423,-4.9543,-4.9543,-5.0767,-5.1422,-5.1443,-5.2468,-5.3076,-5.3264,-5.3264,-5.3348,-2.6493,-2.7255,-2.7947,-2.9973,-3.1062,0.0,-3.455,-3.4198,0.0,-3.6305,0.0,0.0,0.0,0.0,0.0,0.0,0.0,0.0,0.0,0.0,0.0,0.0,0.0,0.0,0.0,0.0,0.0,0.0,0.0,0.0,0.0,0.0,0.0,-4.8356,-4.8356,-4.8656,-4.9299,-4.8656,-4.8686,-4.9374,-4.9329,-4.9314,-4.9314,-4.9314,-4.9314,-4.9314,-4.9314,-4.9314,-4.9314,-4.9314,-4.9344,-4.9389,-4.9389,-4.9499,-4.9669,-4.9817,-4.9844,-4.9805,-4.9781,-5.0306,-5.0914,-5.0914,-5.1508,-5.2053,-5.1194,-5.0951,-5.0838,-4.9978,-4.9765,-4.9463,-4.7892,-4.8103,-4.8682,-4.8682,-4.9303,-4.9662,-4.8872,-4.9303,-4.9423,-4.7779,-4.8103,-4.8324,-4.7538,-4.8019,-4.8532,-4.8599,-4.8573,-4.8805,-4.9623,-4.8282,-4.7624,-4.8407,-4.7779,-4.7309,-4.7309,-4.7337,-4.7424,-4.7467,-4.7424,-4.7424,-4.7467,-4.8256,-4.8682,-4.8682,-5.0483,-5.148,-5.1598,-5.2679,-5.3264,-5.3467,-5.3467,-5.3501,-2.505,-2.6984,-2.8925,-3.0195,-3.1644,0.0,0.0,-3.5681,-3.6533,-3.8755,-3.873,0.0,0.0,0.0,0.0,0.0,0.0,0.0,0.0,0.0,0.0,0.0,0.0,0.0,0.0,0.0,0.0,0.0,0.0,0.0,0.0,0.0,0.0,-4.7683,-4.7683,-4.7803,-4.8042,-4.7803,-4.7803,-4.8057,-4.8057,-4.8057,-4.8057,-4.8057,-4.8057,-4.8057,-4.8057,-4.8057,-4.8057,-4.8057,-4.8362,-4.8935,-4.9411,-4.9641,-4.9768,-5.0363,-5.0267,-4.99,-5.0422,-5.0461,-5.0306,-5.0306,-5.0499,-5.0729,-5.0384,-5.0669,-5.0914,-5.0057,-4.9805,-4.9647,-4.9019,-4.9101,-4.9343,-4.9343,-4.9978,-5.0384,-4.9543,-5.0017,-5.0267,-4.906,-4.8723,-4.849,-4.8172,-4.7934,-4.7779,-4.7779,-4.7779,-4.7892,-4.8214,-4.7694,-4.7424,-4.7737,-4.7976,-4.8088,-4.8088,-4.8558,-4.8872,-4.8872,-4.7892,-4.7538,-4.8103,-4.8407,-4.8846,-4.9343,-5.0795,-5.1541,-5.1598,-5.2784,-5.3433,-5.3501,-5.3501,-5.3501,-2.4802,-2.7005,-2.9379,0.0,0.0,0.0,-3.5968,-3.6926,-3.8212,-4.1055,-4.095,-4.0487,-4.0935,0.0,0.0,0.0,0.0,0.0,0.0,0.0,0.0,0.0,0.0,0.0,0.0,0.0,0.0,0.0,0.0,0.0,0.0,0.0,0.0,0.0,-4.7309,-4.7309,-4.7309,-4.7309,-4.7309,-4.7309,-4.7309,-4.7309,-4.7309,-4.7309,-4.7309,-4.7309,-4.7309,-4.7309,-4.7309,-4.7309,-4.7822,-4.8682,-4.9503,-4.9805,-4.9844,-5.0461,-5.029,-4.99,-5.0461,-5.0461,-5.0174,-4.9884,-4.9978,-5.0174,-4.9884,-5.0229,-5.0615,-5.0306,-5.0017,-4.9844,-5.0135,-4.9821,-4.9423,-4.9423,-5.0073,-5.0461,-4.9623,-5.0096,-5.0345,-4.9222,-4.8805,-4.8532,-4.8256,-4.7934,-4.7694,-4.7694,-4.7934,-4.8019,-4.7737,-4.7934,-4.8088,-4.8088,-4.8407,-4.8723,-4.8953,-4.9503,-4.9805,-4.9805,-4.8708,-4.8366,-4.8953,-4.8994,-4.9262,-4.9868,-5.0984,-5.1578,-5.1724,-5.287,-5.3433,-5.3501,-5.3501,-5.3501,-2.6372,-2.7503,-2.8936,0.0,0.0,0.0,-3.7659,-3.7913,-3.8751,-4.3359,0.0,-4.2425,-4.2425,0.0,0.0,0.0,0.0,0.0,0.0,0.0,0.0,0.0,0.0,0.0,0.0,0.0,0.0,0.0,0.0,0.0,0.0,0.0,0.0,0.0,-4.7309,-4.7309,-4.7309,-4.7309,-4.7309,-4.7309,-4.7309,-4.7309,-4.7309,-4.7309,-4.7309,-4.7309,-4.7309,-4.7309,-4.7309,-4.7309,-4.7822,-4.8682,-4.9503,-4.9805,-4.9805,-4.9805,-4.9805,-4.9805,-4.9805,-5.0384,-5.0951,-5.0096,-5.0384,-5.0914,-5.0057,-4.9805,-4.9978,-5.0876,-5.0499,-5.0017,-5.0876,-4.9876,-4.8599,-4.8599,-4.9237,-4.9607,-4.8805,-4.9262,-4.9343,-4.7651,-4.8019,-4.8324,-4.7467,-4.8061,-4.8599,-4.8599,-4.9303,-4.9503,-4.8723,-4.9303,-4.9805,-4.9805,-4.9116,-4.8953,-4.9726,-4.9805,-4.9805,-4.9805,-4.9844,-4.9805,-4.9805,-4.9805,-4.9907,-5.0126,-5.0978,-5.159,-5.1921,-5.2784,-5.3314,-5.3501,-5.3501,-5.3501,-2.5803,-2.8129,0.0,0.0,0.0,0.0,0.0,-3.9649,0.0,0.0,0.0,-4.3733,-4.3733,0.0,0.0,0.0,0.0,0.0,0.0,0.0,0.0,0.0,0.0,0.0,0.0,0.0,0.0,0.0,0.0,0.0,0.0,0.0,0.0,0.0,-4.7309,-4.7309,-4.7309,-4.7309,-4.7309,-4.7309,-4.7309,-4.7309,-4.7309,-4.7309,-4.7309,-4.7309,-4.7309,-4.7309,-4.7337,-4.7976,-4.8723,-4.9463,-4.9686,-4.9805,-4.9805,-4.9805,-4.9805,-4.9805,-4.9805,-4.9978,-5.0135,-4.9884,-4.9962,-5.0252,-5.0631,-5.0707,-5.0914,-5.1782,-5.138,-5.0783,-5.1027,-5.0267,-4.9583,-5.019,-5.1027,-5.1417,-5.0554,-5.0554,-5.0384,-4.9262,-4.9262,-4.9343,-4.9101,-4.9262,-4.9463,-4.9463,-4.9662,-4.9726,-4.9463,-4.9647,-4.9805,-4.9805,-5.0151,-5.0477,-5.0707,-5.1268,-5.1619,-5.1619,-5.1712,-5.1496,-5.0957,-5.0919,-5.1294,-5.2043,-5.2468,-5.2731,-5.2818,-5.323,-5.3433,-5.3501,-5.3501,-5.3501,-2.7314,-2.9602,0.0,0.0,0.0,0.0,0.0,0.0,0.0,0.0,0.0,0.0,0.0,0.0,0.0,0.0,0.0,0.0,0.0,0.0,0.0,0.0,0.0,0.0,0.0,0.0,0.0,0.0,0.0,0.0,0.0,0.0,0.0,0.0,-4.7309,-4.7309,-4.7309,-4.7309,-4.7309,-4.7309,-4.7309,-4.7309,-4.7309,-4.7309,-4.7309,-4.7309,-4.7309,-4.751,-4.7892,-4.8723,-4.9583,-5.0345,-5.0345,-5.0345,-5.0252,-4.9939,-4.9805,-4.9805,-4.9805,-5.0017,-5.0252,-4.9923,-5.0041,-5.0345,-5.0538,-5.0592,-5.0783,-5.1635,-5.1268,-5.0669,-5.0989,-5.0707,-5.0345,-5.0538,-5.0973,-5.1215,-5.0707,-5.0592,-5.0422,-4.9884,-4.9805,-4.9805,-4.9805,-5.0096,-5.0345,-5.0345,-5.0345,-5.0461,-5.0767,-5.0252,-5.0057,-5.0767,-5.0989,-5.1231,-5.1598,-5.2106,-5.2409,-5.2409,-5.248,-5.234,-5.1895,-5.1967,-5.2343,-5.3007,-5.3144,-5.323,-5.3298,-5.3433,-5.3501,-5.3501,-5.3501,-5.3501,-2.9806,0.0,0.0,0.0,0.0,0.0,0.0,0.0,0.0,0.0,0.0,0.0,0.0,0.0,0.0,0.0,0.0,0.0,0.0,0.0,0.0,0.0,0.0,0.0,0.0,0.0,0.0,0.0,0.0,0.0,0.0,0.0,0.0,0.0,-4.7309,-4.7309,-4.7309,-4.7309,-4.7309,0.0,-4.7309,-4.7309,-4.7309,-4.7309,-4.7309,-4.7309,-4.7309,-4.7779,-4.8641,-4.9383,-5.0213,-5.0989,-5.0989,-5.1027,-5.0989,-5.0135,-4.9844,-4.99,-4.9844,-5.0345,-5.0838,-5.0057,-5.0345,-5.0838,-5.0135,-4.9939,-5.0096,-5.0989,-5.0669,-5.0213,-5.1027,-5.1231,-5.1027,-5.0213,-5.0057,-5.0057,-5.0057,-5.0057,-5.0057,-5.0057,-5.0057,-5.0057,-5.0057,-5.0691,-5.1231,-5.1231,-5.1231,-5.1508,-5.2302,-5.1011,-5.0653,-5.2214,-5.1709,-5.1545,-5.2338,-5.2409,-5.2409,-5.2409,-5.2409,-5.2464,-5.2589,-5.2764,-5.2972,-5.3195,-5.3179,-5.3298,-5.3501,-5.3501,-5.3501,-5.3501,-5.3501,-5.3501,0.0,0.0,0.0,0.0,0.0,0.0,0.0,0.0,0.0,0.0,0.0,0.0,0.0,0.0,0.0,0.0,0.0,0.0,0.0,0.0,0.0,0.0,0.0,0.0,0.0,0.0,0.0,0.0,0.0,0.0,0.0,0.0,0.0,-4.7309,-4.7309,-4.7309,-4.7309,-4.7309,-4.7309,0.0,-4.7309,-4.7309,-4.7309,-4.7309,-4.7309,-4.7309,-4.7309,-4.7779,-4.8599,-4.8805,-4.9343,-5.0096,-5.0096,-5.0499,-5.0989,-5.0135,-5.0213,-5.0707,-5.0057,-4.9923,-5.0057,-4.9844,-4.9939,-5.0174,-5.0669,-5.0838,-5.0989,-5.1871,-5.198,-5.1891,-5.2053,-5.2106,-5.2053,-5.1891,-5.1855,-5.1855,-5.1855,-5.1855,-5.1855,-5.1855,-5.1855,-5.1855,-5.1855,-5.198,-5.2106,-5.2106,-5.2106,-5.2178,-5.2373,-5.2053,-5.198,-5.2373,-5.2214,-5.2178,-5.2373,-5.2409,-5.2409,-5.2409,-5.2499,-5.257,-5.2589,-5.2624,-5.2834,-5.3179,-5.3179,-5.3298,-5.3501,-5.3501,-5.3501,-5.3501,-5.3501,-5.3501,0.0,0.0,0.0,0.0,0.0,0.0,0.0,0.0,0.0,0.0,0.0,0.0,0.0,0.0,0.0,0.0,0.0,0.0,0.0,0.0,0.0,0.0,0.0,0.0,0.0,0.0,0.0,0.0,0.0,0.0,0.0,0.0,0.0,-4.7309,-4.7309,-4.7309,-4.7309,-4.7309,-4.7309,-4.7309,-4.7309,-4.7309,-4.7309,-4.7309,-4.7309,-4.7309,-4.7309,-4.7779,-4.8615,-4.8615,-4.9075,-4.9805,-4.9805,-5.0096,-5.0422,-4.9978,-5.0096,-5.0422,-4.9978,-5.0057,-5.0422,-5.0422,-5.0691,-5.1124,-5.1582,-5.1709,-5.1835,-5.2266,-5.2409,-5.2409,-5.2409,-5.2409,-5.2409,-5.2409,-5.2409,-5.2409,-5.2409,-5.2409,-5.2409,-5.2409,-5.2409,-5.2409,-5.2409,-5.2409,-5.2409,-5.2409,-5.2409,-5.2266,-5.1818,-5.2142,-5.2089,-5.1252,-5.1891,-5.2214,-5.1818,-5.2142,-5.2409,-5.2409,-5.2535,-5.2589,-5.2589,-5.2694,-5.2868,-5.3179,-5.3298,-5.3382,-5.3501,-5.3501,-5.3501,-5.3501,-5.3501,-5.3501,0.0,0.0,0.0,0.0,0.0,0.0,0.0,0.0,0.0,0.0,0.0,0.0,0.0,0.0,0.0,0.0,0.0,0.0,0.0,0.0,0.0,0.0,0.0,0.0,0.0,0.0,0.0,0.0,0.0,0.0,0.0,0.0,-4.7189,-4.7309,-4.7309,-4.7309,-4.7309,-4.7309,-4.7309,-4.7309,-4.7309,-4.7309,-4.7309,-4.7309,-4.7309,-4.7309,-4.7309,-4.7694,-4.8366,-4.8366,-4.8872,-4.9567,-4.9567,-4.9765,-5.0017,-5.0017,-5.0135,-5.0252,-5.0252,-5.0745,-5.1306,-5.1306,-5.1818,-5.2409,-5.2409,-5.2409,-5.2409,-5.2409,-5.2409,-5.2409,-5.2409,-5.2409,-5.2409,-5.2409,-5.2409,-5.2409,-5.2409,-5.2409,-5.2409,-5.2409,-5.2266,-5.2178,-5.2178,-5.2178,-5.2178,-5.2178,-5.2302,-5.2142,-5.1434,-5.1944,-5.1855,-5.0406,-5.1529,-5.2106,-5.1397,-5.198,-5.2409,-5.2445,-5.2535,-5.2624,-5.2659,-5.2834,-5.3041,-5.3195,-5.3348,-5.3467,-5.3501,-5.3501,-5.3501,-5.3501,-5.3501,-5.3501,0.0,0.0,0.0,0.0,0.0,0.0,0.0,0.0,0.0,0.0,0.0,0.0,0.0,0.0,0.0,0.0,0.0,0.0,0.0,0.0,0.0,0.0,0.0,0.0,0.0,0.0,0.0,0.0,0.0,0.0,0.0,-4.6414,-4.6711,-4.7294,-4.7309,-4.7309,-4.7309,-4.7309,-4.7309,-4.7309,-4.7309,-4.7309,-4.7309,-4.7309,-4.7309,-4.7309,-4.7309,-4.7396,-4.7467,-4.7467,-4.7976,-4.8764,-4.8764,-4.9638,-5.0914,-5.0914,-5.138,-5.2053,-5.2053,-5.2142,-5.223,-5.223,-5.2302,-5.2409,-5.2409,-5.2409,-5.2409,-5.2409,-5.2409,-5.2409,-5.2409,-5.2409,-5.2409,-5.2409,-5.2409,-5.2409,-5.2409,-5.2409,-5.2409,-5.2409,-5.1782,-5.1268,-5.1268,-5.1268,-5.1268,-5.1268,-5.1908,-5.2338,-5.225,-5.2338,-5.2302,-5.2089,-5.2266,-5.2338,-5.223,-5.2338,-5.2445,-5.257,-5.2589,-5.2659,-5.2834,-5.3041,-5.3179,-5.3179,-5.323,-5.3348,-5.3501,-5.3501,-5.3501,-5.3501,-5.3501,-5.3501,0.0,0.0,0.0,0.0,0.0,0.0,0.0,0.0,0.0,0.0,0.0,0.0,0.0,0.0,0.0,0.0,0.0,0.0,0.0,0.0,0.0,0.0,0.0,0.0,0.0,0.0,0.0,0.0,0.0,0.0,-4.5723,-4.5753,-4.5873,-4.6172,-4.6187,-4.6187,-4.6187,-4.6187,-4.6381,-4.6756,-4.713,-4.7309,-4.7309,-4.7309,-4.7309,-4.7309,-4.7309,-4.7581,-4.8019,-4.8019,-4.8517,-4.9303,-4.9797,-5.0438,-5.1156,-5.1672,-5.2069,-5.2409,-5.2409,-5.2409,-5.2409,-5.2409,-5.2409,-5.2409,-5.2409,-5.2409,-5.2409,-5.2409,-5.2409,-5.2409,-5.2409,-5.2409,-5.2409,-5.2409,-5.2409,-5.2409,-5.2409,-5.2017,-5.1672,-5.1672,-5.1745,-5.1818,-5.1818,-5.1818,-5.1818,-5.1818,-5.2142,-5.2214,-5.1745,-5.2106,-5.2017,-5.1048,-5.1818,-5.2214,-5.1709,-5.2106,-5.2409,-5.2464,-5.257,-5.2624,-5.2729,-5.3041,-5.3179,-5.3179,-5.3298,-5.3416,-5.3501,-5.3501,-5.3501,-5.3501,-5.3501,-5.3501,0.0,0.0,0.0,0.0,0.0,0.0,0.0,0.0,0.0,0.0,0.0,0.0,0.0,0.0,0.0,0.0,0.0,0.0,0.0,0.0,0.0,0.0,0.0,0.0,0.0,0.0,0.0,0.0,0.0,0.0,-4.5035,-4.505,-4.5125,-4.5289,-4.5289,-4.5289,-4.5289,-4.5289,-4.5559,-4.6067,-4.6561,-4.68,-4.68,-4.68,-4.68,-4.6815,-4.716,-4.7779,-4.8615,-4.8615,-4.9197,-5.0174,-5.0838,-5.1231,-5.1508,-5.2142,-5.2409,-5.2409,-5.2409,-5.2409,-5.2409,-5.2409,-5.2409,-5.2409,-5.2409,-5.2409,-5.2409,-5.2409,-5.2409,-5.2409,-5.2409,-5.2409,-5.2409,-5.2409,-5.2409,-5.2409,-5.2409,-5.1908,-5.1434,-5.1434,-5.1782,-5.2069,-5.2069,-5.2069,-5.2069,-5.2069,-5.2266,-5.2178,-5.1508,-5.198,-5.1891,-5.0615,-5.1602,-5.2142,-5.1471,-5.1818,-5.2089,-5.2125,-5.2252,-5.2307,-5.2326,-5.2886,-5.3179,-5.3179,-5.3382,-5.3501,-5.3501,-5.3501,-5.3501,-5.3501,-5.3501,-5.3501,0.0,0.0,0.0,0.0,0.0,0.0,0.0,0.0,0.0,0.0,0.0,0.0,0.0,0.0,0.0,0.0,0.0,0.0,0.0,0.0,0.0,0.0,0.0,0.0,0.0,0.0,0.0,0.0,0.0,0.0,-4.4332,-4.4362,-4.4646,-4.5274,-4.5289,-4.5289,-4.5289,-4.5289,-4.5319,-4.5349,-4.5394,-4.5394,-4.5394,-4.5394,-4.5394,-4.5469,-4.6756,-4.7779,-4.8615,-4.8615,-4.9559,-5.1043,-5.1081,-5.1582,-5.2338,-5.2373,-5.2409,-5.2409,-5.2409,-5.2409,-5.2409,-5.2409,-5.2409,-5.2409,-5.2409,-5.2409,-5.2409,-5.2409,-5.2409,-5.2409,-5.2409,-5.2409,-5.2409,-5.2409,-5.2409,-5.2409,-5.2409,-5.2373,-5.2338,-5.2338,-5.1709,-5.1156,-5.1156,-5.1156,-5.1156,-5.1156,-5.1871,-5.2373,-5.2338,-5.2373,-5.2373,-5.225,-5.2338,-5.2373,-5.2338,-5.1635,-5.1268,-5.1438,-5.1475,-5.1516,-5.1651,-5.2662,-5.3179,-5.3179,-5.3382,-5.3501,-5.3501,-5.3501,-5.3501,-5.3501,-5.3501,-5.3501,0.0,0.0,0.0,0.0,0.0,0.0,0.0,0.0,0.0,0.0,0.0,0.0,0.0,0.0,0.0,0.0,0.0,0.0,0.0,0.0,0.0,0.0,0.0,0.0,0.0,0.0,0.0,0.0,0.0,0.0,-4.3633,-4.3648,-4.3753,-4.3992,-4.4032,-4.4032,-4.4032,-4.4451,-4.4661,-4.4661,-4.5095,-4.5289,-4.5289,-4.5289,-4.5289,-4.5361,-4.6349,-4.7265,-4.8052,-4.857,-4.9468,-5.0577,-5.1056,-5.1432,-5.1763,-5.2243,-5.2409,-5.2409,-5.2409,-5.2409,-5.2409,-5.2409,-5.2409,-5.2409,-5.2409,-5.2409,-5.2409,-5.2409,-5.2409,-5.2409,-5.2409,-5.2409,-5.2266,-5.1709,-5.0876,-5.0322,-5.0653,-5.1619,-5.2214,-5.1655,-5.1745,-5.1944,-5.1944,-5.1944,-5.1944,-5.1944,-5.2178,-5.2178,-5.1635,-5.1561,-5.1343,-5.0767,-5.0729,-5.0729,-5.0729,-5.0461,-5.0538,-5.1177,-5.1327,-5.1643,-5.2219,-5.2852,-5.3179,-5.3179,-5.3382,-5.3501,-5.3501,-5.3501,-5.3501,-5.3501,-5.3501,-5.3501,-2.2398,0.0,0.0,0.0,0.0,0.0,0.0,0.0,0.0,0.0,0.0,0.0,0.0,0.0,0.0,0.0,0.0,0.0,0.0,0.0,0.0,0.0,0.0,0.0,0.0,0.0,0.0,0.0,0.0,0.0,-4.3015,-4.317,-4.329,-4.329,-4.329,-4.329,-4.329,-4.3723,-4.3947,-4.3947,-4.4421,-4.4631,-4.4631,-4.4631,-4.4631,-4.4672,-4.5471,-4.6547,-4.7757,-4.857,-4.9426,-5.027,-5.0734,-5.1065,-5.1365,-5.1862,-5.221,-5.2409,-5.2409,-5.2409,-5.2409,-5.2409,-5.2409,-5.2409,-5.2409,-5.2409,-5.2409,-5.2409,-5.2409,-5.2338,-5.2017,-5.1745,-5.138,-5.0783,-4.9955,-4.9358,-4.9742,-5.0935,-5.1782,-5.1194,-5.1782,-5.2409,-5.2409,-5.2142,-5.198,-5.198,-5.1692,-5.1327,-5.0745,-5.0669,-5.0422,-4.9844,-4.9805,-4.9805,-4.9805,-4.9884,-5.0158,-5.0729,-5.1145,-5.1659,-5.2255,-5.2817,-5.3144,-5.3179,-5.3382,-5.3501,-5.3501,-5.3501,-5.3501,-5.3501,-5.3501,-5.3501,0.0,0.0,0.0,0.0,0.0,0.0,0.0,0.0,0.0,0.0,0.0,0.0,0.0,0.0,0.0,0.0,0.0,0.0,0.0,0.0,0.0,0.0,0.0,0.0,0.0,0.0,0.0,0.0,0.0,-4.2366,-4.2366,-4.294,-4.323,-4.323,-4.326,-4.326,-4.326,-4.329,-4.329,-4.329,-4.329,-4.329,-4.329,-4.329,-4.329,-4.3329,-4.4143,-4.5692,-4.7694,-4.8469,-4.9325,-5.012,-5.0136,-5.0567,-5.1249,-5.1265,-5.1746,-5.2393,-5.2393,-5.2393,-5.2409,-5.2409,-5.2373,-5.2373,-5.2373,-5.2338,-5.2338,-5.2338,-5.2338,-5.2142,-5.1268,-5.0422,-4.9765,-4.9765,-4.9726,-4.9726,-4.9726,-5.0422,-5.1027,-5.1081,-5.1745,-5.2338,-5.2338,-5.1619,-5.1081,-5.1081,-5.0345,-4.9805,-4.9765,-4.9765,-4.9805,-4.9765,-4.9765,-4.9805,-4.9805,-4.9986,-5.0087,-5.0126,-5.0941,-5.148,-5.1634,-5.2451,-5.3007,-5.3195,-5.3382,-5.3501,-5.3501,-5.3484,-5.3467,-5.3467,-5.3467,-5.3484,-2.0228,0.0,0.0,0.0,0.0,0.0,0.0,0.0,0.0,0.0,0.0,0.0,0.0,0.0,0.0,0.0,0.0,0.0,0.0,0.0,0.0,0.0,0.0,0.0,0.0,0.0,0.0,0.0,-4.1587,-4.1692,-4.1692,-4.1818,-4.1923,-4.1923,-4.2387,-4.2626,-4.2626,-4.309,-4.329,-4.329,-4.329,-4.329,-4.329,-4.329,-4.329,-4.3329,-4.4143,-4.5164,-4.625,-4.6485,-4.7023,-4.7804,-4.8325,-4.9032,-4.9773,-5.0303,-5.0966,-5.1614,-5.1614,-5.1962,-5.2409,-5.2409,-5.198,-5.1471,-5.1471,-5.1027,-5.0522,-5.0522,-5.0522,-5.0445,-5.0213,-4.9543,-4.8913,-4.8913,-4.8449,-4.8003,-4.8003,-4.8697,-4.9479,-5.0057,-5.0368,-5.0522,-5.0522,-5.0329,-5.0174,-5.0174,-4.9962,-4.9583,-4.8994,-4.9423,-4.9583,-4.8994,-4.9463,-4.9805,-4.9805,-4.9844,-5.0158,-5.0767,-5.1199,-5.1696,-5.2291,-5.2852,-5.3144,-5.3179,-5.3382,-5.3501,-5.3501,-5.2926,-5.2638,-5.2638,-5.2638,-5.2942,-2.131,-2.1999,-2.3092,-2.3146,0.0,0.0,0.0,0.0,0.0,0.0,0.0,0.0,0.0,0.0,0.0,0.0,0.0,0.0,0.0,0.0,0.0,0.0,0.0,0.0,0.0,0.0,0.0,0.0,-4.0816,-4.1085,-4.1407,-4.1422,-4.1422,-4.1422,-4.1796,-4.1991,-4.1991,-4.2327,-4.2656,-4.2925,-4.2925,-4.3075,-4.329,-4.329,-4.329,-4.3329,-4.381,-4.4259,-4.4699,-4.4699,-4.5753,-4.7336,-4.7761,-4.8426,-4.916,-4.9591,-5.022,-5.0833,-5.0833,-5.1115,-5.1479,-5.1479,-5.0916,-5.026,-5.0568,-5.0051,-4.9442,-4.9726,-4.9583,-4.9303,-4.9303,-4.8682,-4.8061,-4.8061,-4.7666,-4.7309,-4.7309,-4.7709,-4.8282,-4.9157,-4.9583,-4.9805,-4.9805,-4.9527,-4.9423,-4.9765,-4.9222,-4.8831,-4.9075,-4.9237,-4.9262,-4.9101,-4.9543,-4.9805,-4.9805,-5.0213,-5.0675,-5.1177,-5.1659,-5.22,-5.2834,-5.3007,-5.3144,-5.3298,-5.3095,-5.2706,-5.208,-5.2232,-5.2147,-5.186,-5.2164,-5.2401,-2.3355,-2.3526,-2.4403,-2.5884,-2.5151,0.0,-2.8109,-2.8079,0.0,0.0,0.0,0.0,0.0,0.0,0.0,0.0,0.0,0.0,0.0,0.0,0.0,0.0,0.0,0.0,0.0,0.0,-3.9194,-3.9269,-3.9918,-4.0546,-4.113,-4.116,-4.116,-4.116,-4.1235,-4.1265,-4.1265,-4.1339,-4.1707,-4.2291,-4.2291,-4.2596,-4.3185,-4.3185,-4.323,-4.329,-4.329,-4.3369,-4.3433,-4.3433,-4.5079,-4.7605,-4.7605,-4.8116,-4.8827,-4.8827,-4.9306,-4.9969,-5.0054,-5.0035,-4.9946,-5.005,-4.9461,-4.8828,-4.9452,-4.9066,-4.8561,-4.9134,-4.8864,-4.8326,-4.8234,-4.7679,-4.7085,-4.7085,-4.7085,-4.7085,-4.7199,-4.7259,-4.7531,-4.8234,-4.9007,-4.9527,-4.9647,-4.9075,-4.8846,-4.9583,-4.8475,-4.813,-4.9623,-4.9262,-4.9157,-4.986,-5.0041,-5.0096,-5.0096,-5.0957,-5.1512,-5.1549,-5.22,-5.2764,-5.3144,-5.3007,-5.3059,-5.3349,-5.2587,-5.1488,-5.0084,-5.142,-5.1725,-5.1099,-5.1758,-5.1758,-2.539,-2.5899,-2.6402,-2.4627,-2.5518,0.0,-2.447,-2.5046,0.0,0.0,0.0,0.0,0.0,0.0,0.0,0.0,0.0,0.0,0.0,0.0,0.0,0.0,0.0,0.0,0.0,0.0,-3.8018,-3.8542,-3.923,-3.9664,-3.9798,-3.9798,-3.9798,-3.9798,-4.0307,-4.0591,-4.0591,-4.1115,-4.1482,-4.1617,-4.1617,-4.1946,-4.259,-4.259,-4.2836,-4.329,-4.329,-4.3669,-4.4259,-4.4259,-4.4624,-4.5169,-4.5169,-4.6048,-4.7245,-4.7245,-4.7716,-4.8439,-4.909,-4.8882,-4.8439,-4.9021,-4.8275,-4.7092,-4.7232,-4.6647,-4.6005,-4.6142,-4.6471,-4.662,-4.6105,-4.5803,-4.5678,-4.5678,-4.5678,-4.5887,-4.6514,-4.713,-4.74,-4.6994,-4.7383,-4.8019,-4.8723,-4.8723,-4.8641,-4.8805,-4.9116,-4.9423,-4.9765,-5.0267,-5.0669,-5.0838,-5.1455,-5.1891,-5.1891,-5.2089,-5.2233,-5.2359,-5.2518,-5.2694,-5.2938,-5.3076,-5.2909,-5.2371,-5.1728,-5.098,-5.0084,-5.0388,-5.0456,-5.0321,-5.0456,-5.0777,-2.7455,-2.759,-2.7869,-2.6826,-2.7106,0.0,0.0,0.0,0.0,0.0,0.0,0.0,0.0,0.0,0.0,0.0,0.0,0.0,0.0,0.0,0.0,0.0,0.0,0.0,0.0,0.0,-3.7539,-3.7883,-3.8212,-3.8556,-3.8886,-3.8901,-3.9065,-3.9373,-3.9738,-3.9903,-3.9903,-4.0232,-4.0561,-4.0891,-4.0891,-4.1235,-4.1916,-4.2246,-4.259,-4.2865,-4.3155,-4.3512,-4.3888,-4.3888,-4.3888,-4.3989,-4.4774,-4.5572,-4.6253,-4.6253,-4.6493,-4.6869,-4.7273,-4.7394,-4.7417,-4.7774,-4.7112,-4.6202,-4.6545,-4.6003,-4.5289,-4.5289,-4.5544,-4.5723,-4.5394,-4.5289,-4.5289,-4.5289,-4.5604,-4.6037,-4.6423,-4.709,-4.7622,-4.77,-4.7566,-4.7461,-4.7542,-4.7849,-4.8231,-4.8662,-4.9039,-4.9571,-5.044,-5.0568,-5.0733,-5.1168,-5.1267,-5.1297,-5.1297,-5.1297,-5.1516,-5.2023,-5.169,-5.1795,-5.2453,-5.2253,-5.1798,-5.1121,-5.083,-5.0287,-4.9543,-4.9543,-4.9543,-4.956,-4.9915,-5.0101,-2.9864,-2.9639,-2.9699,-2.9636,-2.9172,-2.8618,0.0,0.0,0.0,-2.8442,0.0,0.0,0.0,0.0,0.0,0.0,0.0,0.0,0.0,0.0,0.0,0.0,0.0,0.0,0.0,0.0,-3.6821,-3.721,-3.6985,-3.724,-3.8153,-3.8317,-3.8646,-3.92,-3.9313,-3.9388,-3.9388,-3.9388,-3.9694,-4.0217,-4.0217,-4.0561,-4.1205,-4.1782,-4.2156,-4.2425,-4.2925,-4.317,-4.329,-4.329,-4.329,-4.3448,-4.4737,-4.5332,-4.5478,-4.5478,-4.5478,-4.5515,-4.5805,-4.6005,-4.6202,-4.6673,-4.6182,-4.5589,-4.6102,-4.5725,-4.508,-4.4945,-4.5005,-4.508,-4.4945,-4.5038,-4.5146,-4.5146,-4.5761,-4.6377,-4.6517,-4.7132,-4.7819,-4.8381,-4.8155,-4.7674,-4.7068,-4.7469,-4.8095,-4.8804,-4.8941,-4.9512,-5.0909,-5.0451,-5.0291,-5.103,-5.0551,-5.022,-5.022,-5.0238,-5.0538,-5.1309,-5.081,-5.0928,-5.1882,-5.1225,-5.0598,-5.0101,-4.9949,-4.9593,-4.9001,-4.9001,-4.9001,-4.9018,-4.961,-4.956,-3.314,-3.3365,0.0,0.0,-3.121,-3.1614,0.0,0.0,-2.7844,-2.6363,0.0,0.0,0.0,0.0,0.0,0.0,0.0,0.0,0.0,0.0,0.0,0.0,0.0,0.0,0.0,0.0,0.0,-3.6462,-3.5507,-3.5594,-3.7419,-3.8078,-3.8422,-3.8497,-3.9095,-3.9388,-3.9388,-3.9388,-3.9454,-3.9493,-3.9493,-3.9873,-4.0516,-4.0591,-4.1265,-4.2396,-4.247,-4.2806,-4.329,-4.329,-4.329,-4.3329,-4.3512,-4.4004,-4.4624,-4.4624,-4.4624,-4.4849,-4.6202,-4.5374,-4.4051,-4.6131,-4.5809,-4.4639,-4.4716,-4.4582,-4.4302,-4.3678,-4.3973,-4.4287,-4.3663,-4.4037,-4.4588,-4.4588,-4.5195,-4.5954,-4.6619,-4.7345,-4.7709,-4.7149,-4.8055,-4.8864,-4.8655,-4.8695,-4.8804,-4.8877,-4.9543,-5.0096,-5.0302,-5.0233,-5.0216,-5.0302,-5.027,-5.022,-5.022,-5.0307,-5.0493,-5.076,-5.0893,-5.104,-5.1288,-5.0576,-5.0185,-5.0084,-4.9458,-4.9086,-4.9001,-4.9001,-4.9001,-4.9001,-4.9086,-4.9086,-3.3679,0.0,0.0,0.0,0.0,0.0,-2.8023,0.0,-2.753,0.0,0.0,0.0,0.0,0.0,0.0,0.0,0.0,0.0,0.0,0.0,0.0,0.0,0.0,0.0,0.0,0.0,0.0,0.0,0.0,-3.4203,-3.6193,-3.6926,-3.7449,-3.7808,-3.8467,-3.8826,-3.8826,-3.923,-3.9388,-3.9388,-3.9388,-3.9574,-3.9843,-4.0232,-4.0711,-4.1265,-4.2066,-4.2545,-4.2791,-4.314,-4.329,-4.329,-4.329,-4.3512,-4.381,-4.381,-4.4105,-4.451,-4.4721,-4.4721,-4.4774,-4.53,-4.502,-4.4412,-4.3966,-4.3747,-4.3648,-4.3364,-4.3826,-4.4354,-4.4065,-4.4586,-4.5184,-4.5184,-4.5789,-4.6429,-4.6742,-4.7396,-4.7849,-4.7554,-4.8034,-4.8448,-4.8375,-4.839,-4.839,-4.839,-4.9057,-4.9388,-4.8926,-4.8891,-4.87,-4.8259,-4.7939,-4.7751,-4.7751,-4.7925,-4.8469,-4.9542,-5.0138,-5.0325,-4.9949,-4.9627,-4.9458,-4.9458,-4.9171,-4.9001,-4.9001,-4.9001,-4.9001,-4.9001,-4.9001,-4.9001,-3.4173,0.0,0.0,0.0,0.0,0.0,0.0,0.0,0.0,0.0,0.0,0.0,0.0,0.0,-2.6303,-2.5929,0.0,0.0,0.0,0.0,0.0,0.0,0.0,0.0,0.0,0.0,0.0,0.0,0.0,0.0,-3.5085,-3.5848,-3.6507,-3.7135,-3.7778,-3.8197,-3.8392,-3.8886,-3.923,-3.9388,-3.9388,-3.9388,-3.9439,-3.9903,-4.0232,-4.0442,-4.1452,-4.1961,-4.2186,-4.2806,-4.306,-4.3075,-4.3491,-4.363,-4.363,-4.363,-4.4143,-4.4737,-4.4143,-4.4737,-4.5551,-4.4774,-4.451,-4.4412,-4.381,-4.3472,-4.3329,-4.3551,-4.4028,-4.4548,-4.4774,-4.539,-4.6005,-4.6005,-4.6585,-4.7118,-4.7118,-4.7588,-4.8001,-4.8001,-4.8001,-4.7935,-4.7704,-4.7853,-4.7935,-4.7704,-4.8132,-4.8207,-4.7394,-4.7287,-4.7093,-4.6565,-4.6158,-4.5929,-4.5929,-4.6285,-4.7158,-4.8696,-4.9399,-4.9528,-4.9035,-4.9001,-4.9001,-4.9001,-4.9001,-4.9001,-4.9001,-4.9001,-4.9001,-4.9001,-4.9001,-4.9001,0.0,0.0,0.0,-3.136,0.0,0.0,0.0,0.0,-2.8368,0.0,0.0,0.0,0.0,-2.8981,-2.8083,-2.6767,-2.6572,0.0,0.0,0.0,0.0,0.0,0.0,0.0,0.0,0.0,0.0,0.0,0.0,0.0,-3.4339,-3.516,-3.5833,-3.6492,-3.712,-3.7749,-3.8377,-3.8407,-3.8751,-3.9388,-3.9388,-3.9388,-3.9388,-3.9403,-3.9798,-4.0397,-4.0442,-4.0831,-4.1459,-4.2156,-4.2425,-4.2563,-4.3938,-4.4472,-4.4472,-4.4472,-4.4962,-4.566,-4.5624,-4.566,-4.5551,-4.4774,-4.451,-4.4488,-4.4472,-4.3927,-4.3472,-4.4259,-4.4488,-4.4662,-4.5478,-4.6218,-4.6777,-4.6777,-4.7371,-4.7968,-4.7968,-4.7968,-4.8001,-4.8001,-4.8001,-4.7737,-4.6965,-4.7488,-4.7737,-4.6965,-4.6878,-4.6617,-4.5873,-4.5765,-4.5765,-4.5728,-4.5713,-4.5697,-4.5697,-4.655,-4.7572,-4.874,-4.882,-4.888,-4.9001,-4.9001,-4.9001,-4.9001,-4.9001,-4.9001,-4.9001,-4.9001,-4.9001,-4.9001,-4.9001,-4.9001,0.0,0.0,-3.4921,-3.2452,0.0,0.0,0.0,0.0,0.0,0.0,0.0,0.0,0.0,-2.8742,-2.8158,-2.6811,-2.6228,-2.5106,0.0,0.0,0.0,0.0,0.0,0.0,0.0,0.0,0.0,0.0,0.0,0.0,0.0,-3.4457,-3.5145,-3.5818,-3.6462,-3.6911,-3.7135,-3.7973,-3.8497,-3.8736,-3.92,-3.9388,-3.9388,-3.9388,-3.9508,-3.9768,-4.0217,-4.0531,-4.0786,-4.1482,-4.2006,-4.2464,-4.293,-4.3686,-4.4548,-4.511,-4.5789,-4.6429,-4.6429,-4.6127,-4.566,-4.5369,-4.4924,-4.451,-4.451,-4.3927,-4.3488,-4.4259,-4.4887,-4.5463,-4.6218,-4.7015,-4.7588,-4.7588,-4.7421,-4.722,-4.722,-4.6809,-4.6496,-4.6496,-4.6496,-4.6375,-4.6127,-4.6304,-4.6375,-4.6111,-4.6499,-4.6534,-4.5805,-4.5697,-4.5515,-4.4962,-4.5515,-4.5697,-4.5147,-4.6518,-4.7638,-4.8177,-4.8673,-4.894,-4.9001,-4.9001,-4.9001,-4.9001,-4.9001,-4.9001,-4.9001,-4.9001,-4.9001,-4.9001,-4.9001,-4.9001,-3.5504,-3.5504,0.0,-3.3021,-3.1869,0.0,-2.8154,0.0,0.0,0.0,0.0,0.0,0.0,-2.9385,-2.8323,-2.744,-2.6348,-2.4777,0.0,-2.1874,0.0,0.0,0.0,0.0,0.0,0.0,-2.5659,-2.8334,0.0,0.0,0.0,0.0,-3.4442,-3.5115,-3.5789,-3.6252,-3.6492,-3.73,-3.7943,-3.8392,-3.8841,-3.9185,-3.9388,-3.9388,-3.9388,-3.9403,-3.9873,-4.0053,-4.0113,-4.0756,-4.1452,-4.2104,-4.2598,-4.3488,-4.4586,-4.5405,-4.6005,-4.6359,-4.606,-4.5483,-4.4849,-4.4849,-4.4488,-4.4066,-4.4066,-4.3693,-4.3488,-4.4259,-4.4887,-4.5426,-4.6218,-4.6809,-4.7168,-4.7168,-4.6809,-4.6394,-4.6394,-4.6056,-4.5697,-4.5697,-4.5913,-4.5897,-4.5369,-4.5733,-4.5913,-4.5369,-4.5933,-4.6147,-4.5369,-4.5515,-4.5515,-4.4999,-4.5515,-4.5697,-4.5258,-4.606,-4.6779,-4.7255,-4.7819,-4.8242,-4.8482,-4.8576,-4.8719,-4.9001,-4.9001,-4.9001,-4.9001,-4.9001,-4.9001,-4.9001,-4.9001,-4.9001]}]]